[[{"header":{"parameterUnit":"m.s-1","parameterCategory":1,"la1":31.0,"la2":29.5877,"lo1":-88.7671,"lo2":-86.6584,"dy":0.0162,"dx":0.0185,"nx":115,"ny":88,"refTime":"2026-03-19T00:00:00:Z","depth":0,"parameterNumber":2,"parameterNumberName":"U-component_of_WINDS"},"data":[0.0,0.0,0.0,0.0,0.0,0.0,0.0,0.0,0.0,0.0,0.0,0.0,0.0,0.0,0.0,0.0,0.0,0.0,0.0,0.0,0.0,0.0,0.0,0.0,0.0,0.0,0.0,0.0,0.0,0.0,0.0,0.0,0.0,0.0,0.0,0.0,0.0,0.0,0.0,0.0,0.0,0.0,0.0,0.0,0.0,0.0,0.0,0.0,0.0,0.0,0.0,0.0,0.0,0.0,0.0,0.0,0.0,0.0,0.0,0.0,0.0,0.0,0.0,0.0,0.0,0.0,0.0,0.0,0.0,0.0,0.0,0.0,0.0,0.0,0.0,0.0,0.0,0.0,0.0,0.0,0.0,0.0,0.0,0.0,0.0,0.0,0.0,0.0,0.0,0.0,0.0,0.0,0.0,0.0,0.0,0.0,0.0,0.0,0.0,0.0,0.0,0.0,0.0,0.0,0.0,0.0,0.0,0.0,0.0,0.0,0.0,0.0,0.0,0.0,0.0,0.0,0.0,0.0,0.0,0.0,0.0,0.0,0.0,0.0,0.0,0.0,0.0,0.0,0.0,0.0,0.0,0.0,0.0,0.0,0.0,0.0,0.0,0.0,0.0,0.0,0.0,0.0,0.0,0.0,0.0,0.0,0.0,0.0,0.0,0.0,0.0,0.0,0.0,0.0,0.0,0.0,0.0,0.0,0.0,0.0,0.0,0.0,0.0,0.0,0.0,0.0,0.0,0.0,0.0,0.0,0.0,0.0,0.0,0.0,0.0,0.0,0.0,0.0,0.0,0.0,0.0,0.0,0.0,0.0,0.0,0.0,0.0,0.0,0.0,0.0,0.0,0.0,0.0,0.0,0.0,0.0,0.0,0.0,0.0,0.0,0.0,0.0,0.0,0.0,0.0,0.0,0.0,0.0,0.0,0.0,0.0,0.0,0.0,0.0,0.0,0.0,0.0,0.0,0.0,0.0,0.0,0.0,0.0,0.0,0.0,0.0,0.0,0.0,0.0,0.0,0.0,0.0,0.0,0.0,0.0,0.0,0.0,0.0,0.0,0.0,0.0,0.0,0.0,0.0,0.0,0.0,0.0,0.0,0.0,0.0,0.0,0.0,0.0,0.0,0.0,0.0,0.0,0.0,0.0,0.0,0.0,0.0,0.0,0.0,0.0,0.0,0.0,0.0,0.0,0.0,0.0,0.0,0.0,0.0,0.0,0.0,0.0,0.0,0.0,0.0,0.0,0.0,0.0,0.0,0.0,0.0,0.0,0.0,0.0,0.0,0.0,0.0,0.0,0.0,0.0,0.0,0.0,0.0,0.0,0.0,0.0,0.0,0.0,0.0,0.0,0.0,0.0,0.0,0.0,0.0,0.0,0.0,0.0,0.0,0.0,0.0,0.0,0.0,0.0,0.0,0.0,0.0,0.0,0.0,0.0,0.0,0.0,0.0,0.0,0.0,0.0,0.0,0.0,0.0,0.0,0.0,0.0,0.0,0.0,0.0,0.0,0.0,0.0,0.0,0.0,0.0,0.0,0.0,0.0,0.0,0.0,0.0,0.0,0.0,0.0,0.0,0.0,0.0,0.0,0.0,0.0,0.0,0.0,0.0,0.0,0.0,0.0,0.0,0.0,0.0,0.0,0.0,0.0,0.0,0.0,0.0,0.0,0.0,0.0,0.0,0.0,0.0,0.0,0.0,0.0,0.0,0.0,0.0,0.0,0.0,0.0,0.0,0.0,0.0,0.0,0.0,0.0,0.0,0.0,0.0,0.0,0.0,0.0,0.0,0.0,0.0,0.0,0.0,0.0,0.0,0.0,0.0,0.0,0.0,0.0,0.0,0.0,0.0,0.0,0.0,0.0,0.0,0.0,0.0,0.0,0.0,0.0,0.0,0.0,0.0,0.0,0.0,0.0,0.0,0.0,0.0,0.0,0.0,0.0,0.0,0.0,0.0,0.0,0.0,0.0,0.0,0.0,0.0,0.0,0.0,0.0,0.0,0.0,0.0,0.0,0.0,0.0,0.0,0.0,0.0,0.0,0.0,0.0,0.0,0.0,0.0,0.0,0.0,0.0,0.0,0.0,0.0,0.0,0.0,0.0,0.0,0.0,0.0,0.0,0.0,0.0,0.0,0.0,0.0,0.0,0.0,0.0,0.0,0.0,0.0,0.0,0.0,0.0,0.0,0.0,0.0,0.0,0.0,0.0,0.0,0.0,0.0,0.0,0.0,0.0,0.0,0.0,0.0,0.0,0.0,0.0,0.0,0.0,0.0,0.0,0.0,0.0,0.0,0.0,0.0,0.0,0.0,0.0,0.0,0.0,0.0,0.0,0.0,0.0,0.0,0.0,0.0,0.0,0.0,0.0,0.0,0.0,0.0,0.0,0.0,0.0,0.0,0.0,0.0,0.0,0.0,0.0,0.0,0.0,0.0,0.0,0.0,0.0,0.0,0.0,0.0,0.0,0.0,0.0,0.0,0.0,0.0,0.0,0.0,0.0,0.0,0.0,0.0,0.0,0.0,0.0,0.0,0.0,0.0,0.0,0.0,0.0,0.0,0.0,0.0,0.0,0.0,0.0,0.0,0.0,0.0,0.0,0.0,0.0,0.0,0.0,0.0,0.0,0.0,0.0,0.0,0.0,0.0,0.0,0.0,0.0,0.0,0.0,0.0,0.0,0.0,0.0,0.0,0.0,0.0,0.0,0.0,0.0,0.0,0.0,0.0,0.0,0.0,0.0,0.0,0.0,0.0,0.0,0.0,0.0,0.0,0.0,0.0,0.0,0.0,0.0,0.0,0.0,0.0,0.0,0.0,0.0,0.0,0.0,0.0,0.0,0.0,0.0,0.0,0.0,0.0,0.0,0.0,0.0,0.0,0.0,0.0,0.0,0.0,0.0,0.0,0.0,0.0,0.0,0.0,0.0,0.0,0.0,0.0,0.0,0.0,0.0,0.0,0.0,0.0,0.0,0.0,0.0,0.0,0.0,0.0,0.0,0.0,0.0,0.0,0.0,0.0,0.0,0.0,0.0,0.0,0.0,0.0,0.0,0.0,0.0,0.0,0.0,0.0,0.0,0.0,0.0,0.0,0.0,0.0,0.0,0.0,0.0,0.0,0.0,0.0,0.0,0.0,0.0,0.0,0.0,0.0,0.0,0.0,0.0,0.0,0.0,0.0,0.0,0.0,0.0,0.0,0.0,0.0,0.0,0.0,0.0,0.0,0.0,0.0,0.0,0.0,0.0,0.0,0.0,0.0,0.0,0.0,0.0,0.0,0.0,0.0,0.0,0.0,0.0,0.0,0.0,0.0,0.0,0.0,0.0,0.0,0.0,0.0,0.0,0.0,0.0,0.0,0.0,0.0,0.0,0.0,0.0,0.0,0.0,0.0,0.0,0.0,0.0,0.0,0.0,0.0,0.0,0.0,0.0,0.0,0.0,0.0,0.0,0.0,0.0,0.0,0.0,0.0,0.0,0.0,0.0,0.0,0.0,0.0,0.0,0.0,0.0,0.0,0.0,0.0,0.0,0.0,0.0,0.0,0.0,0.0,0.0,0.0,0.0,0.0,0.0,0.0,0.0,0.0,0.0,0.0,0.0,0.0,0.0,0.0,0.0,0.0,0.0,0.0,0.0,0.0,0.0,0.0,0.0,0.0,0.0,0.0,0.0,0.0,0.0,0.0,0.0,0.0,0.0,0.0,0.0,0.0,0.0,0.0,0.0,0.0,0.0,0.0,0.0,0.0,0.0,0.0,0.0,0.0,0.0,0.0,0.0,0.0,0.0,0.0,0.0,0.0,0.0,0.0,0.0,0.0,0.0,0.0,0.0,0.0,0.0,0.0,0.0,0.0,0.0,0.0,0.0,0.0,0.0,0.0,0.0,0.0,0.0,0.0,0.0,0.0,0.0,0.0,0.0,0.0,0.0,0.0,0.0,0.0,0.0,0.0,0.0,0.0,0.0,0.0,0.0,0.0,0.0,0.0,0.0,0.0,0.0,0.0,0.0,0.0,0.0,0.0,0.0,0.0,0.0,0.0,0.0,0.0,0.0,0.0,0.0,0.0,0.0,0.0,0.0,0.0,0.0,0.0,0.0,0.0,0.0,0.0,0.0,0.0,0.0,0.0,0.0,0.0,0.0,0.0,0.0,0.0,0.0,0.0,0.0,0.0,0.0,0.0,0.0,0.0,0.0,0.0,0.0,0.0,0.0,0.0,0.0,0.0,0.0,0.0,0.0,0.0,0.0,0.0,0.0,0.0,0.0,0.0,0.0,0.0,-3.0726,0.0,0.0,0.0,0.0,0.0,0.0,0.0,0.0,0.0,0.0,0.0,0.0,0.0,0.0,0.0,0.0,0.0,0.0,0.0,0.0,0.0,0.0,0.0,0.0,0.0,0.0,0.0,0.0,0.0,0.0,0.0,0.0,0.0,0.0,0.0,0.0,0.0,0.0,0.0,0.0,0.0,0.0,0.0,0.0,0.0,0.0,0.0,0.0,0.0,0.0,0.0,0.0,0.0,0.0,0.0,0.0,0.0,0.0,0.0,0.0,0.0,0.0,0.0,0.0,0.0,0.0,0.0,0.0,0.0,0.0,0.0,0.0,0.0,0.0,0.0,0.0,0.0,0.0,0.0,0.0,0.0,0.0,0.0,0.0,0.0,0.0,0.0,0.0,0.0,0.0,0.0,0.0,0.0,0.0,0.0,0.0,0.0,0.0,0.0,0.0,0.0,0.0,0.0,0.0,0.0,0.0,0.0,0.0,0.0,0.0,-3.2244,-3.2355,-3.2257,-3.1783,-3.0797,0.0,0.0,0.0,0.0,0.0,0.0,0.0,0.0,0.0,0.0,0.0,0.0,0.0,0.0,0.0,0.0,0.0,0.0,0.0,0.0,0.0,0.0,0.0,0.0,0.0,0.0,0.0,0.0,0.0,0.0,0.0,0.0,0.0,0.0,0.0,0.0,0.0,0.0,0.0,0.0,0.0,0.0,0.0,0.0,0.0,0.0,0.0,0.0,0.0,0.0,0.0,0.0,0.0,0.0,0.0,0.0,0.0,0.0,0.0,0.0,0.0,0.0,0.0,0.0,0.0,0.0,0.0,0.0,0.0,0.0,0.0,0.0,0.0,0.0,0.0,0.0,0.0,0.0,0.0,0.0,0.0,0.0,0.0,0.0,0.0,0.0,0.0,0.0,0.0,0.0,0.0,0.0,0.0,0.0,0.0,0.0,0.0,0.0,0.0,0.0,0.0,0.0,0.0,0.0,0.0,0.0,0.0,0.0,0.0,0.0,0.0,0.0,-3.2664,-3.2109,-3.0613,0.0,0.0,0.0,0.0,0.0,0.0,0.0,0.0,0.0,0.0,0.0,0.0,0.0,0.0,0.0,0.0,0.0,0.0,0.0,0.0,0.0,0.0,0.0,0.0,0.0,0.0,0.0,0.0,0.0,0.0,0.0,0.0,0.0,0.0,0.0,0.0,0.0,0.0,0.0,0.0,0.0,0.0,0.0,0.0,0.0,0.0,0.0,0.0,0.0,0.0,0.0,0.0,0.0,0.0,0.0,0.0,0.0,0.0,0.0,0.0,0.0,0.0,0.0,0.0,0.0,0.0,0.0,0.0,0.0,0.0,0.0,0.0,0.0,0.0,0.0,0.0,0.0,0.0,0.0,0.0,0.0,0.0,0.0,0.0,0.0,0.0,0.0,0.0,0.0,0.0,0.0,0.0,0.0,0.0,0.0,0.0,0.0,0.0,0.0,0.0,0.0,0.0,0.0,0.0,0.0,0.0,0.0,0.0,0.0,0.0,-3.2843,-3.2843,-3.2703,0.0,-3.0463,0.0,0.0,0.0,0.0,0.0,0.0,0.0,0.0,0.0,0.0,0.0,0.0,0.0,0.0,0.0,0.0,0.0,0.0,0.0,0.0,0.0,0.0,0.0,0.0,0.0,0.0,0.0,0.0,0.0,0.0,0.0,0.0,0.0,0.0,0.0,0.0,0.0,0.0,0.0,0.0,0.0,0.0,0.0,0.0,0.0,0.0,0.0,0.0,0.0,0.0,0.0,0.0,0.0,0.0,0.0,0.0,0.0,0.0,0.0,0.0,0.0,0.0,0.0,0.0,0.0,0.0,0.0,0.0,0.0,0.0,0.0,0.0,0.0,0.0,0.0,0.0,0.0,0.0,0.0,0.0,0.0,0.0,0.0,0.0,0.0,0.0,0.0,0.0,0.0,0.0,0.0,0.0,0.0,0.0,0.0,0.0,0.0,0.0,0.0,0.0,0.0,0.0,0.0,0.0,0.0,0.0,0.0,0.0,0.0,0.0,-3.2978,-3.2912,-3.2033,-3.1176,0.0,0.0,0.0,0.0,0.0,0.0,0.0,0.0,0.0,0.0,0.0,0.0,0.0,0.0,0.0,0.0,0.0,0.0,0.0,0.0,0.0,0.0,0.0,0.0,0.0,0.0,0.0,0.0,0.0,0.0,0.0,0.0,0.0,0.0,0.0,0.0,0.0,0.0,0.0,0.0,0.0,0.0,0.0,0.0,0.0,0.0,0.0,0.0,0.0,0.0,0.0,0.0,0.0,0.0,0.0,0.0,0.0,0.0,0.0,0.0,0.0,0.0,0.0,0.0,0.0,0.0,0.0,0.0,0.0,0.0,0.0,0.0,0.0,0.0,0.0,0.0,0.0,0.0,0.0,0.0,0.0,0.0,0.0,0.0,0.0,0.0,0.0,0.0,0.0,0.0,0.0,0.0,0.0,0.0,0.0,0.0,0.0,0.0,0.0,0.0,0.0,0.0,0.0,0.0,0.0,0.0,0.0,0.0,0.0,0.0,-3.2924,-3.3005,-3.285,-3.1846,-3.1042,-3.0479,0.0,0.0,0.0,0.0,0.0,0.0,0.0,0.0,0.0,0.0,0.0,0.0,0.0,0.0,0.0,0.0,0.0,0.0,0.0,0.0,0.0,0.0,0.0,0.0,0.0,0.0,0.0,0.0,0.0,0.0,0.0,0.0,0.0,0.0,0.0,0.0,0.0,0.0,0.0,0.0,0.0,0.0,0.0,0.0,0.0,0.0,0.0,0.0,0.0,0.0,0.0,0.0,0.0,0.0,0.0,0.0,0.0,0.0,0.0,0.0,0.0,0.0,0.0,0.0,0.0,0.0,0.0,0.0,0.0,0.0,0.0,0.0,0.0,0.0,0.0,0.0,0.0,0.0,0.0,0.0,0.0,0.0,0.0,0.0,0.0,0.0,0.0,0.0,0.0,0.0,0.0,0.0,0.0,0.0,0.0,0.0,0.0,0.0,0.0,0.0,0.0,0.0,0.0,0.0,0.0,0.0,0.0,0.0,-3.287,-3.2897,-3.2912,-3.2897,-3.2656,-3.1909,0.0,0.0,0.0,0.0,0.0,0.0,0.0,0.0,0.0,0.0,0.0,0.0,0.0,0.0,0.0,0.0,0.0,0.0,0.0,0.0,0.0,0.0,0.0,0.0,0.0,0.0,0.0,0.0,0.0,0.0,0.0,0.0,0.0,0.0,0.0,0.0,0.0,0.0,0.0,0.0,0.0,0.0,0.0,0.0,0.0,0.0,0.0,0.0,0.0,0.0,0.0,0.0,0.0,0.0,0.0,0.0,0.0,0.0,0.0,0.0,0.0,0.0,0.0,0.0,0.0,0.0,0.0,0.0,0.0,0.0,0.0,0.0,0.0,0.0,0.0,0.0,0.0,0.0,0.0,0.0,0.0,0.0,0.0,0.0,0.0,0.0,0.0,0.0,0.0,0.0,0.0,0.0,0.0,0.0,0.0,0.0,0.0,0.0,0.0,0.0,0.0,0.0,0.0,0.0,0.0,0.0,0.0,0.0,0.0,-3.2989,-3.3016,-3.2908,-3.2687,-3.1981,-3.1228,0.0,0.0,0.0,0.0,0.0,0.0,0.0,0.0,0.0,0.0,0.0,0.0,0.0,0.0,0.0,0.0,0.0,0.0,0.0,0.0,0.0,0.0,0.0,0.0,0.0,0.0,0.0,0.0,0.0,0.0,0.0,0.0,0.0,0.0,0.0,0.0,0.0,0.0,0.0,0.0,0.0,0.0,0.0,0.0,0.0,0.0,0.0,0.0,0.0,0.0,0.0,0.0,0.0,0.0,0.0,0.0,0.0,0.0,0.0,0.0,0.0,0.0,0.0,0.0,0.0,0.0,0.0,0.0,0.0,0.0,0.0,0.0,0.0,0.0,0.0,0.0,0.0,0.0,0.0,0.0,0.0,0.0,0.0,0.0,0.0,0.0,0.0,0.0,0.0,0.0,0.0,0.0,0.0,0.0,0.0,0.0,0.0,0.0,0.0,0.0,0.0,0.0,0.0,0.0,0.0,0.0,0.0,0.0,0.0,-3.3085,0.0,-3.3069,-3.2792,-3.1805,-3.1025,0.0,0.0,0.0,0.0,0.0,0.0,0.0,0.0,0.0,0.0,0.0,0.0,0.0,0.0,0.0,0.0,0.0,0.0,0.0,0.0,0.0,0.0,0.0,0.0,0.0,0.0,0.0,0.0,0.0,0.0,0.0,0.0,0.0,0.0,0.0,0.0,0.0,0.0,0.0,0.0,0.0,0.0,0.0,0.0,0.0,0.0,0.0,0.0,0.0,0.0,0.0,0.0,0.0,0.0,0.0,0.0,0.0,0.0,0.0,0.0,0.0,0.0,0.0,0.0,0.0,0.0,0.0,0.0,0.0,0.0,0.0,0.0,0.0,0.0,0.0,0.0,0.0,0.0,0.0,0.0,0.0,0.0,0.0,0.0,0.0,0.0,0.0,0.0,0.0,0.0,0.0,0.0,0.0,0.0,0.0,0.0,0.0,0.0,0.0,0.0,0.0,0.0,0.0,0.0,0.0,0.0,0.0,0.0,-3.2951,-3.3096,-3.3229,-3.3282,-3.3266,-3.2311,-3.1467,0.0,0.0,0.0,0.0,0.0,0.0,0.0,0.0,0.0,0.0,0.0,0.0,0.0,0.0,0.0,0.0,0.0,0.0,0.0,0.0,0.0,0.0,0.0,0.0,0.0,0.0,0.0,0.0,0.0,0.0,0.0,0.0,0.0,0.0,0.0,0.0,0.0,0.0,0.0,0.0,0.0,0.0,0.0,0.0,0.0,0.0,0.0,0.0,0.0,0.0,0.0,0.0,0.0,0.0,0.0,0.0,0.0,0.0,0.0,0.0,0.0,0.0,0.0,0.0,0.0,0.0,0.0,0.0,0.0,0.0,0.0,0.0,0.0,0.0,0.0,0.0,0.0,0.0,0.0,0.0,0.0,0.0,0.0,0.0,0.0,0.0,0.0,0.0,0.0,0.0,0.0,0.0,0.0,0.0,0.0,0.0,0.0,0.0,0.0,0.0,0.0,0.0,0.0,0.0,0.0,0.0,0.0,0.0,0.0,-3.3229,-3.3112,-3.3224,-3.3646,-3.2456,-3.1622,0.0,0.0,0.0,0.0,0.0,0.0,0.0,0.0,0.0,0.0,0.0,0.0,0.0,0.0,0.0,0.0,0.0,0.0,0.0,0.0,0.0,0.0,0.0,0.0,0.0,0.0,0.0,0.0,0.0,0.0,0.0,0.0,0.0,0.0,0.0,0.0,0.0,0.0,0.0,0.0,0.0,0.0,0.0,0.0,0.0,0.0,0.0,0.0,0.0,0.0,0.0,0.0,0.0,0.0,0.0,0.0,0.0,0.0,0.0,0.0,0.0,0.0,0.0,0.0,0.0,0.0,0.0,0.0,0.0,0.0,0.0,0.0,0.0,0.0,0.0,0.0,0.0,0.0,0.0,0.0,0.0,0.0,0.0,0.0,0.0,0.0,0.0,0.0,0.0,0.0,0.0,0.0,0.0,0.0,0.0,0.0,0.0,0.0,0.0,0.0,0.0,0.0,0.0,0.0,0.0,0.0,0.0,0.0,0.0,-3.3516,-3.3392,-3.3556,-3.3951,-3.283,-3.1995,-3.1462,0.0,0.0,0.0,0.0,0.0,0.0,0.0,0.0,0.0,0.0,0.0,0.0,0.0,0.0,0.0,0.0,0.0,0.0,0.0,0.0,0.0,0.0,0.0,0.0,0.0,0.0,0.0,0.0,0.0,0.0,0.0,0.0,0.0,0.0,0.0,0.0,0.0,0.0,0.0,0.0,0.0,0.0,0.0,0.0,0.0,0.0,0.0,0.0,0.0,0.0,0.0,0.0,0.0,0.0,0.0,0.0,0.0,0.0,0.0,0.0,0.0,0.0,0.0,0.0,0.0,0.0,0.0,0.0,0.0,0.0,0.0,0.0,0.0,0.0,0.0,0.0,0.0,0.0,0.0,0.0,0.0,0.0,0.0,0.0,0.0,0.0,0.0,0.0,0.0,0.0,0.0,0.0,0.0,0.0,0.0,0.0,0.0,0.0,0.0,0.0,0.0,0.0,0.0,0.0,0.0,0.0,0.0,0.0,-3.4042,-3.4163,-3.423,-3.4183,-3.3384,-3.252,0.0,0.0,0.0,0.0,0.0,0.0,0.0,0.0,0.0,0.0,0.0,0.0,0.0,0.0,0.0,0.0,0.0,0.0,0.0,0.0,0.0,0.0,0.0,0.0,0.0,0.0,0.0,0.0,0.0,0.0,0.0,0.0,0.0,0.0,0.0,0.0,0.0,0.0,0.0,0.0,0.0,0.0,0.0,0.0,0.0,0.0,0.0,0.0,0.0,0.0,0.0,0.0,0.0,0.0,0.0,0.0,0.0,0.0,0.0,0.0,0.0,0.0,0.0,0.0,0.0,0.0,0.0,0.0,0.0,0.0,0.0,0.0,0.0,0.0,0.0,0.0,0.0,0.0,0.0,0.0,0.0,0.0,0.0,0.0,0.0,0.0,0.0,0.0,0.0,0.0,0.0,0.0,0.0,0.0,0.0,0.0,0.0,0.0,0.0,0.0,0.0,0.0,0.0,0.0,0.0,0.0,0.0,0.0,0.0,-3.5886,-3.6008,-3.5789,-3.5276,-3.3968,-3.3172,0.0,0.0,0.0,0.0,0.0,0.0,0.0,0.0,0.0,0.0,0.0,0.0,0.0,0.0,0.0,0.0,0.0,0.0,0.0,0.0,0.0,0.0,0.0,0.0,0.0,0.0,0.0,0.0,0.0,0.0,0.0,0.0,0.0,0.0,0.0,0.0,0.0,0.0,0.0,0.0,0.0,0.0,0.0,0.0,0.0,0.0,0.0,0.0,0.0,0.0,0.0,0.0,0.0,0.0,0.0,0.0,0.0,0.0,0.0,0.0,0.0,0.0,0.0,0.0,0.0,0.0,0.0,0.0,0.0,0.0,0.0,0.0,0.0,0.0,0.0,0.0,0.0,0.0,0.0,0.0,0.0,0.0,0.0,0.0,0.0,0.0,0.0,0.0,0.0,0.0,0.0,0.0,0.0,0.0,0.0,0.0,0.0,0.0,0.0,0.0,0.0,0.0,0.0,0.0,0.0,0.0,0.0,0.0,-3.4824,-3.6569,-3.694,-3.7033,-3.6894,-3.5535,-3.4334,0.0,0.0,0.0,0.0,0.0,0.0,0.0,0.0,0.0,0.0,0.0,0.0,0.0,0.0,0.0,0.0,0.0,0.0,0.0,0.0,0.0,0.0,0.0,0.0,0.0,0.0,0.0,0.0,0.0,0.0,0.0,0.0,0.0,0.0,0.0,0.0,0.0,0.0,0.0,0.0,0.0,0.0,0.0,0.0,0.0,0.0,0.0,0.0,0.0,0.0,0.0,0.0,0.0,0.0,0.0,0.0,0.0,0.0,0.0,0.0,0.0,0.0,0.0,0.0,0.0,0.0,0.0,0.0,0.0,0.0,0.0,0.0,0.0,0.0,0.0,0.0,0.0,0.0,0.0,0.0,0.0,0.0,0.0,0.0,0.0,0.0,0.0,0.0,0.0,0.0,0.0,0.0,0.0,0.0,0.0,0.0,0.0,0.0,0.0,0.0,0.0,0.0,0.0,0.0,0.0,0.0,0.0,0.0,-3.541,-3.6661,-3.7512,-3.8146,-3.8539,-3.7357,-3.5704,0.0,0.0,0.0,0.0,0.0,0.0,0.0,0.0,0.0,0.0,0.0,0.0,0.0,0.0,0.0,0.0,0.0,0.0,0.0,0.0,0.0,0.0,0.0,0.0,0.0,0.0,0.0,0.0,0.0,0.0,0.0,0.0,0.0,0.0,0.0,0.0,0.0,0.0,0.0,0.0,0.0,0.0,0.0,0.0,0.0,0.0,0.0,0.0,0.0,0.0,0.0,0.0,0.0,0.0,0.0,0.0,0.0,0.0,0.0,0.0,0.0,0.0,0.0,0.0,0.0,0.0,0.0,0.0,0.0,0.0,0.0,0.0,0.0,0.0,0.0,0.0,0.0,0.0,0.0,0.0,0.0,0.0,0.0,0.0,0.0,0.0,0.0,0.0,0.0,0.0,0.0,0.0,0.0,0.0,0.0,0.0,0.0,0.0,0.0,0.0,0.0,0.0,0.0,0.0,0.0,0.0,0.0,0.0,-3.6322,-3.8031,-3.8888,-3.932,-3.9293,-3.7509,-3.5907,0.0,0.0,0.0,0.0,0.0,0.0,0.0,0.0,0.0,0.0,0.0,0.0,0.0,0.0,0.0,0.0,0.0,0.0,0.0,0.0,0.0,0.0,0.0,0.0,0.0,0.0,0.0,0.0,0.0,0.0,0.0,0.0,0.0,0.0,0.0,0.0,0.0,0.0,0.0,0.0,0.0,0.0,0.0,0.0,0.0,0.0,0.0,0.0,-2.9244,0.0,0.0,0.0,0.0,0.0,0.0,0.0,0.0,0.0,0.0,0.0,0.0,0.0,0.0,0.0,0.0,0.0,0.0,0.0,0.0,0.0,0.0,0.0,0.0,0.0,0.0,0.0,0.0,0.0,0.0,0.0,0.0,0.0,0.0,0.0,0.0,0.0,0.0,0.0,0.0,0.0,0.0,0.0,0.0,0.0,0.0,0.0,0.0,0.0,0.0,0.0,0.0,0.0,0.0,0.0,0.0,0.0,0.0,0.0,-3.7079,-3.8908,-3.9506,-3.9745,-3.9531,-3.7946,-3.6341,0.0,0.0,0.0,0.0,0.0,0.0,0.0,0.0,0.0,0.0,0.0,0.0,0.0,0.0,0.0,0.0,0.0,0.0,0.0,0.0,0.0,0.0,0.0,0.0,0.0,0.0,0.0,0.0,0.0,0.0,0.0,0.0,0.0,0.0,0.0,0.0,0.0,0.0,0.0,0.0,0.0,0.0,0.0,0.0,0.0,0.0,0.0,0.0,0.0,0.0,0.0,0.0,0.0,0.0,0.0,0.0,0.0,0.0,0.0,0.0,0.0,0.0,0.0,0.0,0.0,0.0,0.0,0.0,0.0,0.0,0.0,0.0,0.0,0.0,0.0,0.0,0.0,0.0,0.0,0.0,0.0,0.0,0.0,0.0,0.0,0.0,0.0,0.0,0.0,0.0,0.0,0.0,0.0,0.0,0.0,0.0,0.0,0.0,0.0,0.0,0.0,0.0,0.0,0.0,0.0,0.0,0.0,-3.5608,-3.751,-3.9281,-3.9766,-3.9902,-3.9672,-3.837,-3.6706,-3.473,0.0,0.0,0.0,0.0,0.0,0.0,0.0,0.0,0.0,0.0,0.0,0.0,0.0,0.0,0.0,0.0,0.0,0.0,0.0,0.0,0.0,0.0,0.0,0.0,0.0,0.0,0.0,0.0,0.0,0.0,0.0,0.0,0.0,0.0,0.0,0.0,0.0,0.0,-2.803,-2.856,0.0,0.0,0.0,0.0,0.0,0.0,0.0,0.0,-2.917,0.0,0.0,0.0,0.0,0.0,0.0,0.0,0.0,0.0,0.0,0.0,0.0,0.0,0.0,0.0,0.0,0.0,0.0,0.0,0.0,0.0,0.0,0.0,0.0,0.0,0.0,0.0,0.0,0.0,0.0,0.0,0.0,0.0,0.0,0.0,0.0,0.0,0.0,0.0,0.0,0.0,0.0,0.0,0.0,0.0,0.0,0.0,0.0,0.0,0.0,0.0,0.0,0.0,0.0,0.0,0.0,-3.3571,-3.5437,-3.7143,-3.872,-4.0146,-4.05,-3.9707,-3.8251,-3.6382,-3.4187,0.0,0.0,0.0,0.0,0.0,0.0,0.0,0.0,0.0,0.0,0.0,0.0,0.0,0.0,0.0,0.0,0.0,0.0,0.0,0.0,0.0,0.0,0.0,0.0,0.0,0.0,0.0,0.0,0.0,0.0,0.0,0.0,0.0,0.0,0.0,0.0,0.0,0.0,0.0,-3.0052,-3.0174,0.0,0.0,0.0,0.0,0.0,0.0,0.0,0.0,-2.9713,0.0,0.0,0.0,0.0,0.0,0.0,0.0,0.0,0.0,0.0,0.0,0.0,0.0,0.0,0.0,0.0,0.0,0.0,0.0,0.0,0.0,0.0,0.0,0.0,0.0,0.0,0.0,0.0,0.0,0.0,0.0,0.0,0.0,0.0,0.0,0.0,0.0,0.0,0.0,0.0,0.0,0.0,0.0,0.0,0.0,0.0,0.0,0.0,0.0,0.0,0.0,0.0,0.0,0.0,0.0,-3.3541,-3.5815,-3.7588,-3.8683,-3.9713,-3.9809,-3.8914,-3.7205,-3.5398,0.0,0.0,0.0,0.0,0.0,0.0,0.0,0.0,0.0,0.0,0.0,0.0,0.0,0.0,0.0,0.0,0.0,0.0,0.0,0.0,0.0,0.0,0.0,0.0,0.0,0.0,0.0,0.0,0.0,0.0,0.0,0.0,0.0,0.0,0.0,0.0,0.0,0.0,0.0,0.0,-3.088,-3.1097,-3.1707,0.0,0.0,0.0,0.0,0.0,0.0,-3.0133,-3.0052,0.0,0.0,0.0,0.0,0.0,0.0,0.0,0.0,0.0,0.0,0.0,0.0,0.0,0.0,0.0,0.0,0.0,0.0,0.0,0.0,0.0,0.0,0.0,0.0,0.0,0.0,0.0,0.0,0.0,0.0,0.0,0.0,0.0,0.0,0.0,0.0,0.0,0.0,0.0,0.0,0.0,0.0,0.0,0.0,0.0,0.0,0.0,0.0,0.0,0.0,0.0,0.0,0.0,0.0,0.0,-3.3276,-3.5955,-3.774,-3.8554,-3.906,-3.895,-3.8136,-3.6259,-3.454,0.0,0.0,0.0,0.0,0.0,0.0,0.0,0.0,0.0,0.0,0.0,0.0,0.0,0.0,0.0,0.0,0.0,0.0,0.0,0.0,0.0,0.0,0.0,0.0,0.0,0.0,0.0,0.0,0.0,0.0,0.0,0.0,0.0,0.0,0.0,0.0,0.0,0.0,0.0,0.0,0.0,-3.2046,-3.264,-3.2028,0.0,0.0,0.0,0.0,-3.029,-3.0717,0.0,0.0,0.0,0.0,0.0,0.0,0.0,0.0,0.0,0.0,0.0,0.0,0.0,0.0,0.0,0.0,0.0,0.0,0.0,0.0,0.0,0.0,0.0,0.0,0.0,0.0,0.0,0.0,0.0,0.0,0.0,0.0,0.0,0.0,0.0,0.0,0.0,0.0,0.0,0.0,0.0,0.0,0.0,0.0,0.0,0.0,0.0,0.0,0.0,0.0,0.0,0.0,0.0,0.0,0.0,0.0,-3.2638,-3.4967,-3.6684,-3.7724,-3.8576,-3.8686,-3.7947,-3.6319,-3.4608,0.0,0.0,0.0,0.0,0.0,0.0,0.0,0.0,0.0,0.0,0.0,0.0,0.0,0.0,0.0,0.0,0.0,0.0,0.0,0.0,0.0,0.0,0.0,0.0,0.0,0.0,0.0,0.0,0.0,0.0,0.0,0.0,0.0,0.0,0.0,0.0,0.0,0.0,0.0,0.0,0.0,-3.3067,-3.1694,-3.1816,-3.168,0.0,0.0,-3.2178,-3.2612,-3.3145,0.0,0.0,0.0,0.0,0.0,0.0,0.0,0.0,0.0,0.0,0.0,0.0,0.0,0.0,0.0,0.0,0.0,0.0,0.0,0.0,0.0,0.0,0.0,0.0,0.0,0.0,0.0,0.0,0.0,0.0,0.0,0.0,0.0,0.0,0.0,0.0,0.0,0.0,0.0,0.0,0.0,0.0,0.0,0.0,0.0,0.0,0.0,0.0,0.0,0.0,0.0,0.0,0.0,0.0,0.0,-3.1455,-3.2377,-3.4585,-3.6117,-3.6911,-3.7529,-3.7496,-3.6726,-3.525,-3.3704,0.0,0.0,0.0,0.0,0.0,0.0,0.0,0.0,0.0,0.0,0.0,0.0,0.0,0.0,0.0,0.0,0.0,0.0,0.0,0.0,0.0,0.0,0.0,0.0,0.0,0.0,0.0,0.0,0.0,0.0,0.0,0.0,0.0,0.0,0.0,0.0,0.0,0.0,0.0,0.0,0.0,0.0,-3.2823,-3.3037,0.0,0.0,0.0,-3.3023,-3.2667,0.0,0.0,0.0,0.0,0.0,0.0,0.0,0.0,0.0,0.0,0.0,0.0,0.0,0.0,0.0,0.0,0.0,0.0,0.0,0.0,0.0,0.0,0.0,0.0,0.0,0.0,0.0,0.0,0.0,0.0,0.0,0.0,0.0,0.0,0.0,0.0,0.0,0.0,0.0,0.0,0.0,0.0,0.0,0.0,0.0,0.0,0.0,0.0,0.0,0.0,0.0,0.0,0.0,0.0,0.0,0.0,0.0,-3.2218,-3.4314,-3.5731,-3.6298,-3.6693,-3.6518,-3.5736,-3.4491,0.0,0.0,0.0,0.0,0.0,0.0,0.0,0.0,0.0,0.0,0.0,0.0,0.0,0.0,0.0,0.0,0.0,0.0,0.0,0.0,0.0,0.0,0.0,0.0,0.0,0.0,0.0,-2.0322,0.0,0.0,0.0,0.0,0.0,0.0,0.0,0.0,0.0,0.0,0.0,0.0,0.0,0.0,-3.3349,-3.3447,-3.3783,-3.3837,0.0,0.0,-3.3704,-3.3159,-3.4434,-3.4651,0.0,0.0,0.0,0.0,0.0,0.0,0.0,0.0,0.0,0.0,0.0,0.0,0.0,0.0,0.0,0.0,0.0,0.0,0.0,0.0,0.0,0.0,0.0,0.0,0.0,0.0,0.0,0.0,0.0,0.0,0.0,0.0,0.0,0.0,0.0,0.0,0.0,0.0,0.0,0.0,0.0,0.0,0.0,0.0,0.0,0.0,0.0,0.0,0.0,0.0,0.0,0.0,0.0,0.0,-3.1029,-3.2218,-3.4189,-3.5509,-3.6085,-3.6325,-3.6127,-3.5543,-3.4678,-3.3161,0.0,0.0,0.0,0.0,0.0,0.0,0.0,0.0,0.0,0.0,0.0,0.0,0.0,0.0,0.0,0.0,0.0,0.0,0.0,0.0,0.0,0.0,0.0,0.0,0.0,0.0,0.0,0.0,0.0,0.0,0.0,0.0,0.0,0.0,0.0,0.0,0.0,0.0,0.0,0.0,0.0,-3.3525,-3.249,-3.3268,-3.3973,0.0,-3.388,-3.426,-3.5316,-3.6469,-3.6306,-3.3455,0.0,0.0,0.0,0.0,0.0,0.0,0.0,0.0,0.0,0.0,0.0,0.0,0.0,0.0,0.0,0.0,0.0,0.0,0.0,0.0,0.0,0.0,0.0,0.0,0.0,0.0,0.0,0.0,0.0,0.0,0.0,0.0,0.0,0.0,0.0,0.0,0.0,0.0,0.0,0.0,0.0,0.0,0.0,0.0,0.0,0.0,0.0,0.0,0.0,0.0,0.0,0.0,0.0,-3.0643,-3.2191,-3.3655,-3.4878,-3.5803,-3.5938,-3.5514,-3.453,-3.4208,-3.2754,0.0,0.0,0.0,0.0,0.0,0.0,0.0,0.0,0.0,0.0,0.0,0.0,0.0,0.0,0.0,0.0,0.0,0.0,0.0,0.0,0.0,0.0,0.0,0.0,0.0,0.0,0.0,0.0,-2.1957,-2.2101,-2.2618,0.0,0.0,0.0,0.0,0.0,0.0,0.0,0.0,0.0,0.0,-3.3615,-3.4273,-3.4746,0.0,0.0,-3.5303,-3.5479,-3.5168,-3.5873,-3.552,-3.2966,-3.1897,0.0,0.0,0.0,0.0,0.0,0.0,0.0,0.0,0.0,0.0,0.0,0.0,0.0,0.0,0.0,0.0,0.0,0.0,0.0,0.0,0.0,0.0,0.0,0.0,0.0,0.0,0.0,0.0,0.0,0.0,0.0,0.0,0.0,0.0,0.0,0.0,0.0,0.0,0.0,0.0,0.0,0.0,0.0,0.0,0.0,0.0,0.0,0.0,0.0,0.0,0.0,0.0,-3.0398,-3.2205,-3.3186,-3.4258,-3.5425,-3.5236,-3.4666,-3.3729,-3.3637,-3.2359,0.0,0.0,0.0,0.0,0.0,0.0,0.0,0.0,0.0,0.0,0.0,0.0,0.0,0.0,0.0,0.0,0.0,0.0,0.0,0.0,0.0,0.0,0.0,0.0,0.0,0.0,0.0,0.0,-2.251,-2.2433,-2.2951,0.0,0.0,0.0,0.0,0.0,0.0,0.0,0.0,0.0,0.0,-3.3237,-3.466,-3.5021,-3.5248,-3.5425,-3.5493,-3.5425,-3.51,-3.5263,-3.4749,-3.2707,0.0,0.0,0.0,0.0,0.0,0.0,0.0,0.0,0.0,0.0,0.0,0.0,0.0,0.0,0.0,0.0,0.0,0.0,0.0,0.0,0.0,0.0,0.0,0.0,0.0,0.0,0.0,-2.8587,0.0,0.0,-2.8573,0.0,0.0,0.0,0.0,0.0,0.0,0.0,0.0,0.0,0.0,0.0,0.0,0.0,0.0,0.0,0.0,0.0,0.0,0.0,0.0,0.0,0.0,-3.0385,-3.2164,-3.2816,-3.3661,-3.4748,-3.4246,-3.3677,-3.3156,-3.3129,-3.1988,-2.9536,0.0,0.0,0.0,0.0,0.0,0.0,0.0,0.0,0.0,0.0,0.0,0.0,0.0,0.0,0.0,0.0,0.0,0.0,0.0,0.0,0.0,0.0,0.0,0.0,0.0,0.0,-2.3011,-2.2522,-2.239,0.0,0.0,0.0,0.0,0.0,0.0,0.0,0.0,0.0,-2.9319,-3.1003,-3.2328,-3.2909,-3.3523,-3.4169,-3.4736,-3.3921,-3.377,-3.5358,-3.5154,-3.4375,0.0,0.0,0.0,0.0,0.0,0.0,0.0,0.0,0.0,0.0,0.0,0.0,0.0,0.0,0.0,0.0,0.0,0.0,0.0,0.0,0.0,0.0,0.0,0.0,0.0,0.0,0.0,-2.8986,-2.86,0.0,0.0,0.0,0.0,0.0,0.0,0.0,0.0,0.0,0.0,0.0,-2.917,-2.9184,0.0,0.0,0.0,0.0,0.0,0.0,0.0,0.0,0.0,0.0,0.0,0.0,-2.9781,-3.1531,-3.2585,-3.3457,-3.4165,-3.4016,-3.3623,-3.3129,-3.3115,-3.164,-2.8525,0.0,0.0,0.0,0.0,0.0,0.0,0.0,0.0,0.0,0.0,0.0,0.0,0.0,0.0,0.0,0.0,0.0,0.0,0.0,0.0,0.0,0.0,0.0,0.0,0.0,-2.3188,0.0,0.0,0.0,0.0,0.0,0.0,0.0,0.0,0.0,0.0,0.0,-2.7878,-2.9744,-3.084,-3.1966,-3.3338,-3.3686,-3.4005,0.0,0.0,0.0,0.0,0.0,0.0,0.0,0.0,0.0,0.0,0.0,0.0,0.0,0.0,-2.8471,-2.6747,-2.6081,-2.581,-2.5748,0.0,0.0,0.0,0.0,0.0,0.0,0.0,0.0,0.0,0.0,0.0,0.0,0.0,0.0,-2.9387,-2.9211,-2.8994,0.0,0.0,0.0,0.0,0.0,0.0,0.0,0.0,-2.995,-2.9998,-2.9828,-2.9794,-2.9591,-2.9252,-2.9428,-2.8804,0.0,0.0,0.0,0.0,0.0,0.0,0.0,0.0,-2.9903,-3.1273,-3.23,-3.3037,-3.3593,-3.3406,-3.3145,-3.2803,-3.2364,-3.0922,-2.8245,-2.6645,-2.4968,0.0,0.0,0.0,0.0,0.0,0.0,0.0,0.0,0.0,0.0,0.0,0.0,0.0,0.0,0.0,0.0,0.0,0.0,0.0,0.0,0.0,0.0,0.0,-2.3273,0.0,0.0,0.0,0.0,0.0,0.0,0.0,0.0,0.0,-2.6478,-2.6954,-2.7853,-2.9711,-3.0663,-3.1659,-3.2942,0.0,0.0,0.0,0.0,0.0,0.0,0.0,-3.198,-3.0911,-3.0969,-3.1008,-3.0663,-3.0618,-3.0472,-2.9928,0.0,0.0,-2.7869,-2.7156,-2.6827,-2.6921,-2.7365,-2.7678,-2.7513,-2.8071,-2.8505,0.0,0.0,0.0,0.0,0.0,0.0,0.0,0.0,-2.9808,-2.9876,0.0,-2.9726,0.0,0.0,0.0,0.0,-2.8722,-2.9849,0.0,0.0,-3.073,-3.1002,-3.05,-3.0452,-3.0438,-3.0486,-3.0967,-3.033,-2.8709,-2.8071,0.0,0.0,0.0,0.0,0.0,0.0,-3.0676,-3.1246,-3.187,-3.2467,-3.3033,-3.2517,-3.2196,-3.2146,-3.1023,-2.9825,-2.8652,-2.7467,-2.5804,-2.362,-2.3585,0.0,0.0,0.0,0.0,0.0,0.0,0.0,0.0,0.0,0.0,0.0,0.0,0.0,0.0,0.0,0.0,0.0,0.0,0.0,0.0,-2.3179,0.0,0.0,0.0,0.0,0.0,0.0,0.0,0.0,0.0,0.0,-2.6202,-2.7115,-2.8126,-2.9188,0.0,0.0,0.0,0.0,-3.273,-3.2769,-3.2296,-3.2102,-3.2666,-3.2718,-3.2456,-3.1854,0.0,0.0,-3.0423,-3.017,-3.0062,-2.9479,-2.9865,-3.0012,-2.9472,-2.8576,-2.792,-2.7688,-2.7734,-2.77,-2.7669,-2.8236,-2.8662,-3.1773,0.0,0.0,0.0,0.0,-3.0147,-3.0486,-3.1029,-3.0853,-3.0635,-3.0364,-2.9787,0.0,0.0,0.0,0.0,0.0,0.0,-3.054,-3.0785,-3.1137,-3.1436,-3.1667,-3.1194,-3.1208,-3.1667,-3.1016,-3.0592,-3.0486,-2.9502,-2.8017,-2.6199,0.0,0.0,0.0,0.0,-3.0052,-3.069,-3.1667,-3.23,-3.2463,-3.2314,-3.1973,-3.1505,-3.0312,-2.8995,-2.7538,-2.6773,-2.5585,-2.3818,-2.3376,0.0,0.0,0.0,0.0,0.0,0.0,0.0,0.0,0.0,0.0,0.0,0.0,0.0,0.0,0.0,0.0,0.0,0.0,0.0,-2.2222,-2.2471,-2.2695,0.0,0.0,0.0,0.0,0.0,0.0,0.0,0.0,0.0,-2.7645,-2.8077,-2.8534,0.0,0.0,-3.0427,-3.0585,-3.1083,-3.1577,-3.1957,-3.1896,0.0,-3.1994,-3.2029,-3.199,-3.1753,-3.2043,-3.2016,-3.1371,-3.1234,-3.1187,-3.1009,-3.0728,-3.0322,-2.9848,-2.9521,-2.9183,-2.8824,-2.8824,-2.8858,-2.8745,-2.8981,-2.924,-3.2434,-3.1537,-3.0829,-3.063,-3.0758,-3.0771,-3.1097,-3.1626,-3.1409,-3.1219,-3.107,-3.0459,-2.9876,-2.9292,-2.8682,0.0,0.0,0.0,-3.0948,-3.1314,-3.1544,-3.1829,-3.2169,-3.1542,-3.1394,-3.1763,-3.105,-3.0688,-3.0591,-2.9879,-2.8442,-2.6384,0.0,-2.7528,-2.7569,-2.9062,-3.0038,-3.0446,-3.1585,-3.2059,-3.1827,-3.1556,-3.1246,-3.0846,-2.9921,-2.8837,-2.7654,-2.6867,-2.5822,-2.4468,-2.3881,-2.3159,0.0,0.0,0.0,0.0,0.0,0.0,0.0,0.0,0.0,0.0,0.0,-2.1969,-2.1452,0.0,0.0,0.0,-2.1516,-2.1816,-2.2356,-2.2589,0.0,0.0,0.0,0.0,0.0,0.0,0.0,-2.5925,-2.6478,-2.7188,-2.8314,-2.8871,-2.9328,-2.9845,-3.0194,-3.0513,-3.073,0.0,-3.1344,-3.1657,-3.1705,-3.1705,-3.1705,-3.1916,-3.204,-3.1881,-3.1731,-3.1543,-3.1316,-3.1179,-3.1088,-3.1053,-3.065,-3.0182,-2.9783,-2.9646,-2.9462,-2.9082,-2.9128,-2.9163,-2.8978,-2.9117,-2.9209,-3.3178,-3.2571,-3.1128,-3.0866,-3.1355,-3.1368,-3.168,-3.2178,-3.1599,-3.168,-3.2151,-3.1544,-3.0975,-3.0378,-2.9862,0.0,-3.0513,-3.1083,-3.1368,-3.1382,-3.1924,-3.2169,-3.2082,-3.1418,-3.1121,-3.1121,-3.1031,-3.0467,-2.9539,-2.9469,-2.8626,-2.7051,-2.7988,-2.843,-2.8457,-2.9578,-3.0186,-3.02,-3.1348,-3.17,-3.1145,-3.0545,-3.019,-3.0139,-2.9576,-2.9006,-2.8435,-2.7392,-2.6369,-2.542,-2.4819,-2.3824,-2.2426,0.0,0.0,0.0,0.0,0.0,0.0,0.0,0.0,0.0,0.0,0.0,0.0,0.0,0.0,0.0,-2.2308,0.0,-2.3109,-2.3179,0.0,0.0,0.0,-2.4016,-2.4522,-2.5036,-2.5565,-2.6129,0.0,0.0,-2.8498,-2.946,-3.0278,-3.0807,-3.0946,-3.1139,-3.1585,-3.1633,-3.1705,-3.1705,-3.1753,-3.1777,-3.1849,-3.2175,-3.228,-3.1982,-3.1345,-3.0804,-3.0612,-3.0329,-3.0182,-3.0205,-3.0011,-2.9794,-2.9485,-2.9312,-2.9035,-2.885,-2.8803,-2.8803,-2.8803,-2.885,-2.885,-3.3204,-3.2426,-3.1978,-3.1829,-3.2001,-3.2001,-3.2046,-3.2169,-3.2069,-3.2083,-3.2178,-3.1544,-3.0975,-3.0418,-3.073,-3.0948,-3.111,-3.1694,-3.2001,-3.2001,-3.2151,-3.1936,-3.1431,-3.0809,-3.0507,-3.0456,-2.9631,-2.9325,-2.946,-2.8705,-2.8084,-2.7682,-2.7486,-2.7155,-2.6759,-2.7892,-2.8499,-2.8478,-2.9585,-3.028,-3.0494,-2.9909,-2.9413,-2.9025,-2.8427,-2.7837,-2.7316,-2.6661,-2.6178,-2.5901,-2.5023,-2.4169,-2.3469,-2.2246,0.0,0.0,0.0,0.0,0.0,0.0,0.0,0.0,0.0,-2.1563,-2.0611,0.0,-2.1451,0.0,-2.2203,-2.2621,-2.2585,-2.2834,0.0,0.0,-2.3942,-2.4236,-2.5169,-2.5527,-2.6065,-2.6995,-2.7445,-2.8077,-2.8991,-2.9677,-3.0278,-3.0807,-3.1271,-3.1416,-3.1175,-3.1464,-3.1705,-3.1741,-3.201,-3.2298,-3.2262,-3.2246,-3.196,-3.1354,-3.0749,-3.0329,-3.0102,-2.9852,-2.9669,-2.9658,-2.9623,-2.9497,-2.9266,-2.9128,-2.9035,-2.885,-2.8803,-2.8803,-2.8803,-2.8803,-2.8803,-3.3517,-3.2805,-3.2921,-3.2969,-3.2928,-3.2413,-3.2205,-3.2205,-3.2205,-3.2205,-3.2205,-3.1843,-3.1504,-3.1219,-3.1544,-3.1694,-3.1707,-3.1752,-3.174,-3.174,-3.1482,-3.1158,-3.0758,-2.996,-2.953,-2.9517,-2.865,-2.8287,-2.8304,-2.7769,-2.7386,-2.7158,-2.6531,-2.6093,-2.5809,-2.7185,-2.7897,-2.791,-2.8448,-2.8885,-2.9151,-2.8584,-2.8144,-2.785,-2.7509,-2.7198,-2.6898,-2.6394,-2.5985,-2.5733,-2.4951,-2.4194,-2.3481,-2.2366,-2.1512,0.0,0.0,0.0,0.0,0.0,0.0,0.0,0.0,0.0,0.0,0.0,-2.1244,-2.1345,-2.2012,-2.2544,-2.2818,-2.3017,-2.3468,-2.4292,-2.4529,-2.5047,-2.6094,-2.6451,-2.6974,-2.7774,-2.7987,-2.8294,-2.8883,-2.9534,-3.0025,-3.0324,-3.093,-3.1311,-3.1137,-3.136,-3.1484,-3.1419,-3.1624,-3.1827,-3.1815,-3.1724,-3.138,-3.0761,-3.0329,-2.9966,-2.96,-2.9359,-2.9163,-2.9209,-2.9163,-2.9117,-2.8989,-2.8943,-2.885,-2.8409,-2.8269,-2.8258,-2.8269,-2.8269,-2.8222,-3.3985,-3.3375,-3.3726,-3.3853,-3.3704,-3.2725,-3.2341,-3.2327,-3.2327,-3.2273,-3.2205,-3.2205,-3.2205,-3.2205,-3.2205,-3.2205,-3.2132,-3.1505,-3.1182,-3.1145,-3.0582,-3.0241,-3.0139,-2.9075,-2.8561,-2.846,-2.7866,-2.7309,-2.6803,-2.6788,-2.6563,-2.606,-2.5558,-2.5312,-2.5371,-2.6822,-2.7589,-2.7666,-2.7624,-2.7606,-2.7681,-2.7185,-2.6861,-2.6789,-2.6789,-2.6765,-2.6681,-2.625,-2.5793,-2.5324,-2.4807,-2.4109,-2.322,-2.259,-2.1993,0.0,-2.0947,0.0,0.0,0.0,0.0,0.0,0.0,0.0,0.0,-2.12,-2.1377,-2.1574,-2.2087,-2.275,-2.3444,-2.3535,-2.3879,-2.4717,-2.5245,-2.5875,-2.6808,-2.7406,-2.7915,-2.8383,-2.8471,-2.8471,-2.8439,-2.9088,-2.9569,-2.9662,-3.0319,-3.0831,-3.1059,-3.116,-3.1128,-3.0984,-3.0927,-3.0941,-3.0929,-3.0918,-3.0726,-3.0284,-2.9966,-2.9646,-2.922,-2.8943,-2.8792,-2.8653,-2.8606,-2.8606,-2.8513,-2.8466,-2.8269,-2.76,-2.7447,-2.7447,-2.7447,-2.7458,-2.7258,-3.4047,-3.3338,-3.3726,-3.3637,-3.3213,-3.302,-3.2938,-3.2938,-3.2925,-3.2667,-3.2218,-3.2205,-3.2205,-3.2205,-3.2205,-3.2205,-3.2146,-3.1505,-3.1182,-3.1196,-3.0582,-3.005,-2.9537,-2.8898,-2.8345,-2.7837,-2.6868,-2.6372,-2.6227,-2.5839,-2.5573,-2.5488,-2.5347,-2.5312,-2.5312,0.0,0.0,0.0,-2.6445,-2.6614,-2.7049,-2.6973,-2.6681,-2.6274,-2.625,0.0,-2.5636,-2.5516,-2.5408,-2.53,-2.4772,0.0,0.0,0.0,0.0,0.0,0.0,0.0,0.0,0.0,0.0,0.0,-2.2079,-2.2309,-2.1803,-2.2772,-2.3329,-2.3145,-2.3813,-2.4179,-2.3909,-2.413,-2.4324,-2.4363,-2.5099,-2.5751,-2.5985,-2.7081,-2.7907,-2.799,-2.8151,-2.8179,-2.8089,-2.8516,-2.8951,-2.9114,-2.9666,-3.0024,-3.0136,-3.0476,-3.0713,-3.0668,-3.0499,-3.0363,-3.0352,-3.0193,-3.0114,-2.9886,-2.9554,-2.922,-2.9035,-2.8896,-2.8513,-2.7966,-2.7835,-2.7647,-2.7057,-2.6924,-2.6952,-2.6744,-2.6675,-2.6686,-2.6696,-2.6686,-2.6696,-3.3747,-3.324,-3.3688,-3.3745,0.0,-3.3498,-3.3322,-3.3074,-3.2789,-3.249,-3.2218,-3.2205,-3.2205,-3.2205,-3.2205,-3.2023,-3.1666,-3.1046,-3.0582,-3.0279,-2.9389,-2.8855,-2.8545,-2.7739,-2.7198,-2.6887,-2.6093,-2.5709,-2.5697,-2.5444,-2.5312,-2.5312,-2.5312,-2.5312,-2.5312,-2.5312,-2.5444,-2.5709,-2.5709,-2.5841,-2.6117,-2.6093,-2.6009,-2.5733,-2.5709,0.0,0.0,0.0,0.0,0.0,0.0,0.0,0.0,0.0,0.0,-2.2185,-2.168,-2.15,-2.1765,-2.2029,-2.2274,-2.2432,-2.3149,-2.3323,-2.2616,-2.3268,-2.3602,-2.3465,-2.3863,-2.4024,-2.3846,-2.3967,-2.4073,-2.4149,-2.4979,-2.5641,-2.6005,-2.6978,-2.7748,-2.7841,-2.7857,-2.7817,-2.7708,-2.7946,-2.8191,-2.831,-2.8683,-2.9077,-2.9387,-2.9863,-3.0227,-3.0068,-2.9943,-2.9852,-2.984,-2.9772,-2.9462,-2.9082,-2.8746,-2.8362,-2.7893,-2.7752,-2.7442,-2.6925,-2.6913,-2.6873,-2.6374,-2.6192,-2.6077,-2.5686,-2.5433,-2.5163,-2.4879,-2.5177,-2.5388,-3.3385,-3.3156,-3.3677,-3.3853,-3.3758,-3.3758,-3.3457,-3.2911,-3.2436,0.0,0.0,-3.2205,-3.2205,-3.2205,-3.2059,-3.1716,-3.1145,-3.0469,-2.9858,-2.9355,-2.8217,-2.7765,-2.7774,-2.6755,-2.625,-2.6226,-2.5697,-2.5408,-2.5312,-2.5312,-2.5312,-2.5312,-2.5312,-2.5312,-2.5312,-2.5312,-2.5312,-2.5312,-2.5312,-2.5312,-2.5312,-2.5312,-2.5312,-2.5312,-2.5312,-2.5023,-2.4422,-2.447,-2.4049,-2.3083,-2.3011,-2.2818,-2.2366,-2.2246,-2.2197,-2.2197,-2.2197,-2.2426,-2.2975,-2.3011,-2.3288,-2.389,-2.4278,-2.4248,-2.3572,-2.3585,-2.3673,-2.3711,-2.3675,-2.3682,-2.3742,-2.3666,-2.3724,-2.3911,-2.4774,-2.5525,-2.5961,-2.6812,-2.7412,-2.7493,-2.7267,-2.7092,-2.6899,-2.6936,-2.7082,-2.7162,-2.7421,-2.8009,-2.8601,-2.9307,-2.9646,-2.9439,-2.9244,-2.9152,-2.9163,-2.8921,-2.8631,-2.7882,-2.7678,-2.7296,-2.6669,-2.6333,-2.6084,-2.5658,-2.5862,-2.5777,-2.5454,-2.527,-2.513,-2.4526,-2.4116,-2.3672,-2.3074,-2.3561,-2.3975,-3.3246,-3.3156,-3.3664,-3.3661,-3.3224,-3.3224,-3.2884,-3.2341,-3.2246,-3.2205,-3.2205,-3.2205,-3.2205,-3.2169,-3.1616,-3.1307,-3.1145,-3.0024,-2.9496,-2.9355,-2.8217,-2.7918,-2.833,-2.732,-2.6777,-2.6729,-2.625,-2.5745,-2.5348,-2.5312,-2.5312,-2.5312,-2.5312,-2.5312,-2.5312,-2.5312,-2.5312,-2.5312,-2.5312,-2.5312,-2.5312,-2.5312,-2.5312,-2.5312,-2.5312,-2.4855,-2.3962,-2.4278,-2.4049,-2.3083,-2.3011,-2.2943,-2.2903,-2.2438,-2.2197,-2.2197,-2.2197,-2.2426,-2.2943,-2.3011,-2.3433,-2.4302,-2.4436,-2.446,-2.4366,-2.4727,-2.4991,-2.485,-2.4648,-2.4516,-2.4381,-2.4043,-2.3785,-2.3735,-2.4534,-2.5195,-2.5307,-2.6255,-2.6745,-2.6257,-2.608,-2.5735,-2.5221,-2.5041,-2.5155,-2.534,-2.5912,-2.6637,-2.774,-2.8738,-2.9106,-2.8885,-2.8305,-2.793,-2.7872,-2.7295,-2.702,-2.6744,-2.6449,-2.6188,-2.5906,-2.5578,-2.5142,-2.4485,-2.4442,-2.4199,-2.3598,-2.3307,-2.3354,-2.326,-2.3158,-2.2917,-2.2446,-2.2631,-2.2732,-3.2732,-3.2653,-3.2874,-3.2833,-3.2612,-3.2626,-3.2463,-3.2218,-3.2205,-3.2395,-3.268,-3.2694,-3.2694,-3.2657,-3.1971,-3.1322,-3.0671,-2.9793,-2.9063,-2.8419,-2.7652,-2.7378,-2.756,-2.6851,-2.649,-2.6429,-2.6226,-2.5817,-2.536,-2.5312,-2.5312,-2.5312,-2.5312,-2.5312,-2.5312,-2.5312,-2.5312,-2.5312,-2.5312,-2.5312,-2.5312,-2.5312,-2.5312,-2.5312,-2.5312,-2.4819,-2.3842,-2.3989,-2.3628,-2.2594,-2.259,-2.2558,-2.2558,-2.2626,-2.2618,-2.263,-2.2895,-2.328,-2.3785,-2.4085,-2.4434,-2.4903,-2.4951,-2.4916,-2.4823,-2.5039,-2.5111,-2.4945,-2.4682,-2.4381,-2.42,-2.3897,-2.3666,-2.3446,-2.4007,-2.45,-2.4908,-2.5499,-2.5841,-2.5663,-2.5547,-2.5168,-2.4402,-2.4188,-2.4163,-2.4321,-2.48,-2.5435,-2.6041,-2.6673,-2.7342,-2.7953,-2.7825,-2.7447,-2.7067,-2.6733,-2.635,-2.5974,-2.5523,-2.5088,-2.4745,-2.4286,-2.3811,-2.3269,-2.327,-2.3206,-2.2685,-2.2565,-2.2565,-2.2538,-2.2364,-2.2163,-2.1998,-2.1961,-2.2034,-3.23,-3.2205,-3.2205,-3.2205,-3.2205,-3.2205,-3.2205,-3.2205,-3.2205,-3.2544,-3.3061,-3.3115,-3.3013,-3.2775,-3.218,-3.1305,-3.0253,-2.9422,-2.8558,-2.7681,-2.7018,-2.6837,-2.7006,-2.6538,-2.6346,-2.643,-2.6346,-2.6009,-2.5528,-2.536,-2.5312,-2.5312,-2.5312,-2.5312,-2.5312,-2.5312,-2.5312,-2.5312,-2.5312,-2.5312,-2.5312,-2.5312,-2.5312,-2.53,-2.518,-2.4711,-2.3866,-2.3697,-2.3192,-2.2282,-2.2306,-2.2366,-2.239,-2.2871,-2.3192,-2.3228,-2.3577,-2.4035,-2.446,-2.5011,-2.5276,-2.5229,-2.5052,-2.4898,-2.4767,-2.4515,-2.4491,-2.4598,-2.4357,-2.4043,-2.3787,-2.3593,-2.3409,-2.3268,-2.3397,-2.3766,-2.4368,-2.4623,-2.4787,-2.4872,-2.4754,-2.4337,-2.3757,-2.341,-2.3377,-2.3567,-2.3893,-2.4157,-2.4474,-2.4886,-2.563,-2.6371,-2.6888,-2.6656,-2.6162,-2.5973,-2.5625,-2.5004,-2.4555,-2.4013,-2.3436,-2.2923,-2.2556,-2.2327,-2.2428,-2.2483,-2.2254,-2.2153,-2.2153,-2.2126,-2.1952,-2.1742,-2.1733,-2.1723,-2.1705,-3.2205,-3.2205,-3.2205,-3.2205,-3.2205,-3.2205,-3.2205,-3.2205,-3.2205,-3.2544,-3.3047,-3.3115,-3.2737,-3.209,-3.1552,-3.0903,-3.0069,-2.8563,-2.7804,-2.756,-2.6647,-2.6695,-2.7426,-2.7042,-2.7066,-2.7366,-2.6982,-2.6441,-2.5973,-2.5528,-2.5312,-2.5312,-2.5312,-2.5312,-2.5312,-2.5312,-2.5312,-2.5312,-2.5312,-2.5312,-2.5312,-2.5312,-2.5312,-2.5312,-2.4843,-2.4338,-2.3794,-2.3348,-2.2818,-2.2325,-2.2674,-2.2927,-2.2955,-2.3433,-2.3734,-2.3722,-2.3794,-2.3989,-2.4506,-2.5023,-2.5241,-2.5076,-2.442,-2.3938,-2.3672,-2.285,-2.2909,-2.3801,-2.4007,-2.3666,-2.342,-2.315,-2.2953,-2.29,-2.286,-2.3061,-2.3444,-2.3412,-2.3283,-2.3062,-2.3232,-2.275,-2.2255,-2.2078,-2.2264,-2.2784,-2.294,-2.3281,-2.4024,-2.4286,-2.4306,-2.4499,-2.474,-2.4993,-2.488,-2.4598,-2.4345,-2.3793,-2.3367,-2.298,-2.2612,-2.2199,-2.1787,-2.1925,-2.1833,-2.187,-2.1833,-2.1751,-2.1778,-2.1833,-2.1751,-2.1687,-2.1687,-2.1687,-2.1687,-3.2205,-3.2205,-3.2205,-3.2205,-3.2205,-3.2205,-3.2205,-3.2205,-3.2205,-3.2368,-3.2612,-3.2952,-3.2686,-3.2039,-3.1474,-3.0506,-2.9218,-2.8169,-2.733,-2.6779,-2.6286,-2.6346,-2.6695,-2.655,-2.6719,-2.7138,-2.6657,-2.6322,-2.6045,-2.5564,-2.5312,-2.5312,-2.5312,-2.5312,-2.5312,-2.5312,-2.5312,-2.53,-2.5011,-2.4808,-2.4879,-2.5143,-2.5155,-2.4855,-2.4604,-2.4121,-2.3421,-2.3119,-2.277,-2.2282,-2.2702,-2.3011,-2.3023,-2.3761,-2.4218,-2.423,-2.4518,-2.4771,-2.4963,-2.5133,-2.5147,-2.5076,-2.4563,-2.4009,-2.3427,-2.2909,-2.2649,-2.2558,-2.2521,-2.2419,-2.2268,-2.209,-2.1928,-2.1904,-2.1752,-2.194,-2.2757,-2.2709,-2.2646,-2.277,-2.2803,-2.253,-2.1865,-2.1687,-2.183,-2.2097,-2.2132,-2.2438,-2.2847,-2.2856,-2.2789,-2.2762,-2.3018,-2.3486,-2.3803,-2.3668,-2.3474,-2.337,-2.295,-2.2437,-2.2291,-2.1952,-2.1696,-2.1687,-2.1687,-2.1687,-2.1714,-2.1687,-2.1687,-2.1687,-2.1687,-2.1687,-2.1687,-2.1687,-2.1687,-3.2205,-3.2205,-3.2205,-3.2205,-3.2205,-3.2205,-3.2205,-3.2205,-3.2205,-3.2205,-3.2223,-3.2469,-3.2219,-3.1638,-3.1306,-3.0238,-2.8642,-2.7825,-2.7007,-2.6142,-2.5949,-2.5949,-2.6081,-2.6093,-2.6394,-2.6729,-2.637,-2.6033,-2.5865,-2.5516,-2.5312,-2.5312,-2.5312,-2.5312,-2.5312,-2.5312,-2.524,-2.5059,-2.4711,-2.4424,-2.4386,-2.4687,-2.4699,-2.4338,-2.4169,-2.3797,-2.3252,-2.2951,-2.2666,-2.2438,-2.2951,-2.3228,-2.3264,-2.4169,-2.47,-2.4759,-2.5083,-2.5312,-2.5312,-2.5182,-2.4969,-2.4659,-2.4166,-2.3449,-2.2697,-2.2199,-2.1659,-2.1068,-2.0885,-2.1001,-2.1385,-2.128,-2.1203,-2.1185,-2.0879,-2.1091,-2.2055,-2.1971,-2.1921,-2.2381,-2.2397,-2.2309,-2.183,-2.1687,-2.1731,-2.1741,-2.1731,-2.1687,-2.1687,-2.175,-2.175,-2.1696,-2.1997,-2.2419,-2.3004,-2.3105,-2.3041,-2.294,-2.2584,-2.2282,-2.2163,-2.1833,-2.1687,-2.1687,-2.1687,-2.1687,-2.1687,-2.1687,-2.1687,-2.1687,-2.1687,-2.1687,-2.1687,-2.1687,-2.1687,-3.2205,-3.2205,-3.2205,-3.2205,-3.2205,-3.2205,-3.2205,-3.2205,-3.2205,-3.2205,-3.2059,-3.1596,-3.0973,-3.0458,-3.0894,-3.0206,-2.8488,-2.7416,-2.6633,-2.6033,-2.5588,-2.5624,-2.6069,-2.6093,-2.6382,-2.6741,-2.6286,-2.5817,-2.5396,-2.5348,-2.5312,-2.5312,-2.5348,-2.5336,-2.5312,-2.5312,-2.5059,-2.4616,-2.4484,-2.4266,-2.3857,-2.3854,-2.3854,-2.3746,-2.3372,-2.3304,-2.3541,-2.2763,-2.245,-2.2963,-2.3481,-2.3758,-2.3854,-2.4711,-2.524,-2.5264,-2.5288,-2.5276,-2.5241,-2.5111,-2.4623,-2.3635,-2.2787,-2.1783,-2.1051,-2.0362,-1.9891,-1.9478,-1.9625,-2.0048,-2.0895,-2.0962,-2.1049,-2.1011,-2.0566,-2.0668,-2.1428,-2.1034,-2.1001,-2.1599,-2.1847,-2.182,-2.1731,-2.1687,-2.1687,-2.1687,-2.1687,-2.1687,-2.1687,-2.1687,-2.1687,-2.1687,-2.1751,-2.1879,-2.2282,-2.2519,-2.2602,-2.2556,-2.24,-2.2135,-2.1888,-2.1687,-2.1687,-2.1687,-2.1687,-2.1687,-2.1687,-2.1687,-2.1687,-2.1687,-2.1687,-2.1687,-2.1687,-2.1687,-2.1687,-3.2205,-3.2205,-3.2205,-3.2205,-3.2205,-3.2205,-3.2205,-3.2205,-3.2205,-3.1936,-3.1593,-3.1307,-3.0658,-2.9729,-2.9956,-2.9116,-2.7512,-2.7054,-2.6417,-2.5661,-2.5384,-2.5408,-2.5564,-2.5588,-2.5877,-2.625,-2.5853,-2.5504,-2.5348,-2.5636,-2.5636,-2.542,-2.5648,-2.5661,-2.5372,-2.5312,-2.5047,-2.4542,-2.4218,-2.383,-2.3312,-2.2931,-2.2782,-2.2763,-2.2919,-2.3095,-2.33,-2.2883,-2.2975,-2.3493,-2.3965,-2.4254,-2.4314,-2.4915,-2.5312,-2.5312,-2.5312,-2.5016,-2.4445,-2.4192,-2.3635,-2.2627,-2.2,-2.1468,-2.0958,-2.048,-2.012,-1.9767,-1.9705,-1.9885,-1.9861,-2.0001,-2.0001,-1.9962,-1.9775,-1.9881,-2.0313,-2.049,-2.0732,-2.1227,-2.1495,-2.1687,-2.1687,-2.1687,-2.1687,-2.1687,-2.1687,-2.1687,-2.1687,-2.1687,-2.1687,-2.1687,-2.1696,-2.1742,-2.1851,-2.1998,-2.2089,-2.2181,-2.2117,-2.1934,-2.1705,-2.1687,-2.1687,-2.1687,-2.1687,-2.1687,-2.1687,-2.1687,-2.1687,-2.1687,-2.1687,-2.1687,-2.1687,-2.1687,-2.1687,-3.2205,-3.2205,-3.2205,-3.2205,-3.2205,-3.2205,-3.2205,-3.2205,-3.2205,-3.1813,-3.127,-3.1009,-3.033,-2.9496,-2.9197,-2.8458,-2.7248,-2.715,-2.6573,-2.5624,-2.5564,-2.548,-2.5324,-2.5312,-2.548,-2.5745,-2.5492,-2.5312,-2.5348,-2.5661,-2.5636,-2.536,-2.5673,-2.5576,-2.5143,-2.5047,-2.4723,-2.4097,-2.3676,-2.3288,-2.2782,-2.239,-2.2197,-2.2234,-2.2546,-2.2939,-2.3228,-2.3276,-2.3505,-2.3953,-2.4194,-2.4278,-2.4314,-2.4614,-2.4807,-2.4819,-2.4928,-2.4661,-2.3949,-2.3582,-2.2999,-2.2,-2.1594,-2.1233,-2.0801,-2.0711,-2.0445,-2.0053,-1.9884,-1.9719,-1.9421,-1.9292,-1.9292,-1.9292,-1.9292,-1.9467,-1.9888,-2.0273,-2.0741,-2.1211,-2.1531,-2.1678,-2.1687,-2.1687,-2.1687,-2.1687,-2.1687,-2.1687,-2.1687,-2.1687,-2.1687,-2.1687,-2.1687,-2.1696,-2.1751,-2.1824,-2.1851,-2.1925,-2.197,-2.1778,-2.1687,-2.1687,-2.1687,-2.1687,-2.1687,-2.1687,-2.1687,-2.1687,-2.1687,-2.1687,-2.1687,-2.1687,-2.1687,-2.1687,-2.1687,-3.2205,-3.2205,-3.2205,-3.2205,-3.2205,-3.2205,-3.2205,-3.2205,-3.2205,-3.179,-3.1071,-3.0582,-3.0024,-2.9341,-2.8816,-2.821,-2.7801,-2.769,-2.714,-2.6166,-2.6057,-2.5793,-2.5396,-2.5336,-2.5324,-2.5396,-2.5324,-2.5312,-2.5324,-2.5408,-2.5408,-2.53,-2.5324,-2.5107,-2.4518,-2.4448,-2.4037,-2.3316,-2.3107,-2.2806,-2.2258,-2.2197,-2.2197,-2.2197,-2.2282,-2.277,-2.3673,-2.371,-2.3857,-2.4256,-2.4037,-2.383,-2.3866,-2.3914,-2.3866,-2.3977,-2.4166,-2.4186,-2.384,-2.3399,-2.2686,-2.1696,-2.1273,-2.0771,-2.0378,-2.0421,-2.0416,-2.0081,-1.9939,-1.9787,-1.9412,-1.9292,-1.9292,-1.9292,-1.9292,-1.9476,-1.9802,-2.0232,-2.0824,-2.1449,-2.1687,-2.1687,-2.1687,-2.1687,-2.1687,-2.1687,-2.1687,-2.1687,-2.1687,-2.1687,-2.1687,-2.1687,-2.1687,-2.1687,-2.1687,-2.1696,-2.1696,-2.1714,-2.1742,-2.1687,-2.1687,-2.1687,-2.1687,-2.1687,-2.1687,-2.1687,-2.1687,-2.1687,-2.1687,-2.1687,-2.1687,-2.1687,-2.1687,-2.1687,-2.1687,-3.2205,-3.2205,-3.2205,-3.2205,-3.2205,-3.2205,-3.2205,-3.2205,-3.2205,-3.1579,-3.0658,-3.0393,-2.9755,-2.8922,-2.859,-2.8414,-2.8258,-2.8194,-2.7654,-2.6729,-2.6298,-2.6021,-2.5805,-2.5468,-2.5312,-2.5312,-2.5312,-2.5312,-2.5372,-2.5648,-2.5516,-2.4951,-2.5131,-2.4831,-2.4095,-2.3989,-2.3673,-2.3107,-2.3011,-2.2758,-2.2246,-2.2197,-2.2197,-2.2234,-2.2546,-2.2951,-2.3207,-2.3232,-2.3505,-2.4011,-2.389,-2.3806,-2.3794,-2.3806,-2.3739,-2.3687,-2.405,-2.3583,-2.2363,-2.2305,-2.1842,-2.079,-2.036,-2.049,-2.0692,-2.0824,-2.0723,-2.0393,-2.0287,-2.0072,-1.9476,-1.9292,-1.9292,-1.9292,-1.9301,-1.9366,-1.9632,-2.0085,-2.0851,-2.1504,-2.1687,-2.1687,-2.1687,-2.1687,-2.1687,-2.1687,-2.1687,-2.1687,-2.1687,-2.1687,-2.1687,-2.1687,-2.1687,-2.1687,-2.1687,-2.1687,-2.1687,-2.1687,-2.1687,-2.1687,-2.1687,-2.1687,-2.1687,-2.1687,-2.1687,-2.1687,-2.1687,-2.1687,-2.1687,-2.1687,-2.1687,-2.1687,-2.1687,-2.1687,-2.1687,-3.2205,-3.2205,-3.2205,-3.2205,-3.2205,-3.2205,-3.2205,-3.2169,-3.1936,-3.1233,-3.0393,-3.0063,-2.9406,-2.8669,-2.851,-2.851,-2.851,-2.851,-2.8122,-2.7426,-2.6681,-2.6322,-2.6057,-2.5552,-2.5312,-2.5312,-2.5312,-2.5312,-2.5324,-2.56,-2.5456,-2.494,-2.4963,-2.4614,-2.3842,-2.3589,-2.3252,-2.2806,-2.2678,-2.2522,-2.227,-2.2197,-2.2197,-2.2246,-2.251,-2.271,-2.2722,-2.269,-2.3027,-2.3613,-2.3625,-2.3433,-2.3252,-2.3107,-2.3009,-2.2998,-2.3047,-2.268,-2.1528,-2.142,-2.1081,-2.0203,-1.9915,-2.0099,-2.0613,-2.086,-2.0897,-2.0402,-2.042,-2.0149,-1.9485,-1.9292,-1.9292,-1.9292,-1.9292,-1.9448,-1.9714,-2.0191,-2.0808,-2.144,-2.1687,-2.1687,-2.1687,-2.1687,-2.1687,-2.1687,-2.1687,-2.1687,-2.1687,-2.1687,-2.1687,-2.1687,-2.1687,-2.1687,-2.1687,-2.1687,-2.1687,-2.1687,-2.1687,-2.1687,-2.1687,-2.1687,-2.1687,-2.1687,-2.1687,-2.1687,-2.1687,-2.1687,-2.1687,-2.1687,-2.1687,-2.1687,-2.1687,-2.1687,-2.1687,-3.2205,-3.2205,-3.2205,-3.2205,-3.2205,-3.2205,-3.2205,-3.2096,-3.1616,-3.0996,-3.0279,-2.9832,-2.9184,-2.863,-2.851,-2.851,-2.851,-2.851,-2.8486,-2.8138,-2.739,-2.6671,-2.5973,-2.5504,-2.5324,-2.5312,-2.5312,-2.5312,-2.5312,-2.536,-2.5288,-2.5084,-2.4735,-2.429,-2.3818,-2.3288,-2.2811,-2.2462,-2.2282,-2.2221,-2.2197,-2.2197,-2.2197,-2.2197,-2.2221,-2.2258,-2.227,-2.2282,-2.269,-2.3481,-2.3147,-2.2707,-2.2299,-2.1999,-2.2012,-2.1977,-2.18,-2.1614,-2.1257,-2.0896,-2.045,-2.0077,-1.9956,-1.9912,-2.0131,-2.0659,-2.0723,-2.0067,-2.0255,-2.0136,-1.9485,-1.9292,-1.9292,-1.9311,-1.9366,-1.9705,-2.0365,-2.053,-2.0927,-2.1485,-2.1687,-2.1687,-2.1687,-2.1687,-2.1687,-2.1687,-2.1687,-2.1687,-2.1687,-2.1687,-2.1687,-2.1687,-2.1687,-2.1687,-2.1687,-2.1687,-2.1687,-2.1687,-2.1687,-2.1687,-2.1687,-2.1687,-2.1687,-2.1687,-2.1687,-2.1687,-2.1687,-2.1687,-2.1687,-2.1687,-2.1687,-2.1687,-2.1687,-2.1687,-2.1687,-3.2286,-3.2205,-3.2205,-3.2205,-3.2205,-3.2205,-3.2205,-3.2169,-3.2009,-3.1246,-3.0444,-3.0126,-2.9419,-2.855,-2.851,-2.851,-2.851,-2.851,-2.851,-2.8374,-2.781,-2.6743,-2.5745,-2.5396,-2.5312,-2.5312,-2.5312,-2.5312,-2.5312,-2.5312,-2.5131,-2.47,-2.4626,-2.4278,-2.3794,-2.3312,-2.2975,-2.2727,-2.2366,-2.2209,-2.2197,-2.2197,-2.2197,-2.2197,-2.2197,-2.2197,-2.2197,-2.2197,-2.2282,-2.2546,-2.236,-2.2123,-2.198,-2.1812,-2.1643,-2.1464,-2.1601,-2.1228,-2.0299,-2.0372,-2.0252,-1.9657,-1.973,-2.0012,-2.0305,-2.0488,-2.0378,-2.0003,-2.0003,-1.9888,-1.9421,-1.9292,-1.9292,-1.9338,-1.95,-1.9934,-2.0378,-2.0796,-2.1172,-2.1586,-2.1687,-2.1687,-2.1687,-2.1687,-2.1687,-2.1687,-2.1687,-2.1687,-2.1687,-2.1687,-2.1687,-2.1687,-2.1687,-2.1687,-2.1687,-2.1687,-2.1687,-2.1687,-2.1687,-2.1687,-2.1687,-2.1687,-2.1687,-2.1687,-2.1687,-2.1687,-2.1687,-2.1687,-2.1687,-2.1687,-2.1687,-2.1687,-2.1687,-2.1687,-2.1642,-3.2322,-3.2205,-3.2205,-3.2205,-3.2205,-3.2205,-3.2205,-3.2132,-3.1863,-3.1233,-3.0406,-3.0024,-2.9419,-2.855,-2.851,-2.851,-2.851,-2.851,-2.851,-2.8366,-2.7666,-2.6731,-2.5829,-2.5468,-2.5312,-2.5312,-2.5312,-2.5312,-2.5312,-2.5312,-2.5131,-2.4856,-2.4626,-2.4362,-2.4109,-2.3613,-2.3183,-2.2979,-2.2686,-2.2438,-2.2221,-2.2197,-2.2197,-2.2197,-2.2197,-2.2197,-2.2197,-2.2123,-2.2092,-2.2073,-2.1968,-2.1819,-2.1694,-2.1561,-2.136,-2.1085,-2.1171,-2.0591,-1.9799,-1.9925,-1.982,-1.9297,-1.9439,-1.9742,-1.9971,-2.0095,-2.0067,-1.9692,-1.9783,-1.9655,-1.9402,-1.9292,-1.9292,-1.9338,-1.9637,-2.0081,-2.0475,-2.086,-2.1273,-2.1549,-2.1687,-2.1687,-2.1687,-2.1687,-2.1687,-2.1687,-2.1687,-2.1687,-2.1687,-2.1687,-2.1687,-2.1687,-2.1687,-2.1687,-2.1687,-2.1687,-2.1687,-2.1687,-2.1687,-2.1687,-2.1687,-2.1687,-2.1687,-2.1687,-2.1687,-2.1687,-2.1687,-2.1687,-2.1687,-2.1687,-2.1687,-2.1687,-2.1642,-2.1508,-2.1463,-3.2322,-3.2205,-3.2205,-3.2205,-3.2205,-3.2205,-3.2205,-3.2096,-3.1542,-3.0884,-3.0279,-2.9678,-2.9106,-2.851,-2.851,-2.851,-2.851,-2.851,-2.851,-2.8198,-2.7536,-2.6659,-2.6214,-2.5552,-2.5336,-2.5312,-2.5312,-2.5312,-2.5312,-2.5312,-2.5312,-2.5155,-2.4807,-2.4616,-2.4506,-2.4097,-2.3592,-2.3216,-2.3011,-2.2662,-2.2282,-2.2197,-2.2197,-2.2197,-2.2197,-2.2154,-2.2123,-2.203,-2.1906,-2.1831,-2.1831,-2.1632,-2.14,-2.1253,-2.0999,-2.0712,-2.0368,-1.992,-1.9363,-1.9268,-1.925,-1.883,-1.9063,-1.9292,-1.9448,-1.9687,-1.9723,-1.9412,-1.9659,-1.9604,-1.9393,-1.9292,-1.9292,-1.9356,-1.9677,-2.0031,-2.0429,-2.0842,-2.1229,-2.1614,-2.1687,-2.1687,-2.1687,-2.1687,-2.1687,-2.1687,-2.1687,-2.1687,-2.1687,-2.1687,-2.1687,-2.1687,-2.1687,-2.1687,-2.1687,-2.1687,-2.1687,-2.1687,-2.1687,-2.1687,-2.1687,-2.1687,-2.1687,-2.1687,-2.1687,-2.1687,-2.1687,-2.1687,-2.1687,-2.1687,-2.1687,-2.1597,-2.1508,-2.123,-2.1087,-3.2322,-3.2205,-3.2205,-3.2205,-3.2205,-3.2205,-3.2205,-3.2132,-3.1468,-3.0859,-3.0241,-2.9639,-2.9067,-2.851,-2.851,-2.851,-2.851,-2.851,-2.851,-2.8354,-2.7378,-2.6898,-2.6477,-2.5781,-2.5336,-2.5312,-2.5312,-2.5312,-2.5312,-2.5312,-2.5312,-2.5276,-2.518,-2.5096,-2.5035,-2.4602,-2.4109,-2.3661,-2.3252,-2.2794,-2.2342,-2.2209,-2.2197,-2.2197,-2.2197,-2.2104,-2.1999,-2.1937,-2.1737,-2.1443,-2.1316,-2.1265,-2.1172,-2.0982,-2.0574,-2.0085,-1.9821,-1.9272,-1.8454,-1.8675,-1.8797,-1.8432,-1.8898,-1.9292,-1.9292,-1.9375,-1.9412,-1.9311,-1.9384,-1.9412,-1.932,-1.9292,-1.9292,-1.9375,-1.9641,-1.9902,-2.0154,-2.0695,-2.1255,-2.1531,-2.1678,-2.1687,-2.1687,-2.1687,-2.1687,-2.1687,-2.1687,-2.1687,-2.1687,-2.1687,-2.1687,-2.1687,-2.1687,-2.1687,-2.1687,-2.1687,-2.1687,-2.1687,-2.1687,-2.1687,-2.1687,-2.1687,-2.1687,-2.1687,-2.1687,-2.1687,-2.1687,-2.1687,-2.1687,-2.1687,-2.1642,-2.141,-2.1177,-2.0943,-2.0673,-3.2322,-3.2205,-3.2205,-3.2205,-3.2205,-3.2169,-3.2023,-3.1703,-3.1381,-3.0696,-2.9947,-2.9535,-2.9079,-2.855,-2.851,-2.851,-2.851,-2.851,-2.851,-2.827,-2.7414,-2.691,-2.6669,-2.5877,-2.5312,-2.5312,-2.5312,-2.5312,-2.5312,-2.5312,-2.5312,-2.5312,-2.5312,-2.5276,-2.5312,-2.4976,-2.4626,-2.4133,-2.3616,-2.3119,-2.2642,-2.2306,-2.2197,-2.2154,-2.2123,-2.1999,-2.1937,-2.1643,-2.1316,-2.0955,-2.0818,-2.0802,-2.0775,-2.0731,-2.0316,-1.9573,-1.9545,-1.8998,-1.828,-1.8548,-1.8872,-1.8193,-1.8852,-1.9173,-1.9292,-1.9292,-1.9292,-1.9292,-1.9301,-1.9292,-1.9292,-1.9292,-1.9292,-1.9329,-1.9494,-1.9769,-2.0159,-2.075,-2.1172,-2.1394,-2.1549,-2.165,-2.1687,-2.1687,-2.1687,-2.1687,-2.1687,-2.1687,-2.1687,-2.1687,-2.1687,-2.1687,-2.1687,-2.1687,-2.1687,-2.1687,-2.1687,-2.1687,-2.1687,-2.1687,-2.1687,-2.1687,-2.1687,-2.1687,-2.1687,-2.1687,-2.1687,-2.1687,-2.1642,-2.1597,-2.1454,-2.1132,-2.0808,-2.0447,-2.0303,-3.2286,-3.2205,-3.2205,-3.2205,-3.2205,-3.2169,-3.1827,-3.127,-3.1108,-3.0431,-2.9535,-2.9341,-2.8882,-2.8578,-2.851,-2.851,-2.851,-2.851,-2.851,-2.8366,-2.7378,-2.6958,-2.6633,-2.5889,-2.5312,-2.5312,-2.5312,-2.5312,-2.5312,-2.5312,-2.5312,-2.5312,-2.5312,-2.5312,-2.53,-2.5276,-2.494,-2.4434,-2.3941,-2.3457,-2.2919,-2.2462,-2.2209,-2.2092,-2.1968,-2.18,-2.1675,-2.1411,-2.0967,-2.0345,-2.0357,-2.0213,-2.0083,-2.0386,-2.0218,-1.9089,-1.9203,-1.8752,-1.8098,-1.8483,-1.8836,-1.8219,-1.8861,-1.9246,-1.9292,-1.9292,-1.9292,-1.9292,-1.9292,-1.9292,-1.9292,-1.9292,-1.9292,-1.9301,-1.9292,-1.9659,-2.0273,-2.0787,-2.1007,-2.1266,-2.1522,-2.1668,-2.1687,-2.1687,-2.1687,-2.1687,-2.1687,-2.1687,-2.1687,-2.1687,-2.1687,-2.1687,-2.1687,-2.1687,-2.1687,-2.1687,-2.1687,-2.1687,-2.1687,-2.1687,-2.1687,-2.1687,-2.1687,-2.1687,-2.1687,-2.1687,-2.1553,-2.132,-2.132,-2.141,-2.1177,-2.0754,-2.0348,-1.994,-1.9894,-3.2205,-3.2205,-3.2205,-3.2205,-3.2205,-3.2205,-3.1813,-3.1196,-3.0696,-3.0063,-2.938,-2.8882,-2.8618,-2.851,-2.851,-2.851,-2.851,-2.851,-2.851,-2.8318,-2.7426,-2.6898,-2.6681,-2.5853,-2.5348,-2.5312,-2.5312,-2.5312,-2.5312,-2.5312,-2.5312,-2.5312,-2.5312,-2.5312,-2.5312,-2.5288,-2.5036,-2.4614,-2.4109,-2.3625,-2.3075,-2.2479,-2.2092,-2.1968,-2.1781,-2.1561,-2.1328,-2.119,-2.0743,-1.99,-2.01,-1.9637,-1.9138,-1.9573,-1.9454,-1.8821,-1.8698,-1.8457,-1.7892,-1.811,-1.8479,-1.8623,-1.9036,-1.9265,-1.9292,-1.9292,-1.9292,-1.9292,-1.9292,-1.9292,-1.9292,-1.9292,-1.9292,-1.9292,-1.9329,-1.9531,-2.0017,-2.0448,-2.0961,-2.1403,-2.1595,-2.1687,-2.1687,-2.1687,-2.1687,-2.1687,-2.1687,-2.1687,-2.1687,-2.1687,-2.1687,-2.1687,-2.1687,-2.1687,-2.1687,-2.1687,-2.1687,-2.1687,-2.1687,-2.1687,-2.1687,-2.1687,-2.1687,-2.1687,-2.1687,-2.1687,-2.1463,-2.1141,-2.123,-2.1499,-2.0988,-2.0393,-2.0303,-2.0212,-1.9658,-3.2205,-3.2205,-3.2205,-3.2205,-3.2205,-3.2205,-3.1629,-3.0784,-3.0393,-2.9793,-2.9079,-2.8618,-2.851,-2.851,-2.851,-2.851,-2.851,-2.851,-2.851,-2.827,-2.7438,-2.6885,-2.6741,-2.5805,-2.542,-2.5312,-2.5312,-2.5312,-2.5312,-2.5312,-2.5312,-2.5312,-2.5312,-2.5312,-2.5312,-2.53,-2.5132,-2.4819,-2.4398,-2.3881,-2.3328,-2.2567,-2.2004,-2.18,-2.1517,-2.1169,-2.07,-2.0421,-1.9857,-1.9085,-1.915,-1.876,-1.8479,-1.8631,-1.9017,-1.8427,-1.8536,-1.8508,-1.8064,-1.8339,-1.876,-1.8733,-1.9081,-1.9274,-1.9292,-1.9292,-1.9292,-1.9292,-1.9292,-1.9292,-1.9292,-1.9292,-1.9292,-1.9292,-1.9311,-1.9622,-2.0081,-2.0342,-2.0918,-2.154,-2.165,-2.1687,-2.1687,-2.1687,-2.1687,-2.1687,-2.1687,-2.1687,-2.1687,-2.1687,-2.1687,-2.1687,-2.1687,-2.1687,-2.1687,-2.1687,-2.1687,-2.1687,-2.1687,-2.1687,-2.1687,-2.1687,-2.1687,-2.1687,-2.1687,-2.1687,-2.1642,-2.1419,-2.1508,-2.1454,-2.0853,-2.0439,-2.0574,-2.0439,-1.984,-3.2205,-3.2205,-3.2205,-3.2205,-3.2205,-3.2205,-3.1482,-3.0482,-3.033,-2.9639,-2.859,-2.851,-2.851,-2.851,-2.851,-2.851,-2.8498,-2.8426,-2.8306,-2.8077,-2.7186,-2.6693,-2.6441,-2.5877,-2.5312,-2.5312,-2.5312,-2.5312,-2.5312,-2.5312,-2.5312,-2.5312,-2.5312,-2.5312,-2.5312,-2.5312,-2.5312,-2.5155,-2.4795,-2.4266,-2.3454,-2.2504,-2.1769,-2.1569,-2.121,-2.07,-2.0313,-1.9758,-1.9154,-1.8509,-1.8289,-1.8066,-1.7651,-1.8161,-1.8423,-1.8294,-1.8806,-1.8724,-1.8614,-1.8687,-1.8953,-1.8926,-1.9136,-1.9256,-1.9292,-1.9292,-1.9292,-1.9292,-1.9292,-1.9292,-1.9292,-1.9292,-1.9356,-1.9417,-1.9512,-1.9705,-2.0347,-2.0759,-2.0982,-2.1403,-2.1604,-2.1687,-2.1687,-2.1687,-2.1687,-2.1687,-2.1687,-2.1687,-2.1687,-2.1687,-2.1687,-2.1687,-2.1687,-2.1687,-2.1687,-2.1687,-2.1687,-2.1687,-2.1687,-2.1687,-2.1687,-2.1687,-2.1687,-2.1642,-2.1687,-2.1687,-2.1696,-2.1553,-2.141,-2.1132,-2.0709,-2.0484,-2.0484,-2.0303,-1.9795,-3.2205,-3.2205,-3.2205,-3.2205,-3.2169,-3.2169,-3.1482,-3.0368,-3.0292,-2.9613,-2.851,-2.851,-2.851,-2.851,-2.851,-2.851,-2.839,-2.8162,-2.7969,-2.7726,-2.6837,-2.6346,-2.6142,-2.5612,-2.5348,-2.5312,-2.5312,-2.5312,-2.5312,-2.5312,-2.5312,-2.5312,-2.5312,-2.5312,-2.5312,-2.5312,-2.5312,-2.5216,-2.476,-2.4006,-2.2992,-2.2178,-2.1654,-2.119,-2.07,-2.0269,-2.0085,-1.9419,-1.871,-1.8398,-1.7969,-1.7564,-1.7167,-1.7393,-1.7825,-1.8109,-1.8485,-1.8742,-1.8678,-1.8825,-1.9026,-1.9109,-1.9265,-1.9292,-1.9292,-1.9292,-1.9292,-1.9292,-1.9292,-1.9292,-1.9292,-1.9292,-1.9476,-1.9591,-1.9683,-2.0173,-2.0759,-2.0741,-2.1,-2.1421,-2.1668,-2.1687,-2.1687,-2.1687,-2.1687,-2.1687,-2.1687,-2.1687,-2.1687,-2.1687,-2.1687,-2.1687,-2.1687,-2.1687,-2.1687,-2.1687,-2.1642,-2.1687,-2.1642,-2.1687,-2.1687,-2.1687,-2.1597,-2.1553,-2.1553,-2.132,-2.1051,-2.0952,-2.0997,-2.0808,-2.0393,-2.0294,-2.0348,-2.0022,-1.9521,-3.1572,-3.2205,-3.2205,-3.2205,-3.2132,-3.1813,-3.1121,-3.0355,-2.9909,-2.9314,-2.863,-2.851,-2.851,-2.851,-2.851,-2.851,-2.8462,-2.8234,-2.7981,-2.7594,-2.6923,-2.6382,-2.6033,-2.5588,-2.5324,-2.5312,-2.5312,-2.5312,-2.5312,-2.5312,-2.5312,-2.5312,-2.5312,-2.5312,-2.5312,-2.5312,-2.5312,-2.5132,-2.4667,-2.4,-2.3155,-2.2306,-2.1553,-2.1065,-2.0529,-2.0172,-1.9682,-1.9077,-1.8442,-1.807,-1.7545,-1.7176,-1.706,-1.7266,-1.7605,-1.7752,-1.8385,-1.8797,-1.8999,-1.9026,-1.9136,-1.9219,-1.9292,-1.9292,-1.9292,-1.9292,-1.9292,-1.9292,-1.9292,-1.9292,-1.9292,-1.9292,-1.9549,-1.9701,-1.9756,-2.0347,-2.0759,-2.0732,-2.0845,-2.1302,-2.1687,-2.1687,-2.1687,-2.1687,-2.1687,-2.1687,-2.1687,-2.1687,-2.1687,-2.1687,-2.1687,-2.1687,-2.1687,-2.1687,-2.1687,-2.1687,-2.1597,-2.1553,-2.1553,-2.1553,-2.1687,-2.1642,-2.1275,-2.0997,-2.0808,-2.0583,-2.0311,-2.0357,-2.0484,-2.0303,-2.0113,-1.9795,-1.9521,-1.9338,-1.8788,-3.0934,-3.1734,-3.1911,-3.1879,-3.1748,-3.1315,-3.0771,-3.005,-2.96,-2.9079,-2.8618,-2.851,-2.851,-2.851,-2.851,-2.851,-2.8459,-2.8378,-2.8102,-2.7633,-2.7055,-2.6478,-2.6045,-2.56,-2.5312,-2.5312,-2.5312,-2.5312,-2.5312,-2.5312,-2.5312,-2.5312,-2.5312,-2.5312,-2.5312,-2.5312,-2.5276,-2.5158,-2.4564,-2.3962,-2.3367,-2.2564,-2.1727,-2.1103,-2.0565,-2.0041,-1.932,-1.86,-1.8046,-1.774,-1.7245,-1.6943,-1.6963,-1.7138,-1.7385,-1.7623,-1.8174,-1.8669,-1.8962,-1.9136,-1.9265,-1.9292,-1.9292,-1.9292,-1.9292,-1.9292,-1.9292,-1.9292,-1.9292,-1.9292,-1.9292,-1.9292,-1.9531,-1.9677,-1.9692,-2.0301,-2.0769,-2.0814,-2.0946,-2.1394,-2.1687,-2.1687,-2.1687,-2.1687,-2.1687,-2.1687,-2.1687,-2.1687,-2.1687,-2.1687,-2.1687,-2.1687,-2.1687,-2.1553,-2.1266,-2.132,-2.132,-2.123,-2.1186,-2.0997,-2.0772,-2.0628,-2.0348,-2.0121,-1.9977,-1.9795,-1.953,-1.9749,-1.9931,-1.9658,-1.9384,-1.8888,-1.8611,-1.838,-1.7963,-3.0446,-3.0581,-3.111,-3.107,-3.0642,-3.1035,-3.0532,-2.9639,-2.9457,-2.904,-2.855,-2.851,-2.851,-2.8498,-2.845,-2.845,-2.8486,-2.8005,-2.7762,-2.738,-2.6731,-2.6262,-2.5913,-2.5636,-2.5312,-2.5312,-2.5312,-2.5312,-2.5312,-2.5312,-2.5312,-2.5312,-2.5312,-2.5312,-2.5276,-2.5276,-2.5218,-2.4992,-2.446,-2.3863,-2.3364,-2.2754,-2.2026,-2.1185,-2.0573,-1.9963,-1.9308,-1.8375,-1.7842,-1.7672,-1.7176,-1.6908,-1.6936,-1.7,-1.7174,-1.755,-1.7963,-1.844,-1.877,-1.9127,-1.9274,-1.9292,-1.9292,-1.9292,-1.9292,-1.9292,-1.9292,-1.9292,-1.9292,-1.9292,-1.9292,-1.9338,-1.9512,-1.9732,-1.9857,-2.031,-2.0759,-2.0989,-2.1156,-2.154,-2.1687,-2.1687,-2.1687,-2.1687,-2.1687,-2.1687,-2.1687,-2.1687,-2.1687,-2.1687,-2.1687,-2.1687,-2.1687,-2.1365,-2.0664,-2.0619,-2.0673,-2.0303,-2.0031,-1.9712,-1.9347,-1.9247,-1.9521,-1.9109,-1.888,-1.8834,-1.8696,-1.8557,-1.8503,-1.8788,-1.8611,-1.7917,-1.7412,-1.7131,-1.6756,-2.9292,-2.9387,-3.0337,-3.0821,-3.0945,-3.0785,-3.0435,-2.9948,-2.9574,-2.9079,-2.851,-2.851,-2.851,-2.8438,-2.8162,-2.8222,-2.8342,-2.7558,-2.7522,-2.7258,-2.6731,-2.619,-2.5913,-2.5685,-2.5312,-2.5324,-2.5324,-2.5312,-2.5312,-2.5312,-2.5312,-2.5312,-2.5276,-2.5312,-2.5276,-2.5218,-2.5087,-2.485,-2.4376,-2.3847,-2.3232,-2.2804,-2.2147,-2.1163,-2.0411,-1.9896,-1.926,-1.825,-1.7842,-1.7564,-1.7178,-1.7042,-1.6972,-1.6963,-1.7147,-1.7495,-1.7917,-1.8255,-1.8687,-1.9054,-1.9283,-1.9292,-1.9292,-1.9292,-1.9292,-1.9292,-1.9292,-1.9292,-1.9292,-1.9292,-1.9292,-1.9311,-1.9448,-1.9738,-2.0049,-2.0402,-2.0714,-2.097,-2.1257,-2.1595,-2.1678,-2.1687,-2.1687,-2.1687,-2.1687,-2.1687,-2.1687,-2.1687,-2.1687,-2.1687,-2.1687,-2.1687,-2.1687,-2.1553,-2.0898,-2.0484,-2.0167,-1.9613,-1.9063,-1.8834,-1.8657,-1.8834,-1.8926,-1.838,-1.7824,-1.7638,-1.7404,-1.7077,-1.7171,-1.7684,-1.7404,-1.6709,-1.6298,-1.6069,-1.5872,-2.8587,-2.8722,-2.9713,-3.0369,-3.0699,-3.0484,-3.0233,-2.9935,-2.9392,-2.8922,-2.851,-2.851,-2.851,-2.839,-2.8198,-2.815,-2.8294,-2.7846,-2.775,-2.7548,-2.7164,-2.6647,-2.6346,-2.5985,-2.5612,-2.5504,-2.5336,-2.5312,-2.5312,-2.5312,-2.5312,-2.5276,-2.5241,-2.5241,-2.5241,-2.5123,-2.4885,-2.461,-2.4274,-2.3809,-2.3183,-2.2947,-2.2279,-2.137,-2.0726,-1.9996,-1.9316,-1.8486,-1.8082,-1.7835,-1.7543,-1.7303,-1.7248,-1.7229,-1.733,-1.7633,-1.7926,-1.8274,-1.8687,-1.9045,-1.9283,-1.9292,-1.9292,-1.9292,-1.9292,-1.9292,-1.9292,-1.9292,-1.9292,-1.9292,-1.9292,-1.9311,-1.9356,-1.9622,-1.9847,-2.0159,-2.064,-2.0961,-2.1275,-2.1614,-2.165,-2.1687,-2.1687,-2.1687,-2.1687,-2.1687,-2.1687,-2.1687,-2.1687,-2.1687,-2.1687,-2.1687,-2.1687,-2.1508,-2.123,-2.0673,-2.0068,-1.9384,-1.888,-1.8511,-1.8427,-1.8465,-1.8002,-1.7225,-1.6716,-1.648,-1.6386,-1.6386,-1.6527,-1.6716,-1.6386,-1.6062,-1.6062,-1.592,-1.5778,-2.8587,-2.8655,-2.9265,-2.9536,-2.9729,-3.0104,-3.0012,-2.9484,-2.8882,-2.855,-2.851,-2.851,-2.851,-2.8474,-2.8318,-2.8354,-2.8362,-2.8282,-2.827,-2.8126,-2.7546,-2.7498,-2.7176,-2.6598,-2.5901,-2.5913,-2.56,-2.5312,-2.5312,-2.5312,-2.5312,-2.5253,-2.5182,-2.5111,-2.5253,-2.4957,-2.461,-2.4236,-2.4007,-2.3621,-2.332,-2.3091,-2.2312,-2.1609,-2.1088,-2.0334,-1.9226,-1.8841,-1.8434,-1.8026,-1.7935,-1.7834,-1.7844,-1.7623,-1.7715,-1.8045,-1.8091,-1.8357,-1.8705,-1.9091,-1.9256,-1.9292,-1.9292,-1.9292,-1.9292,-1.9292,-1.9292,-1.9292,-1.9292,-1.9292,-1.9292,-1.9301,-1.9347,-1.9457,-1.9692,-2.0058,-2.0539,-2.0952,-2.1257,-2.1586,-2.1659,-2.1687,-2.1687,-2.1687,-2.1687,-2.1687,-2.1687,-2.1687,-2.1687,-2.1687,-2.1687,-2.1687,-2.1687,-2.1553,-2.123,-2.0673,-2.0022,-1.9293,-1.8603,-1.8102,-1.7638,-1.7412,-1.681,-1.6062,-1.6015,-1.6062,-1.5974,-1.5832,-1.5967,-1.6062,-1.6015,-1.5825,-1.5778,-1.573,-1.554,-2.8587,-2.8609,-2.8879,-2.9175,-2.9552,-3.0144,-2.9984,-2.9342,-2.8816,-2.851,-2.851,-2.851,-2.851,-2.8426,-2.8222,-2.821,-2.839,-2.7594,-2.7594,-2.8378,-2.769,-2.751,-2.7284,-2.6779,-2.6142,-2.5949,-2.56,-2.5312,-2.5312,-2.5312,-2.5312,-2.5253,-2.5016,-2.4909,-2.4849,-2.461,-2.4273,-2.3982,-2.3677,-2.3361,-2.3065,-2.2708,-2.219,-2.1413,-2.1071,-2.0239,-1.911,-1.9064,-1.8731,-1.8257,-1.8191,-1.8173,-1.8164,-1.7963,-1.8119,-1.8383,-1.8484,-1.8696,-1.899,-1.9256,-1.9283,-1.9292,-1.9292,-1.9292,-1.9292,-1.9292,-1.9292,-1.9292,-1.9292,-1.9292,-1.9292,-1.9292,-1.9329,-1.9412,-1.9677,-2.004,-2.0451,-2.0888,-2.1255,-2.1522,-2.1687,-2.1687,-2.1687,-2.1687,-2.1687,-2.1687,-2.1687,-2.1687,-2.1687,-2.1687,-2.1687,-2.1687,-2.1687,-2.1553,-2.123,-2.0393,-1.9749,-1.9109,-1.8149,-1.7271,-1.6857,-1.6716,-1.6298,-1.5927,-1.5832,-1.5784,-1.5642,-1.5506,-1.5363,-1.5363,-1.5452,-1.5499,-1.5452,-1.5363,-1.5172,-2.8587,-2.8622,-2.8879,-2.8926,-2.9017,-2.9531,-2.9479,-2.9057,-2.8669,-2.851,-2.851,-2.851,-2.851,-2.8402,-2.8222,-2.8102,-2.8426,-2.7897,-2.7606,-2.8402,-2.7846,-2.7849,-2.7621,-2.6947,-2.655,-2.619,-2.5685,-2.5312,-2.5312,-2.5312,-2.5218,-2.504,-2.4766,-2.455,-2.4418,-2.4189,-2.397,-2.3714,-2.3409,-2.3113,-2.274,-2.2295,-2.1889,-2.1295,-2.077,-2.0095,-1.9542,-1.9146,-1.8948,-1.8618,-1.8475,-1.8513,-1.8504,-1.8449,-1.8559,-1.8788,-1.8944,-1.9063,-1.9219,-1.9274,-1.9292,-1.9292,-1.9292,-1.9292,-1.9292,-1.9292,-1.9292,-1.9292,-1.9292,-1.9292,-1.9292,-1.9292,-1.932,-1.9393,-1.9641,-2.0003,-2.0259,-2.0686,-2.1126,-2.1403,-2.1668,-2.1678,-2.1687,-2.1687,-2.1687,-2.1687,-2.1687,-2.1687,-2.1687,-2.1687,-2.1597,-2.1454,-2.1275,-2.0952,-2.0538,-1.9894,-1.9338,-1.8888,-1.8056,-1.7131,-1.6904,-1.6904,-1.6346,-1.5784,-1.5689,-1.5547,-1.541,-1.522,-1.5124,-1.5077,-1.5077,-1.5124,-1.5083,-1.5035,-1.4933,-2.8587,-2.8682,-2.9197,-2.879,-2.8081,-2.8496,-2.8565,-2.8526,-2.851,-2.851,-2.851,-2.851,-2.851,-2.851,-2.8474,-2.8474,-2.8486,-2.839,-2.8426,-2.8474,-2.8282,-2.8366,-2.7993,-2.7332,-2.6791,-2.6418,-2.5937,-2.5312,-2.5312,-2.5253,-2.5111,-2.4766,-2.4454,-2.4152,-2.397,-2.3787,-2.3641,-2.3446,-2.3298,-2.2964,-2.259,-2.2214,-2.1783,-2.1273,-2.0718,-2.0294,-1.9831,-1.9578,-1.9381,-1.9212,-1.9201,-1.9228,-1.9146,-1.8926,-1.9045,-1.9155,-1.9246,-1.9274,-1.9283,-1.9292,-1.9292,-1.9292,-1.9292,-1.9292,-1.9292,-1.9292,-1.9292,-1.9292,-1.9292,-1.9292,-1.9292,-1.9292,-1.9292,-1.9448,-1.9622,-1.9838,-2.0072,-2.0457,-2.0924,-2.1282,-2.154,-2.165,-2.1678,-2.1687,-2.1687,-2.1687,-2.1687,-2.1687,-2.1687,-2.1687,-2.1499,-2.1087,-2.0763,-2.0212,-1.9849,-1.9795,-1.9247,-1.8934,-1.8326,-1.7591,-1.7365,-1.677,-1.6116,-1.5642,-1.5499,-1.5356,-1.5124,-1.4981,-1.4927,-1.4879,-1.4783,-1.4783,-1.479,-1.4885,-1.4838,-2.8587,-2.8582,-2.8384,-2.8298,-2.8313,-2.8094,-2.8144,-2.849,-2.851,-2.851,-2.851,-2.851,-2.851,-2.851,-2.851,-2.851,-2.851,-2.851,-2.8498,-2.8498,-2.845,-2.8234,-2.7825,-2.7222,-2.6767,-2.625,-2.5721,-2.5312,-2.5276,-2.5206,-2.4945,-2.4598,-2.4189,-2.3861,-2.3556,-2.3335,-2.3298,-2.3261,-2.3187,-2.2889,-2.2553,-2.2214,-2.1787,-2.1252,-2.0857,-2.0391,-1.9814,-1.9854,-1.9657,-1.9381,-1.9292,-1.9292,-1.9265,-1.9182,-1.9237,-1.9256,-1.9283,-1.9292,-1.9292,-1.9292,-1.9292,-1.9292,-1.9292,-1.9292,-1.9292,-1.9292,-1.9292,-1.9292,-1.9292,-1.9292,-1.9292,-1.9292,-1.9292,-1.9393,-1.9531,-1.965,-1.987,-2.0237,-2.0704,-2.1181,-2.144,-2.1659,-2.1687,-2.1687,-2.1687,-2.1687,-2.1687,-2.1687,-2.1687,-2.1687,-2.141,-2.0943,-2.0718,-2.0303,-2.0402,-2.0402,-1.9621,-1.898,-1.8326,-1.7537,-1.6709,-1.6109,-1.5689,-1.541,-1.5315,-1.5118,-1.4831,-1.4783,-1.4838,-1.4544,-1.4448,-1.449,-1.4544,-1.464,-1.4694,-2.8587,-2.8554,-2.8262,-2.8319,-2.8441,-2.7738,-2.768,-2.8123,-2.8168,-2.8254,-2.8498,-2.851,-2.851,-2.851,-2.851,-2.851,-2.851,-2.851,-2.851,-2.8474,-2.8306,-2.8029,-2.7596,-2.6983,-2.6466,-2.5985,-2.5636,-2.5312,-2.5241,-2.504,-2.4778,-2.4381,-2.397,-2.3641,-2.3372,-2.3187,-2.3113,-2.3113,-2.3027,-2.2889,-2.2553,-2.2138,-2.1596,-2.1213,-2.0895,-2.0118,-1.9736,-1.9932,-1.9608,-1.9341,-1.9292,-1.9292,-1.9292,-1.9292,-1.9283,-1.9292,-1.9292,-1.9292,-1.9292,-1.9292,-1.9292,-1.9292,-1.9292,-1.9292,-1.9292,-1.9292,-1.9292,-1.9292,-1.9292,-1.9292,-1.9292,-1.9292,-1.9292,-1.9301,-1.9366,-1.9421,-1.9714,-2.0044,-2.0521,-2.1044,-2.1374,-2.1595,-2.1687,-2.1687,-2.1687,-2.1687,-2.1687,-2.1687,-2.1687,-2.1687,-2.1275,-2.0763,-2.0718,-2.0628,-2.0718,-2.0538,-1.9712,-1.8842,-1.801,-1.7171,-1.6197,-1.5778,-1.5689,-1.541,-1.5124,-1.4933,-1.4838,-1.479,-1.479,-1.4496,-1.4346,-1.4442,-1.4496,-1.4544,-1.4544,-2.8587,-2.8587,-2.8587,-2.8464,-2.8323,-2.7366,-2.7184,-2.7533,-2.7534,-2.7909,-2.833,-2.8426,-2.8438,-2.8486,-2.851,-2.851,-2.851,-2.851,-2.8402,-2.8386,-2.8002,-2.7693,-2.7164,-2.6622,-2.6166,-2.5889,-2.5624,-2.5276,-2.517,-2.4909,-2.4526,-2.4164,-2.3787,-2.3446,-2.3224,-2.3075,-2.3038,-2.3038,-2.2953,-2.2777,-2.2214,-2.1672,-2.1203,-2.0895,-2.0274,-1.9578,-1.9814,-1.9696,-1.9292,-1.9292,-1.9292,-1.9292,-1.9292,-1.9292,-1.9292,-1.9292,-1.9292,-1.9292,-1.9292,-1.9292,-1.9292,-1.9292,-1.9292,-1.9292,-1.9292,-1.9292,-1.9292,-1.9292,-1.9292,-1.9292,-1.9292,-1.9292,-1.9292,-1.9292,-1.9329,-1.9356,-1.9485,-1.9934,-2.0521,-2.1025,-2.1394,-2.1632,-2.1687,-2.1687,-2.1687,-2.1687,-2.1687,-2.1687,-2.1687,-2.1687,-2.1365,-2.0808,-2.0952,-2.0898,-2.0439,-2.0167,-1.9575,-1.8742,-1.8056,-1.7591,-1.721,-1.6513,-1.5778,-1.5452,-1.5083,-1.5035,-1.4987,-1.4885,-1.4742,-1.4592,-1.4496,-1.449,-1.4496,-1.4544,-1.4496,-2.8587,-2.8587,-2.8587,-2.8146,-2.7403,-2.7097,-2.6789,-2.6505,-2.6492,-2.7031,-2.7777,-2.7933,-2.815,-2.8426,-2.8378,-2.8378,-2.845,-2.8282,-2.8222,-2.7981,-2.7669,-2.7152,-2.6647,-2.6238,-2.5865,-2.5564,-2.5324,-2.5218,-2.5004,-2.4622,-2.4236,-2.3934,-2.3604,-2.3298,-2.3113,-2.3001,-2.3001,-2.3001,-2.2964,-2.2654,-2.2025,-2.1835,-2.1568,-2.0818,-1.9962,-1.9657,-1.9696,-1.9411,-1.9292,-1.9292,-1.9292,-1.9292,-1.9292,-1.9292,-1.9292,-1.9292,-1.9292,-1.9292,-1.9292,-1.9292,-1.9292,-1.9292,-1.9292,-1.9292,-1.9292,-1.9292,-1.9292,-1.9292,-1.9292,-1.9292,-1.9292,-1.9292,-1.9292,-1.9292,-1.9292,-1.9292,-1.9301,-1.9888,-2.0512,-2.0936,-2.1394,-2.1577,-2.1641,-2.1687,-2.1687,-2.1687,-2.1687,-2.1687,-2.1642,-2.1642,-2.1651,-2.1275,-2.141,-2.1275,-2.0673,-2.0348,-2.0031,-1.9567,-1.8964,-1.8549,-1.8133,-1.739,-1.656,-1.5594,-1.5083,-1.5315,-1.5309,-1.4831,-1.4688,-1.4592,-1.4496,-1.449,-1.4448,-1.4496,-1.4442,-2.8587,-2.8587,-2.8587,-2.8262,-2.7676,-2.7209,-2.681,-2.6443,-2.596,-2.6214,-2.6983,-2.7246,-2.763,-2.8029,-2.7933,-2.8029,-2.8065,-2.7873,-2.7633,-2.7392,-2.7103,-2.6659,-2.6214,-2.5865,-2.5624,-2.5348,-2.5218,-2.5087,-2.4802,-2.449,-2.4091,-2.3677,-2.3372,-2.3187,-2.3038,-2.3001,-2.3001,-2.3001,-2.3001,-2.2505,-2.1863,-2.1596,-2.1252,-2.043,-1.9883,-1.9618,-1.9499,-1.9292,-1.9292,-1.9292,-1.9292,-1.9292,-1.9292,-1.9292,-1.9292,-1.9292,-1.9292,-1.9292,-1.9292,-1.9292,-1.9292,-1.9292,-1.9292,-1.9292,-1.9292,-1.9292,-1.9292,-1.9292,-1.9292,-1.9292,-1.9292,-1.9292,-1.9292,-1.9292,-1.9292,-1.9292,-1.9421,-1.9769,-2.0283,-2.0695,-2.1092,-2.144,-2.1531,-2.1687,-2.1696,-2.1526,-2.1562,-2.1463,-2.1454,-2.1499,-2.1553,-2.1562,-2.1553,-2.1642,-2.132,-2.1087,-2.0952,-2.0439,-1.9741,-1.9147,-1.8503,-1.7994,-1.7343,-1.6379,-1.5872,-1.6103,-1.5954,-1.5201,-1.4825,-1.4682,-1.4586,-1.449,-1.4442,-1.44,-1.4394,-2.8587,-2.8587,-2.8587,-2.8554,-2.836,-2.7443,-2.6918,-2.6679,-2.5769,-2.5564,-2.6045,-2.6477,-2.7006,-2.7258,-2.7174,-2.733,-2.7378,-2.7294,-2.703,-2.6743,-2.6394,-2.6142,-2.5877,-2.5564,-2.5408,-2.5277,-2.5111,-2.4873,-2.4574,-2.42,-2.3824,-2.3372,-2.3224,-2.315,-2.3038,-2.3001,-2.3001,-2.2927,-2.274,-2.2203,-2.1662,-2.1165,-2.0702,-2.0157,-1.9618,-1.9332,-1.9292,-1.9292,-1.9292,-1.9292,-1.9292,-1.9292,-1.9292,-1.9292,-1.9292,-1.9292,-1.9292,-1.9292,-1.9292,-1.9292,-1.9292,-1.9292,-1.9292,-1.9292,-1.9292,-1.9292,-1.9292,-1.9292,-1.9292,-1.9292,-1.9292,-1.9292,-1.9292,-1.9292,-1.9292,-1.9292,-1.9476,-1.9687,-2.0081,-2.0484,-2.0888,-2.1238,-2.1504,-2.1659,-2.1607,-2.1482,-2.1347,-2.1195,-2.1141,-2.123,-2.1275,-2.1284,-2.1239,-2.1374,-2.1454,-2.132,-2.1042,-2.0763,-2.0022,-1.9476,-1.878,-1.7801,-1.725,-1.7124,-1.685,-1.6379,-1.6048,-1.5439,-1.5105,-1.4729,-1.4538,-1.4394,-1.4394,-1.4352,-1.4346,-2.8587,-2.8587,-2.8587,-2.836,-2.7921,-2.7263,-2.6769,-2.6302,-2.5629,-2.5384,-2.5516,-2.5624,-2.6117,-2.703,-2.697,-2.6982,-2.6934,-2.6789,-2.6562,-2.625,-2.6069,-2.5805,-2.5576,-2.542,-2.5336,-2.5182,-2.5004,-2.4706,-2.4357,-2.397,-2.3593,-2.3298,-2.3113,-2.3038,-2.3038,-2.3001,-2.2964,-2.2852,-2.2429,-2.1939,-2.1423,-2.0924,-2.0459,-1.9923,-1.9381,-1.9292,-1.9292,-1.9292,-1.9292,-1.9292,-1.9292,-1.9292,-1.9292,-1.9292,-1.9292,-1.9292,-1.9292,-1.9292,-1.9292,-1.9292,-1.9292,-1.9292,-1.9292,-1.9292,-1.9292,-1.9292,-1.9292,-1.9292,-1.9292,-1.9292,-1.9292,-1.9292,-1.9292,-1.9292,-1.9292,-1.9292,-1.9384,-1.9677,-1.9985,-2.0429,-2.0824,-2.1245,-2.1604,-2.1687,-2.1696,-2.1526,-2.1446,-2.1293,-2.1042,-2.1051,-2.1051,-2.1006,-2.097,-2.0727,-2.0619,-2.0763,-2.0628,-2.0484,-2.0113,-1.9147,-1.8126,-1.7142,-1.6687,-1.6936,-1.6332,-1.5635,-1.5397,-1.5439,-1.4962,-1.4586,-1.4442,-1.4346,-1.4298,-1.4298,-1.4298]},{"header":{"parameterUnit":"m.s-1","parameterCategory":1,"la1":31.0,"la2":29.5877,"lo1":-88.7671,"lo2":-86.6584,"dy":0.0162,"dx":0.0185,"nx":115,"ny":88,"refTime":"2026-03-19T00:00:00:Z","depth":0,"parameterNumber":3,"parameterNumberName":"V-component_of_WINDS"},"data":[0.0,0.0,0.0,0.0,0.0,0.0,0.0,0.0,0.0,0.0,0.0,0.0,0.0,0.0,0.0,0.0,0.0,0.0,0.0,0.0,0.0,0.0,0.0,0.0,0.0,0.0,0.0,0.0,0.0,0.0,0.0,0.0,0.0,0.0,0.0,0.0,0.0,0.0,0.0,0.0,0.0,0.0,0.0,0.0,0.0,0.0,0.0,0.0,0.0,0.0,0.0,0.0,0.0,0.0,0.0,0.0,0.0,0.0,0.0,0.0,0.0,0.0,0.0,0.0,0.0,0.0,0.0,0.0,0.0,0.0,0.0,0.0,0.0,0.0,0.0,0.0,0.0,0.0,0.0,0.0,0.0,0.0,0.0,0.0,0.0,0.0,0.0,0.0,0.0,0.0,0.0,0.0,0.0,0.0,0.0,0.0,0.0,0.0,0.0,0.0,0.0,0.0,0.0,0.0,0.0,0.0,0.0,0.0,0.0,0.0,0.0,0.0,0.0,0.0,0.0,0.0,0.0,0.0,0.0,0.0,0.0,0.0,0.0,0.0,0.0,0.0,0.0,0.0,0.0,0.0,0.0,0.0,0.0,0.0,0.0,0.0,0.0,0.0,0.0,0.0,0.0,0.0,0.0,0.0,0.0,0.0,0.0,0.0,0.0,0.0,0.0,0.0,0.0,0.0,0.0,0.0,0.0,0.0,0.0,0.0,0.0,0.0,0.0,0.0,0.0,0.0,0.0,0.0,0.0,0.0,0.0,0.0,0.0,0.0,0.0,0.0,0.0,0.0,0.0,0.0,0.0,0.0,0.0,0.0,0.0,0.0,0.0,0.0,0.0,0.0,0.0,0.0,0.0,0.0,0.0,0.0,0.0,0.0,0.0,0.0,0.0,0.0,0.0,0.0,0.0,0.0,0.0,0.0,0.0,0.0,0.0,0.0,0.0,0.0,0.0,0.0,0.0,0.0,0.0,0.0,0.0,0.0,0.0,0.0,0.0,0.0,0.0,0.0,0.0,0.0,0.0,0.0,0.0,0.0,0.0,0.0,0.0,0.0,0.0,0.0,0.0,0.0,0.0,0.0,0.0,0.0,0.0,0.0,0.0,0.0,0.0,0.0,0.0,0.0,0.0,0.0,0.0,0.0,0.0,0.0,0.0,0.0,0.0,0.0,0.0,0.0,0.0,0.0,0.0,0.0,0.0,0.0,0.0,0.0,0.0,0.0,0.0,0.0,0.0,0.0,0.0,0.0,0.0,0.0,0.0,0.0,0.0,0.0,0.0,0.0,0.0,0.0,0.0,0.0,0.0,0.0,0.0,0.0,0.0,0.0,0.0,0.0,0.0,0.0,0.0,0.0,0.0,0.0,0.0,0.0,0.0,0.0,0.0,0.0,0.0,0.0,0.0,0.0,0.0,0.0,0.0,0.0,0.0,0.0,0.0,0.0,0.0,0.0,0.0,0.0,0.0,0.0,0.0,0.0,0.0,0.0,0.0,0.0,0.0,0.0,0.0,0.0,0.0,0.0,0.0,0.0,0.0,0.0,0.0,0.0,0.0,0.0,0.0,0.0,0.0,0.0,0.0,0.0,0.0,0.0,0.0,0.0,0.0,0.0,0.0,0.0,0.0,0.0,0.0,0.0,0.0,0.0,0.0,0.0,0.0,0.0,0.0,0.0,0.0,0.0,0.0,0.0,0.0,0.0,0.0,0.0,0.0,0.0,0.0,0.0,0.0,0.0,0.0,0.0,0.0,0.0,0.0,0.0,0.0,0.0,0.0,0.0,0.0,0.0,0.0,0.0,0.0,0.0,0.0,0.0,0.0,0.0,0.0,0.0,0.0,0.0,0.0,0.0,0.0,0.0,0.0,0.0,0.0,0.0,0.0,0.0,0.0,0.0,0.0,0.0,0.0,0.0,0.0,0.0,0.0,0.0,0.0,0.0,0.0,0.0,0.0,0.0,0.0,0.0,0.0,0.0,0.0,0.0,0.0,0.0,0.0,0.0,0.0,0.0,0.0,0.0,0.0,0.0,0.0,0.0,0.0,0.0,0.0,0.0,0.0,0.0,0.0,0.0,0.0,0.0,0.0,0.0,0.0,0.0,0.0,0.0,0.0,0.0,0.0,0.0,0.0,0.0,0.0,0.0,0.0,0.0,0.0,0.0,0.0,0.0,0.0,0.0,0.0,0.0,0.0,0.0,0.0,0.0,0.0,0.0,0.0,0.0,0.0,0.0,0.0,0.0,0.0,0.0,0.0,0.0,0.0,0.0,0.0,0.0,0.0,0.0,0.0,0.0,0.0,0.0,0.0,0.0,0.0,0.0,0.0,0.0,0.0,0.0,0.0,0.0,0.0,0.0,0.0,0.0,0.0,0.0,0.0,0.0,0.0,0.0,0.0,0.0,0.0,0.0,0.0,0.0,0.0,0.0,0.0,0.0,0.0,0.0,0.0,0.0,0.0,0.0,0.0,0.0,0.0,0.0,0.0,0.0,0.0,0.0,0.0,0.0,0.0,0.0,0.0,0.0,0.0,0.0,0.0,0.0,0.0,0.0,0.0,0.0,0.0,0.0,0.0,0.0,0.0,0.0,0.0,0.0,0.0,0.0,0.0,0.0,0.0,0.0,0.0,0.0,0.0,0.0,0.0,0.0,0.0,0.0,0.0,0.0,0.0,0.0,0.0,0.0,0.0,0.0,0.0,0.0,0.0,0.0,0.0,0.0,0.0,0.0,0.0,0.0,0.0,0.0,0.0,0.0,0.0,0.0,0.0,0.0,0.0,0.0,0.0,0.0,0.0,0.0,0.0,0.0,0.0,0.0,0.0,0.0,0.0,0.0,0.0,0.0,0.0,0.0,0.0,0.0,0.0,0.0,0.0,0.0,0.0,0.0,0.0,0.0,0.0,0.0,0.0,0.0,0.0,0.0,0.0,0.0,0.0,0.0,0.0,0.0,0.0,0.0,0.0,0.0,0.0,0.0,0.0,0.0,0.0,0.0,0.0,0.0,0.0,0.0,0.0,0.0,0.0,0.0,0.0,0.0,0.0,0.0,0.0,0.0,0.0,0.0,0.0,0.0,0.0,0.0,0.0,0.0,0.0,0.0,0.0,0.0,0.0,0.0,0.0,0.0,0.0,0.0,0.0,0.0,0.0,0.0,0.0,0.0,0.0,0.0,0.0,0.0,0.0,0.0,0.0,0.0,0.0,0.0,0.0,0.0,0.0,0.0,0.0,0.0,0.0,0.0,0.0,0.0,0.0,0.0,0.0,0.0,0.0,0.0,0.0,0.0,0.0,0.0,0.0,0.0,0.0,0.0,0.0,0.0,0.0,0.0,0.0,0.0,0.0,0.0,0.0,0.0,0.0,0.0,0.0,0.0,0.0,0.0,0.0,0.0,0.0,0.0,0.0,0.0,0.0,0.0,0.0,0.0,0.0,0.0,0.0,0.0,0.0,0.0,0.0,0.0,0.0,0.0,0.0,0.0,0.0,0.0,0.0,0.0,0.0,0.0,0.0,0.0,0.0,0.0,0.0,0.0,0.0,0.0,0.0,0.0,0.0,0.0,0.0,0.0,0.0,0.0,0.0,0.0,0.0,0.0,0.0,0.0,0.0,0.0,0.0,0.0,0.0,0.0,0.0,0.0,0.0,0.0,0.0,0.0,0.0,0.0,0.0,0.0,0.0,0.0,0.0,0.0,0.0,0.0,0.0,0.0,0.0,0.0,0.0,0.0,0.0,0.0,0.0,0.0,0.0,0.0,0.0,0.0,0.0,0.0,0.0,0.0,0.0,0.0,0.0,0.0,0.0,0.0,0.0,0.0,0.0,0.0,0.0,0.0,0.0,0.0,0.0,0.0,0.0,0.0,0.0,0.0,0.0,0.0,0.0,0.0,0.0,0.0,0.0,0.0,0.0,0.0,0.0,0.0,0.0,0.0,0.0,0.0,0.0,0.0,0.0,0.0,0.0,0.0,0.0,0.0,0.0,0.0,0.0,0.0,0.0,0.0,0.0,0.0,0.0,0.0,0.0,0.0,0.0,0.0,0.0,0.0,0.0,0.0,0.0,0.0,0.0,0.0,0.0,0.0,0.0,0.0,0.0,0.0,0.0,0.0,0.0,0.0,0.0,0.0,0.0,0.0,0.0,0.0,0.0,0.0,0.0,0.0,0.0,0.0,0.0,0.0,0.0,0.0,0.0,0.0,0.0,0.0,0.0,0.0,0.0,0.0,0.0,0.0,0.0,0.0,0.0,0.0,0.0,0.0,0.0,0.0,0.0,0.0,-2.2997,0.0,0.0,0.0,0.0,0.0,0.0,0.0,0.0,0.0,0.0,0.0,0.0,0.0,0.0,0.0,0.0,0.0,0.0,0.0,0.0,0.0,0.0,0.0,0.0,0.0,0.0,0.0,0.0,0.0,0.0,0.0,0.0,0.0,0.0,0.0,0.0,0.0,0.0,0.0,0.0,0.0,0.0,0.0,0.0,0.0,0.0,0.0,0.0,0.0,0.0,0.0,0.0,0.0,0.0,0.0,0.0,0.0,0.0,0.0,0.0,0.0,0.0,0.0,0.0,0.0,0.0,0.0,0.0,0.0,0.0,0.0,0.0,0.0,0.0,0.0,0.0,0.0,0.0,0.0,0.0,0.0,0.0,0.0,0.0,0.0,0.0,0.0,0.0,0.0,0.0,0.0,0.0,0.0,0.0,0.0,0.0,0.0,0.0,0.0,0.0,0.0,0.0,0.0,0.0,0.0,0.0,0.0,0.0,0.0,0.0,-2.5476,-2.5335,-2.492,-2.4223,-2.326,0.0,0.0,0.0,0.0,0.0,0.0,0.0,0.0,0.0,0.0,0.0,0.0,0.0,0.0,0.0,0.0,0.0,0.0,0.0,0.0,0.0,0.0,0.0,0.0,0.0,0.0,0.0,0.0,0.0,0.0,0.0,0.0,0.0,0.0,0.0,0.0,0.0,0.0,0.0,0.0,0.0,0.0,0.0,0.0,0.0,0.0,0.0,0.0,0.0,0.0,0.0,0.0,0.0,0.0,0.0,0.0,0.0,0.0,0.0,0.0,0.0,0.0,0.0,0.0,0.0,0.0,0.0,0.0,0.0,0.0,0.0,0.0,0.0,0.0,0.0,0.0,0.0,0.0,0.0,0.0,0.0,0.0,0.0,0.0,0.0,0.0,0.0,0.0,0.0,0.0,0.0,0.0,0.0,0.0,0.0,0.0,0.0,0.0,0.0,0.0,0.0,0.0,0.0,0.0,0.0,0.0,0.0,0.0,0.0,0.0,0.0,0.0,-2.5064,-2.4471,-2.3597,0.0,0.0,0.0,0.0,0.0,0.0,0.0,0.0,0.0,0.0,0.0,0.0,0.0,0.0,0.0,0.0,0.0,0.0,0.0,0.0,0.0,0.0,0.0,0.0,0.0,0.0,0.0,0.0,0.0,0.0,0.0,0.0,0.0,0.0,0.0,0.0,0.0,0.0,0.0,0.0,0.0,0.0,0.0,0.0,0.0,0.0,0.0,0.0,0.0,0.0,0.0,0.0,0.0,0.0,0.0,0.0,0.0,0.0,0.0,0.0,0.0,0.0,0.0,0.0,0.0,0.0,0.0,0.0,0.0,0.0,0.0,0.0,0.0,0.0,0.0,0.0,0.0,0.0,0.0,0.0,0.0,0.0,0.0,0.0,0.0,0.0,0.0,0.0,0.0,0.0,0.0,0.0,0.0,0.0,0.0,0.0,0.0,0.0,0.0,0.0,0.0,0.0,0.0,0.0,0.0,0.0,0.0,0.0,0.0,0.0,-2.4861,-2.4861,-2.4981,0.0,-2.3854,0.0,0.0,0.0,0.0,0.0,0.0,0.0,0.0,0.0,0.0,0.0,0.0,0.0,0.0,0.0,0.0,0.0,0.0,0.0,0.0,0.0,0.0,0.0,0.0,0.0,0.0,0.0,0.0,0.0,0.0,0.0,0.0,0.0,0.0,0.0,0.0,0.0,0.0,0.0,0.0,0.0,0.0,0.0,0.0,0.0,0.0,0.0,0.0,0.0,0.0,0.0,0.0,0.0,0.0,0.0,0.0,0.0,0.0,0.0,0.0,0.0,0.0,0.0,0.0,0.0,0.0,0.0,0.0,0.0,0.0,0.0,0.0,0.0,0.0,0.0,0.0,0.0,0.0,0.0,0.0,0.0,0.0,0.0,0.0,0.0,0.0,0.0,0.0,0.0,0.0,0.0,0.0,0.0,0.0,0.0,0.0,0.0,0.0,0.0,0.0,0.0,0.0,0.0,0.0,0.0,0.0,0.0,0.0,0.0,0.0,-2.4682,-2.4801,-2.4248,-2.3922,0.0,0.0,0.0,0.0,0.0,0.0,0.0,0.0,0.0,0.0,0.0,0.0,0.0,0.0,0.0,0.0,0.0,0.0,0.0,0.0,0.0,0.0,0.0,0.0,0.0,0.0,0.0,0.0,0.0,0.0,0.0,0.0,0.0,0.0,0.0,0.0,0.0,0.0,0.0,0.0,0.0,0.0,0.0,0.0,0.0,0.0,0.0,0.0,0.0,0.0,0.0,0.0,0.0,0.0,0.0,0.0,0.0,0.0,0.0,0.0,0.0,0.0,0.0,0.0,0.0,0.0,0.0,0.0,0.0,0.0,0.0,0.0,0.0,0.0,0.0,0.0,0.0,0.0,0.0,0.0,0.0,0.0,0.0,0.0,0.0,0.0,0.0,0.0,0.0,0.0,0.0,0.0,0.0,0.0,0.0,0.0,0.0,0.0,0.0,0.0,0.0,0.0,0.0,0.0,0.0,0.0,0.0,0.0,0.0,0.0,-2.4754,-2.4646,-2.4754,-2.4107,-2.3712,-2.3706,0.0,0.0,0.0,0.0,0.0,0.0,0.0,0.0,0.0,0.0,0.0,0.0,0.0,0.0,0.0,0.0,0.0,0.0,0.0,0.0,0.0,0.0,0.0,0.0,0.0,0.0,0.0,0.0,0.0,0.0,0.0,0.0,0.0,0.0,0.0,0.0,0.0,0.0,0.0,0.0,0.0,0.0,0.0,0.0,0.0,0.0,0.0,0.0,0.0,0.0,0.0,0.0,0.0,0.0,0.0,0.0,0.0,0.0,0.0,0.0,0.0,0.0,0.0,0.0,0.0,0.0,0.0,0.0,0.0,0.0,0.0,0.0,0.0,0.0,0.0,0.0,0.0,0.0,0.0,0.0,0.0,0.0,0.0,0.0,0.0,0.0,0.0,0.0,0.0,0.0,0.0,0.0,0.0,0.0,0.0,0.0,0.0,0.0,0.0,0.0,0.0,0.0,0.0,0.0,0.0,0.0,0.0,0.0,-2.4825,-2.479,-2.4801,-2.479,-2.4945,-2.454,0.0,0.0,0.0,0.0,0.0,0.0,0.0,0.0,0.0,0.0,0.0,0.0,0.0,0.0,0.0,0.0,0.0,0.0,0.0,0.0,0.0,0.0,0.0,0.0,0.0,0.0,0.0,0.0,0.0,0.0,0.0,0.0,0.0,0.0,0.0,0.0,0.0,0.0,0.0,0.0,0.0,0.0,0.0,0.0,0.0,0.0,0.0,0.0,0.0,0.0,0.0,0.0,0.0,0.0,0.0,0.0,0.0,0.0,0.0,0.0,0.0,0.0,0.0,0.0,0.0,0.0,0.0,0.0,0.0,0.0,0.0,0.0,0.0,0.0,0.0,0.0,0.0,0.0,0.0,0.0,0.0,0.0,0.0,0.0,0.0,0.0,0.0,0.0,0.0,0.0,0.0,0.0,0.0,0.0,0.0,0.0,0.0,0.0,0.0,0.0,0.0,0.0,0.0,0.0,0.0,0.0,0.0,0.0,0.0,-2.4634,-2.4598,-2.4742,-2.4969,-2.4154,-2.3693,0.0,0.0,0.0,0.0,0.0,0.0,0.0,0.0,0.0,0.0,0.0,0.0,0.0,0.0,0.0,0.0,0.0,0.0,0.0,0.0,0.0,0.0,0.0,0.0,0.0,0.0,0.0,0.0,0.0,0.0,0.0,0.0,0.0,0.0,0.0,0.0,0.0,0.0,0.0,0.0,0.0,0.0,0.0,0.0,0.0,0.0,0.0,0.0,0.0,0.0,0.0,0.0,0.0,0.0,0.0,0.0,0.0,0.0,0.0,0.0,0.0,0.0,0.0,0.0,0.0,0.0,0.0,0.0,0.0,0.0,0.0,0.0,0.0,0.0,0.0,0.0,0.0,0.0,0.0,0.0,0.0,0.0,0.0,0.0,0.0,0.0,0.0,0.0,0.0,0.0,0.0,0.0,0.0,0.0,0.0,0.0,0.0,0.0,0.0,0.0,0.0,0.0,0.0,0.0,0.0,0.0,0.0,0.0,0.0,-2.4538,0.0,-2.4526,-2.4767,-2.3804,-2.3379,0.0,0.0,0.0,0.0,0.0,0.0,0.0,0.0,0.0,0.0,0.0,0.0,0.0,0.0,0.0,0.0,0.0,0.0,0.0,0.0,0.0,0.0,0.0,0.0,0.0,0.0,0.0,0.0,0.0,0.0,0.0,0.0,0.0,0.0,0.0,0.0,0.0,0.0,0.0,0.0,0.0,0.0,0.0,0.0,0.0,0.0,0.0,0.0,0.0,0.0,0.0,0.0,0.0,0.0,0.0,0.0,0.0,0.0,0.0,0.0,0.0,0.0,0.0,0.0,0.0,0.0,0.0,0.0,0.0,0.0,0.0,0.0,0.0,0.0,0.0,0.0,0.0,0.0,0.0,0.0,0.0,0.0,0.0,0.0,0.0,0.0,0.0,0.0,0.0,0.0,0.0,0.0,0.0,0.0,0.0,0.0,0.0,0.0,0.0,0.0,0.0,0.0,0.0,0.0,0.0,0.0,0.0,0.0,-2.4718,-2.449,-2.4309,-2.4236,-2.4225,-2.4073,-2.3766,0.0,0.0,0.0,0.0,0.0,0.0,0.0,0.0,0.0,0.0,0.0,0.0,0.0,0.0,0.0,0.0,0.0,0.0,0.0,0.0,0.0,0.0,0.0,0.0,0.0,0.0,0.0,0.0,0.0,0.0,0.0,0.0,0.0,0.0,0.0,0.0,0.0,0.0,0.0,0.0,0.0,0.0,0.0,0.0,0.0,0.0,0.0,0.0,0.0,0.0,0.0,0.0,0.0,0.0,0.0,0.0,0.0,0.0,0.0,0.0,0.0,0.0,0.0,0.0,0.0,0.0,0.0,0.0,0.0,0.0,0.0,0.0,0.0,0.0,0.0,0.0,0.0,0.0,0.0,0.0,0.0,0.0,0.0,0.0,0.0,0.0,0.0,0.0,0.0,0.0,0.0,0.0,0.0,0.0,0.0,0.0,0.0,0.0,0.0,0.0,0.0,0.0,0.0,0.0,0.0,0.0,0.0,0.0,0.0,-2.4309,-2.4502,-2.4809,-2.5125,-2.4402,-2.4046,0.0,0.0,0.0,0.0,0.0,0.0,0.0,0.0,0.0,0.0,0.0,0.0,0.0,0.0,0.0,0.0,0.0,0.0,0.0,0.0,0.0,0.0,0.0,0.0,0.0,0.0,0.0,0.0,0.0,0.0,0.0,0.0,0.0,0.0,0.0,0.0,0.0,0.0,0.0,0.0,0.0,0.0,0.0,0.0,0.0,0.0,0.0,0.0,0.0,0.0,0.0,0.0,0.0,0.0,0.0,0.0,0.0,0.0,0.0,0.0,0.0,0.0,0.0,0.0,0.0,0.0,0.0,0.0,0.0,0.0,0.0,0.0,0.0,0.0,0.0,0.0,0.0,0.0,0.0,0.0,0.0,0.0,0.0,0.0,0.0,0.0,0.0,0.0,0.0,0.0,0.0,0.0,0.0,0.0,0.0,0.0,0.0,0.0,0.0,0.0,0.0,0.0,0.0,0.0,0.0,0.0,0.0,0.0,0.0,-2.4744,-2.4878,-2.5115,-2.5468,-2.4683,-2.433,-2.4415,0.0,0.0,0.0,0.0,0.0,0.0,0.0,0.0,0.0,0.0,0.0,0.0,0.0,0.0,0.0,0.0,0.0,0.0,0.0,0.0,0.0,0.0,0.0,0.0,0.0,0.0,0.0,0.0,0.0,0.0,0.0,0.0,0.0,0.0,0.0,0.0,0.0,0.0,0.0,0.0,0.0,0.0,0.0,0.0,0.0,0.0,0.0,0.0,0.0,0.0,0.0,0.0,0.0,0.0,0.0,0.0,0.0,0.0,0.0,0.0,0.0,0.0,0.0,0.0,0.0,0.0,0.0,0.0,0.0,0.0,0.0,0.0,0.0,0.0,0.0,0.0,0.0,0.0,0.0,0.0,0.0,0.0,0.0,0.0,0.0,0.0,0.0,0.0,0.0,0.0,0.0,0.0,0.0,0.0,0.0,0.0,0.0,0.0,0.0,0.0,0.0,0.0,0.0,0.0,0.0,0.0,0.0,0.0,-2.5769,-2.5511,-2.5387,-2.5352,-2.4986,-2.4673,0.0,0.0,0.0,0.0,0.0,0.0,0.0,0.0,0.0,0.0,0.0,0.0,0.0,0.0,0.0,0.0,0.0,0.0,0.0,0.0,0.0,0.0,0.0,0.0,0.0,0.0,0.0,0.0,0.0,0.0,0.0,0.0,0.0,0.0,0.0,0.0,0.0,0.0,0.0,0.0,0.0,0.0,0.0,0.0,0.0,0.0,0.0,0.0,0.0,0.0,0.0,0.0,0.0,0.0,0.0,0.0,0.0,0.0,0.0,0.0,0.0,0.0,0.0,0.0,0.0,0.0,0.0,0.0,0.0,0.0,0.0,0.0,0.0,0.0,0.0,0.0,0.0,0.0,0.0,0.0,0.0,0.0,0.0,0.0,0.0,0.0,0.0,0.0,0.0,0.0,0.0,0.0,0.0,0.0,0.0,0.0,0.0,0.0,0.0,0.0,0.0,0.0,0.0,0.0,0.0,0.0,0.0,0.0,0.0,-2.7474,-2.7443,-2.7215,-2.6824,-2.6123,-2.5684,0.0,0.0,0.0,0.0,0.0,0.0,0.0,0.0,0.0,0.0,0.0,0.0,0.0,0.0,0.0,0.0,0.0,0.0,0.0,0.0,0.0,0.0,0.0,0.0,0.0,0.0,0.0,0.0,0.0,0.0,0.0,0.0,0.0,0.0,0.0,0.0,0.0,0.0,0.0,0.0,0.0,0.0,0.0,0.0,0.0,0.0,0.0,0.0,0.0,0.0,0.0,0.0,0.0,0.0,0.0,0.0,0.0,0.0,0.0,0.0,0.0,0.0,0.0,0.0,0.0,0.0,0.0,0.0,0.0,0.0,0.0,0.0,0.0,0.0,0.0,0.0,0.0,0.0,0.0,0.0,0.0,0.0,0.0,0.0,0.0,0.0,0.0,0.0,0.0,0.0,0.0,0.0,0.0,0.0,0.0,0.0,0.0,0.0,0.0,0.0,0.0,0.0,0.0,0.0,0.0,0.0,0.0,0.0,-2.6964,-2.8315,-2.8474,-2.8545,-2.8502,-2.7514,-2.6704,0.0,0.0,0.0,0.0,0.0,0.0,0.0,0.0,0.0,0.0,0.0,0.0,0.0,0.0,0.0,0.0,0.0,0.0,0.0,0.0,0.0,0.0,0.0,0.0,0.0,0.0,0.0,0.0,0.0,0.0,0.0,0.0,0.0,0.0,0.0,0.0,0.0,0.0,0.0,0.0,0.0,0.0,0.0,0.0,0.0,0.0,0.0,0.0,0.0,0.0,0.0,0.0,0.0,0.0,0.0,0.0,0.0,0.0,0.0,0.0,0.0,0.0,0.0,0.0,0.0,0.0,0.0,0.0,0.0,0.0,0.0,0.0,0.0,0.0,0.0,0.0,0.0,0.0,0.0,0.0,0.0,0.0,0.0,0.0,0.0,0.0,0.0,0.0,0.0,0.0,0.0,0.0,0.0,0.0,0.0,0.0,0.0,0.0,0.0,0.0,0.0,0.0,0.0,0.0,0.0,0.0,0.0,0.0,-2.7356,-2.8643,-2.898,-2.9469,-3.011,-2.8925,-2.7645,0.0,0.0,0.0,0.0,0.0,0.0,0.0,0.0,0.0,0.0,0.0,0.0,0.0,0.0,0.0,0.0,0.0,0.0,0.0,0.0,0.0,0.0,0.0,0.0,0.0,0.0,0.0,0.0,0.0,0.0,0.0,0.0,0.0,0.0,0.0,0.0,0.0,0.0,0.0,0.0,0.0,0.0,0.0,0.0,0.0,0.0,0.0,0.0,0.0,0.0,0.0,0.0,0.0,0.0,0.0,0.0,0.0,0.0,0.0,0.0,0.0,0.0,0.0,0.0,0.0,0.0,0.0,0.0,0.0,0.0,0.0,0.0,0.0,0.0,0.0,0.0,0.0,0.0,0.0,0.0,0.0,0.0,0.0,0.0,0.0,0.0,0.0,0.0,0.0,0.0,0.0,0.0,0.0,0.0,0.0,0.0,0.0,0.0,0.0,0.0,0.0,0.0,0.0,0.0,0.0,0.0,0.0,0.0,-2.806,-2.9713,-3.0042,-3.0377,-3.0699,-2.9239,-2.8307,0.0,0.0,0.0,0.0,0.0,0.0,0.0,0.0,0.0,0.0,0.0,0.0,0.0,0.0,0.0,0.0,0.0,0.0,0.0,0.0,0.0,0.0,0.0,0.0,0.0,0.0,0.0,0.0,0.0,0.0,0.0,0.0,0.0,0.0,0.0,0.0,0.0,0.0,0.0,0.0,0.0,0.0,0.0,0.0,0.0,0.0,0.0,0.0,-3.0217,0.0,0.0,0.0,0.0,0.0,0.0,0.0,0.0,0.0,0.0,0.0,0.0,0.0,0.0,0.0,0.0,0.0,0.0,0.0,0.0,0.0,0.0,0.0,0.0,0.0,0.0,0.0,0.0,0.0,0.0,0.0,0.0,0.0,0.0,0.0,0.0,0.0,0.0,0.0,0.0,0.0,0.0,0.0,0.0,0.0,0.0,0.0,0.0,0.0,0.0,0.0,0.0,0.0,0.0,0.0,0.0,0.0,0.0,0.0,-2.8645,-3.0398,-3.052,-3.0913,-3.1656,-3.0387,-2.9297,0.0,0.0,0.0,0.0,0.0,0.0,0.0,0.0,0.0,0.0,0.0,0.0,0.0,0.0,0.0,0.0,0.0,0.0,0.0,0.0,0.0,0.0,0.0,0.0,0.0,0.0,0.0,0.0,0.0,0.0,0.0,0.0,0.0,0.0,0.0,0.0,0.0,0.0,0.0,0.0,0.0,0.0,0.0,0.0,0.0,0.0,0.0,0.0,0.0,0.0,0.0,0.0,0.0,0.0,0.0,0.0,0.0,0.0,0.0,0.0,0.0,0.0,0.0,0.0,0.0,0.0,0.0,0.0,0.0,0.0,0.0,0.0,0.0,0.0,0.0,0.0,0.0,0.0,0.0,0.0,0.0,0.0,0.0,0.0,0.0,0.0,0.0,0.0,0.0,0.0,0.0,0.0,0.0,0.0,0.0,0.0,0.0,0.0,0.0,0.0,0.0,0.0,0.0,0.0,0.0,0.0,0.0,-2.8899,-2.9174,-3.0967,-3.079,-3.1315,-3.263,-3.163,-3.0393,-2.9013,0.0,0.0,0.0,0.0,0.0,0.0,0.0,0.0,0.0,0.0,0.0,0.0,0.0,0.0,0.0,0.0,0.0,0.0,0.0,0.0,0.0,0.0,0.0,0.0,0.0,0.0,0.0,0.0,0.0,0.0,0.0,0.0,0.0,0.0,0.0,0.0,0.0,0.0,-2.9026,-2.9574,0.0,0.0,0.0,0.0,0.0,0.0,0.0,0.0,-3.0207,0.0,0.0,0.0,0.0,0.0,0.0,0.0,0.0,0.0,0.0,0.0,0.0,0.0,0.0,0.0,0.0,0.0,0.0,0.0,0.0,0.0,0.0,0.0,0.0,0.0,0.0,0.0,0.0,0.0,0.0,0.0,0.0,0.0,0.0,0.0,0.0,0.0,0.0,0.0,0.0,0.0,0.0,0.0,0.0,0.0,0.0,0.0,0.0,0.0,0.0,0.0,0.0,0.0,0.0,0.0,0.0,-3.1443,-2.9538,-2.9545,-3.1635,-3.1225,-3.15,-3.2587,-3.1743,-3.1142,-3.0917,0.0,0.0,0.0,0.0,0.0,0.0,0.0,0.0,0.0,0.0,0.0,0.0,0.0,0.0,0.0,0.0,0.0,0.0,0.0,0.0,0.0,0.0,0.0,0.0,0.0,0.0,0.0,0.0,0.0,0.0,0.0,0.0,0.0,0.0,0.0,0.0,0.0,0.0,0.0,-3.112,-3.1246,0.0,0.0,0.0,0.0,0.0,0.0,0.0,0.0,-3.0769,0.0,0.0,0.0,0.0,0.0,0.0,0.0,0.0,0.0,0.0,0.0,0.0,0.0,0.0,0.0,0.0,0.0,0.0,0.0,0.0,0.0,0.0,0.0,0.0,0.0,0.0,0.0,0.0,0.0,0.0,0.0,0.0,0.0,0.0,0.0,0.0,0.0,0.0,0.0,0.0,0.0,0.0,0.0,0.0,0.0,0.0,0.0,0.0,0.0,0.0,0.0,0.0,0.0,0.0,0.0,-3.1759,-3.1202,-3.1471,-3.2748,-3.2302,-3.2525,-3.353,-3.2342,-3.1733,0.0,0.0,0.0,0.0,0.0,0.0,0.0,0.0,0.0,0.0,0.0,0.0,0.0,0.0,0.0,0.0,0.0,0.0,0.0,0.0,0.0,0.0,0.0,0.0,0.0,0.0,0.0,0.0,0.0,0.0,0.0,0.0,0.0,0.0,0.0,0.0,0.0,0.0,0.0,0.0,-3.1977,-3.2202,-3.2834,0.0,0.0,0.0,0.0,0.0,0.0,-3.1204,-3.112,0.0,0.0,0.0,0.0,0.0,0.0,0.0,0.0,0.0,0.0,0.0,0.0,0.0,0.0,0.0,0.0,0.0,0.0,0.0,0.0,0.0,0.0,0.0,0.0,0.0,0.0,0.0,0.0,0.0,0.0,0.0,0.0,0.0,0.0,0.0,0.0,0.0,0.0,0.0,0.0,0.0,0.0,0.0,0.0,0.0,0.0,0.0,0.0,0.0,0.0,0.0,0.0,0.0,0.0,0.0,-3.2205,-3.266,-3.3243,-3.3885,-3.336,-3.3488,-3.4413,-3.308,-3.235,0.0,0.0,0.0,0.0,0.0,0.0,0.0,0.0,0.0,0.0,0.0,0.0,0.0,0.0,0.0,0.0,0.0,0.0,0.0,0.0,0.0,0.0,0.0,0.0,0.0,0.0,0.0,0.0,0.0,0.0,0.0,0.0,0.0,0.0,0.0,0.0,0.0,0.0,0.0,0.0,0.0,-3.3185,-3.3726,-3.3094,0.0,0.0,0.0,0.0,-3.1298,-3.1808,0.0,0.0,0.0,0.0,0.0,0.0,0.0,0.0,0.0,0.0,0.0,0.0,0.0,0.0,0.0,0.0,0.0,0.0,0.0,0.0,0.0,0.0,0.0,0.0,0.0,0.0,0.0,0.0,0.0,0.0,0.0,0.0,0.0,0.0,0.0,0.0,0.0,0.0,0.0,0.0,0.0,0.0,0.0,0.0,0.0,0.0,0.0,0.0,0.0,0.0,0.0,0.0,0.0,0.0,0.0,0.0,-3.2852,-3.2894,-3.3542,-3.4719,-3.383,-3.3704,-3.462,-3.3794,-3.313,0.0,0.0,0.0,0.0,0.0,0.0,0.0,0.0,0.0,0.0,0.0,0.0,0.0,0.0,0.0,0.0,0.0,0.0,0.0,0.0,0.0,0.0,0.0,0.0,0.0,0.0,0.0,0.0,0.0,0.0,0.0,0.0,0.0,0.0,0.0,0.0,0.0,0.0,0.0,0.0,0.0,-3.4317,-3.282,-3.2946,-3.2806,0.0,0.0,-3.3248,-3.3697,-3.4323,0.0,0.0,0.0,0.0,0.0,0.0,0.0,0.0,0.0,0.0,0.0,0.0,0.0,0.0,0.0,0.0,0.0,0.0,0.0,0.0,0.0,0.0,0.0,0.0,0.0,0.0,0.0,0.0,0.0,0.0,0.0,0.0,0.0,0.0,0.0,0.0,0.0,0.0,0.0,0.0,0.0,0.0,0.0,0.0,0.0,0.0,0.0,0.0,0.0,0.0,0.0,0.0,0.0,0.0,0.0,-3.2289,-3.3164,-3.3913,-3.4802,-3.5723,-3.5073,-3.4737,-3.4928,-3.4041,-3.3193,0.0,0.0,0.0,0.0,0.0,0.0,0.0,0.0,0.0,0.0,0.0,0.0,0.0,0.0,0.0,0.0,0.0,0.0,0.0,0.0,0.0,0.0,0.0,0.0,0.0,0.0,0.0,0.0,0.0,0.0,0.0,0.0,0.0,0.0,0.0,0.0,0.0,0.0,0.0,0.0,0.0,0.0,-3.4064,-3.4211,0.0,0.0,0.0,-3.4197,-3.3754,0.0,0.0,0.0,0.0,0.0,0.0,0.0,0.0,0.0,0.0,0.0,0.0,0.0,0.0,0.0,0.0,0.0,0.0,0.0,0.0,0.0,0.0,0.0,0.0,0.0,0.0,0.0,0.0,0.0,0.0,0.0,0.0,0.0,0.0,0.0,0.0,0.0,0.0,0.0,0.0,0.0,0.0,0.0,0.0,0.0,0.0,0.0,0.0,0.0,0.0,0.0,0.0,0.0,0.0,0.0,0.0,0.0,-3.329,-3.4766,-3.5809,-3.6457,-3.6058,-3.5652,-3.5194,-3.4341,0.0,0.0,0.0,0.0,0.0,0.0,0.0,0.0,0.0,0.0,0.0,0.0,0.0,0.0,0.0,0.0,0.0,0.0,0.0,0.0,0.0,0.0,0.0,0.0,0.0,0.0,0.0,-2.601,0.0,0.0,0.0,0.0,0.0,0.0,0.0,0.0,0.0,0.0,0.0,0.0,0.0,0.0,-3.4534,-3.4711,-3.4983,-3.504,0.0,0.0,-3.4978,-3.4337,-3.5658,-3.5883,0.0,0.0,0.0,0.0,0.0,0.0,0.0,0.0,0.0,0.0,0.0,0.0,0.0,0.0,0.0,0.0,0.0,0.0,0.0,0.0,0.0,0.0,0.0,0.0,0.0,0.0,0.0,0.0,0.0,0.0,0.0,0.0,0.0,0.0,0.0,0.0,0.0,0.0,0.0,0.0,0.0,0.0,0.0,0.0,0.0,0.0,0.0,0.0,0.0,0.0,0.0,0.0,0.0,0.0,-3.2131,-3.329,-3.4943,-3.6056,-3.664,-3.6484,-3.6048,-3.5388,-3.4982,-3.3598,0.0,0.0,0.0,0.0,0.0,0.0,0.0,0.0,0.0,0.0,0.0,0.0,0.0,0.0,0.0,0.0,0.0,0.0,0.0,0.0,0.0,0.0,0.0,0.0,0.0,0.0,0.0,0.0,0.0,0.0,0.0,0.0,0.0,0.0,0.0,0.0,0.0,0.0,0.0,0.0,0.0,-3.4716,-3.3571,-3.445,-3.518,0.0,-3.5161,-3.5555,-3.6571,-3.7847,-3.7678,-3.4568,0.0,0.0,0.0,0.0,0.0,0.0,0.0,0.0,0.0,0.0,0.0,0.0,0.0,0.0,0.0,0.0,0.0,0.0,0.0,0.0,0.0,0.0,0.0,0.0,0.0,0.0,0.0,0.0,0.0,0.0,0.0,0.0,0.0,0.0,0.0,0.0,0.0,0.0,0.0,0.0,0.0,0.0,0.0,0.0,0.0,0.0,0.0,0.0,0.0,0.0,0.0,0.0,0.0,-3.1662,-3.3262,-3.4699,-3.5881,-3.6833,-3.6811,-3.6297,-3.5292,-3.5116,-3.3696,0.0,0.0,0.0,0.0,0.0,0.0,0.0,0.0,0.0,0.0,0.0,0.0,0.0,0.0,0.0,0.0,0.0,0.0,0.0,0.0,0.0,0.0,0.0,0.0,0.0,0.0,0.0,0.0,-2.8104,-2.8288,-2.895,0.0,0.0,0.0,0.0,0.0,0.0,0.0,0.0,0.0,0.0,-3.5656,-3.5569,-3.5981,0.0,0.0,-3.6638,-3.674,-3.6497,-3.7147,-3.6782,-3.4062,-3.3031,0.0,0.0,0.0,0.0,0.0,0.0,0.0,0.0,0.0,0.0,0.0,0.0,0.0,0.0,0.0,0.0,0.0,0.0,0.0,0.0,0.0,0.0,0.0,0.0,0.0,0.0,0.0,0.0,0.0,0.0,0.0,0.0,0.0,0.0,0.0,0.0,0.0,0.0,0.0,0.0,0.0,0.0,0.0,0.0,0.0,0.0,0.0,0.0,0.0,0.0,0.0,0.0,-3.141,-3.3276,-3.4365,-3.5475,-3.6683,-3.6567,-3.5977,-3.4927,-3.4908,-3.3508,0.0,0.0,0.0,0.0,0.0,0.0,0.0,0.0,0.0,0.0,0.0,0.0,0.0,0.0,0.0,0.0,0.0,0.0,0.0,0.0,0.0,0.0,0.0,0.0,0.0,0.0,0.0,0.0,-2.8812,-2.8649,-2.931,0.0,0.0,0.0,0.0,0.0,0.0,0.0,0.0,0.0,0.0,-3.5956,-3.6604,-3.6584,-3.6501,-3.6683,-3.6754,-3.6683,-3.6427,-3.6595,-3.6141,-3.4391,0.0,0.0,0.0,0.0,0.0,0.0,0.0,0.0,0.0,0.0,0.0,0.0,0.0,0.0,0.0,0.0,0.0,0.0,0.0,0.0,0.0,0.0,0.0,0.0,0.0,0.0,0.0,-2.9602,0.0,0.0,-2.9588,0.0,0.0,0.0,0.0,0.0,0.0,0.0,0.0,0.0,0.0,0.0,0.0,0.0,0.0,0.0,0.0,0.0,0.0,0.0,0.0,0.0,0.0,-3.1396,-3.3234,-3.3908,-3.4857,-3.6061,-3.5541,-3.495,-3.4259,-3.4231,-3.3052,-3.0586,0.0,0.0,0.0,0.0,0.0,0.0,0.0,0.0,0.0,0.0,0.0,0.0,0.0,0.0,0.0,0.0,0.0,0.0,0.0,0.0,0.0,0.0,0.0,0.0,0.0,0.0,-2.9387,-2.8827,-2.8658,0.0,0.0,0.0,0.0,0.0,0.0,0.0,0.0,0.0,-3.3802,-3.4583,-3.528,-3.5993,-3.5636,-3.5615,-3.6127,-3.5203,-3.4969,-3.6694,-3.6483,-3.6066,0.0,0.0,0.0,0.0,0.0,0.0,0.0,0.0,0.0,0.0,0.0,0.0,0.0,0.0,0.0,0.0,0.0,0.0,0.0,0.0,0.0,0.0,0.0,0.0,0.0,0.0,0.0,-2.995,-2.9617,0.0,0.0,0.0,0.0,0.0,0.0,0.0,0.0,0.0,0.0,0.0,-3.0207,-3.0221,0.0,0.0,0.0,0.0,0.0,0.0,0.0,0.0,0.0,0.0,0.0,0.0,-3.0839,-3.2651,-3.3669,-3.4646,-3.5456,-3.5302,-3.4894,-3.4231,-3.4217,-3.298,-3.0389,0.0,0.0,0.0,0.0,0.0,0.0,0.0,0.0,0.0,0.0,0.0,0.0,0.0,0.0,0.0,0.0,0.0,0.0,0.0,0.0,0.0,0.0,0.0,0.0,0.0,-3.0016,0.0,0.0,0.0,0.0,0.0,0.0,0.0,0.0,0.0,0.0,0.0,-3.3894,-3.4519,-3.5792,-3.6936,-3.7682,-3.7659,-3.7767,0.0,0.0,0.0,0.0,0.0,0.0,0.0,0.0,0.0,0.0,0.0,0.0,0.0,0.0,-3.6523,-3.4622,-3.4221,-3.4329,-3.4717,0.0,0.0,0.0,0.0,0.0,0.0,0.0,0.0,0.0,0.0,0.0,0.0,0.0,0.0,-3.0431,-3.0249,-3.0024,0.0,0.0,0.0,0.0,0.0,0.0,0.0,0.0,-3.0947,-3.1064,-3.082,-3.0853,-3.0642,-3.0291,-3.0474,-2.9827,0.0,0.0,0.0,0.0,0.0,0.0,0.0,0.0,-3.0965,-3.2384,-3.3375,-3.4211,-3.4787,-3.4669,-3.4323,-3.3894,-3.3882,-3.28,-3.0623,-2.9334,-2.8345,0.0,0.0,0.0,0.0,0.0,0.0,0.0,0.0,0.0,0.0,0.0,0.0,0.0,0.0,0.0,0.0,0.0,0.0,0.0,0.0,0.0,0.0,0.0,-3.0468,0.0,0.0,0.0,0.0,0.0,0.0,0.0,0.0,0.0,-3.2844,-3.4038,-3.5095,-3.5724,-3.6787,-3.7813,-3.857,0.0,0.0,0.0,0.0,0.0,0.0,0.0,-3.6067,-3.6272,-3.5862,-3.5828,-3.6787,-3.7558,-3.8053,-3.8135,0.0,0.0,-3.6567,-3.6201,-3.642,-3.7054,-3.7407,-3.7662,-3.7782,-3.8197,-3.8435,0.0,0.0,0.0,0.0,0.0,0.0,0.0,0.0,-3.0867,-3.0937,0.0,-3.0783,0.0,0.0,0.0,0.0,-2.9743,-3.0909,0.0,0.0,-3.1822,-3.2103,-3.1583,-3.1603,-3.1589,-3.1569,-3.2137,-3.1476,-2.9729,-2.9069,0.0,0.0,0.0,0.0,0.0,0.0,-3.1766,-3.2356,-3.3002,-3.3621,-3.4133,-3.3599,-3.334,-3.3361,-3.3268,-3.262,-3.1337,-3.1114,-2.9947,-2.7473,-2.8295,0.0,0.0,0.0,0.0,0.0,0.0,0.0,0.0,0.0,0.0,0.0,0.0,0.0,0.0,0.0,0.0,0.0,0.0,0.0,0.0,-3.076,0.0,0.0,0.0,0.0,0.0,0.0,0.0,0.0,0.0,0.0,-3.3462,-3.4706,-3.5999,-3.7275,0.0,0.0,0.0,0.0,-3.7902,-3.7946,-3.7399,-3.7257,-3.7828,-3.7887,-3.8085,-3.8641,0.0,0.0,-3.8765,-3.8616,-3.8477,-3.7817,-3.9098,-3.9918,-3.92,-3.8795,-3.8694,-3.8907,-3.8971,-3.8923,-3.8969,-3.9404,-3.9723,-3.0217,0.0,0.0,0.0,0.0,-3.1218,-3.1569,-3.2131,-3.1949,-3.1724,-3.1443,-3.0778,0.0,0.0,0.0,0.0,0.0,0.0,-3.1626,-3.1878,-3.2244,-3.2553,-3.2792,-3.3161,-3.3175,-3.2792,-3.2899,-3.2521,-3.1569,-3.0484,-2.9012,-2.713,0.0,0.0,0.0,0.0,-3.112,-3.178,-3.2792,-3.3375,-3.3543,-3.3389,-3.3472,-3.3859,-3.3812,-3.3282,-3.2243,-3.1765,-3.09,-2.9544,-2.9322,0.0,0.0,0.0,0.0,0.0,0.0,0.0,0.0,0.0,0.0,0.0,0.0,0.0,0.0,0.0,0.0,0.0,0.0,0.0,-2.9157,-2.9753,-3.0049,0.0,0.0,0.0,0.0,0.0,0.0,0.0,0.0,0.0,-3.5383,-3.5938,-3.6522,0.0,0.0,-3.8338,-3.8537,-3.8815,-3.9169,-3.964,-3.9564,0.0,-3.9686,-3.9028,-3.8807,-3.9829,-4.0646,-4.1163,-4.1069,-4.1075,-4.1013,-4.0779,-4.087,-4.0978,-4.1083,-4.1007,-4.1008,-4.1261,-4.1261,-4.1213,-4.134,-4.1389,-4.1374,-3.139,-3.1606,-3.1372,-3.1511,-3.185,-3.1864,-3.2202,-3.275,-3.2525,-3.2328,-3.2174,-3.1541,-3.0937,-3.0333,-2.9701,0.0,0.0,0.0,-3.2047,-3.2426,-3.2665,-3.296,-3.3312,-3.3825,-3.3962,-3.3618,-3.3589,-3.3126,-3.2307,-3.1555,-3.0038,-2.7925,0.0,-2.8507,-2.8549,-3.0094,-3.1106,-3.1527,-3.2707,-3.3417,-3.3612,-3.3839,-3.4099,-3.4409,-3.4573,-3.4291,-3.3472,-3.3031,-3.2318,-3.1247,-3.0566,-2.9643,0.0,0.0,0.0,0.0,0.0,0.0,0.0,0.0,0.0,0.0,0.0,-2.8119,-2.7457,0.0,0.0,0.0,-2.8295,-2.8754,-2.9399,-2.9909,0.0,0.0,0.0,0.0,0.0,0.0,0.0,-3.3183,-3.3891,-3.4799,-3.6322,-3.6953,-3.7538,-3.82,-3.8646,-3.8967,-3.9244,0.0,-4.0028,-4.0428,-4.0489,-4.0489,-4.0489,-4.0124,-4.01,-4.0897,-4.126,-4.1576,-4.1747,-4.1849,-4.1917,-4.187,-4.1706,-4.1637,-4.1947,-4.2045,-4.2174,-4.2413,-4.2381,-4.2333,-4.246,-4.2365,-4.2302,-3.225,-3.2642,-3.1954,-3.1963,-3.2469,-3.2483,-3.2806,-3.3248,-3.2721,-3.2806,-3.322,-3.2665,-3.2075,-3.1457,-3.0923,0.0,-3.1597,-3.2188,-3.2483,-3.2497,-3.3059,-3.3312,-3.3368,-3.3914,-3.4187,-3.4187,-3.4163,-3.3541,-3.2378,-3.223,-3.1308,-2.9651,-2.9688,-2.9699,-2.9727,-3.0898,-3.1533,-3.1547,-3.2746,-3.3624,-3.4138,-3.4677,-3.496,-3.4901,-3.5404,-3.5344,-3.4726,-3.4513,-3.3827,-3.2536,-3.1767,-3.0561,-2.8704,0.0,0.0,0.0,0.0,0.0,0.0,0.0,0.0,0.0,0.0,0.0,0.0,0.0,0.0,0.0,-2.9337,0.0,-3.0666,-3.076,0.0,0.0,0.0,-3.0808,-3.1528,-3.2117,-3.2795,-3.3519,0.0,0.0,-3.6476,-3.7707,-3.8754,-3.9431,-3.9521,-3.9767,-4.0336,-4.0397,-4.0489,-4.0489,-4.0551,-4.0582,-4.0674,-4.1089,-4.1503,-4.1585,-4.1408,-4.1252,-4.137,-4.1554,-4.1637,-4.1669,-4.1784,-4.1963,-4.2109,-4.2254,-4.2445,-4.2571,-4.2602,-4.2602,-4.2602,-4.2571,-4.2571,-3.3059,-3.2925,-3.2898,-3.296,-3.3066,-3.3066,-3.3185,-3.3312,-3.3136,-3.315,-3.3248,-3.2665,-3.2075,-3.1499,-3.1822,-3.2047,-3.2216,-3.282,-3.3066,-3.3066,-3.322,-3.3507,-3.3928,-3.4442,-3.471,-3.4728,-3.4617,-3.4184,-3.3445,-3.2445,-3.1743,-3.1289,-3.0863,-3.0425,-3.0046,-3.1182,-3.1791,-3.1837,-3.3074,-3.4076,-3.4695,-3.5252,-3.5287,-3.4745,-3.5261,-3.5232,-3.4573,-3.3971,-3.3506,-3.3152,-3.2028,-3.0936,-2.9971,-2.8473,0.0,0.0,0.0,0.0,0.0,0.0,0.0,0.0,0.0,-2.8038,-2.68,0.0,-2.7829,0.0,-3.0075,-3.064,-3.0107,-3.0579,0.0,0.0,-3.1628,-3.2017,-3.3173,-3.3342,-3.3816,-3.5022,-3.5366,-3.5938,-3.7107,-3.7984,-3.8754,-3.9431,-3.9936,-4.012,-3.9813,-4.0182,-4.0489,-4.0536,-4.097,-4.134,-4.1294,-4.1553,-4.1651,-4.1327,-4.1366,-4.1554,-4.1719,-4.1851,-4.198,-4.1964,-4.2013,-4.2125,-4.2286,-4.2381,-4.2445,-4.2571,-4.2602,-4.2602,-4.2602,-4.2602,-4.2602,-3.3298,-3.3455,-3.3942,-3.414,-3.4098,-3.3564,-3.3276,-3.3276,-3.3276,-3.3276,-3.3276,-3.2974,-3.2623,-3.2328,-3.2665,-3.282,-3.2834,-3.3386,-3.3667,-3.3667,-3.3908,-3.4153,-3.4461,-3.4694,-3.4805,-3.479,-3.4448,-3.3936,-3.336,-3.2585,-3.2065,-3.1797,-3.1688,-3.1443,-3.117,-3.1619,-3.1881,-3.1895,-3.3161,-3.3969,-3.4358,-3.4907,-3.4988,-3.4623,-3.4894,-3.489,-3.4505,-3.3783,-3.326,-3.2936,-3.1936,-3.0966,-2.9986,-2.8627,-2.7534,0.0,0.0,0.0,0.0,0.0,0.0,0.0,0.0,0.0,0.0,0.0,-2.7938,-2.8912,-3.0021,-3.0746,-3.0907,-3.1319,-3.1933,-3.2829,-3.2848,-3.3314,-3.4628,-3.4627,-3.4915,-3.5951,-3.5983,-3.6215,-3.6969,-3.7972,-3.8778,-3.9164,-4.0127,-4.0622,-4.0214,-4.0411,-4.0662,-4.0761,-4.1121,-4.1384,-4.1368,-4.1438,-4.1454,-4.1382,-4.1554,-4.1817,-4.2077,-4.2222,-4.2333,-4.2302,-4.2333,-4.2365,-4.2476,-4.2508,-4.2571,-4.282,-4.2912,-4.2896,-4.2912,-4.2912,-4.2943,-3.3325,-3.3963,-3.4848,-3.5133,-3.4978,-3.3888,-3.3417,-3.3403,-3.3403,-3.3347,-3.3276,-3.3276,-3.3276,-3.3276,-3.3276,-3.3276,-3.3347,-3.3859,-3.4104,-3.4138,-3.4643,-3.4942,-3.4978,-3.4805,-3.4724,-3.4756,-3.4031,-3.3351,-3.2806,-3.2641,-3.2295,-3.1824,-3.2203,-3.2398,-3.2401,-3.2107,-3.2019,-3.2108,-3.3141,-3.3713,-3.3804,-3.4253,-3.4459,-3.4366,-3.4366,-3.4335,-3.4227,-3.3598,-3.3013,-3.2413,-3.1751,-3.0859,-2.972,-2.8849,-2.815,0.0,-2.6811,0.0,0.0,0.0,0.0,0.0,0.0,0.0,0.0,-2.8069,-2.8498,-2.9155,-2.9917,-3.0885,-3.212,-3.2319,-3.2866,-3.402,-3.4117,-3.4573,-3.5656,-3.5716,-3.5891,-3.6492,-3.6523,-3.6523,-3.6646,-3.7823,-3.8709,-3.9007,-4.0053,-4.0914,-4.0938,-4.0885,-4.0935,-4.1117,-4.1135,-4.1247,-4.1232,-4.1216,-4.1335,-4.1587,-4.1817,-4.2045,-4.2318,-4.2508,-4.2586,-4.268,-4.2711,-4.2711,-4.2774,-4.2805,-4.2912,-4.3323,-4.3396,-4.3396,-4.3396,-4.3413,-4.3515,-3.4122,-3.3999,-3.4848,-3.4908,-3.4393,-3.4119,-3.4034,-3.4034,-3.402,-3.3754,-3.329,-3.3276,-3.3276,-3.3276,-3.3276,-3.3276,-3.3361,-3.3859,-3.4104,-3.4119,-3.4643,-3.5106,-3.5514,-3.4978,-3.4925,-3.5232,-3.4081,-3.3378,-3.3269,-3.2704,-3.2366,-3.2259,-3.237,-3.2398,-3.2398,0.0,0.0,0.0,-3.332,-3.3759,-3.4312,-3.4446,-3.4227,-3.3629,-3.3598,0.0,-3.2813,-3.2659,-3.2521,-3.2382,-3.1778,0.0,0.0,0.0,0.0,0.0,0.0,0.0,0.0,0.0,0.0,0.0,-2.8774,-2.914,-2.8543,-3.0015,-3.0818,-3.0369,-3.1529,-3.2232,-3.1946,-3.2536,-3.3097,-3.3456,-3.4466,-3.52,-3.5439,-3.6183,-3.6783,-3.6892,-3.677,-3.6723,-3.6939,-3.767,-3.8419,-3.9077,-3.9908,-4.0761,-4.1574,-4.1374,-4.1223,-4.1256,-4.1406,-4.1505,-4.1489,-4.1653,-4.1735,-4.1898,-4.2109,-4.2318,-4.2445,-4.2539,-4.2774,-4.3064,-4.3171,-4.3292,-4.3617,-4.3722,-4.366,-4.3856,-4.3852,-4.3869,-4.3885,-4.3869,-4.3885,-3.4117,-3.4122,-3.4885,-3.502,0.0,-3.4688,-3.4506,-3.4175,-3.388,-3.3571,-3.329,-3.3276,-3.3276,-3.3276,-3.3276,-3.3452,-3.3736,-3.4254,-3.4643,-3.4909,-3.5102,-3.5316,-3.5567,-3.4562,-3.4193,-3.4414,-3.3398,-3.2906,-3.289,-3.2567,-3.2398,-3.2398,-3.2398,-3.2398,-3.2398,-3.2398,-3.2567,-3.2906,-3.2906,-3.3075,-3.3429,-3.3473,-3.329,-3.2936,-3.2906,0.0,0.0,0.0,0.0,0.0,0.0,0.0,0.0,0.0,0.0,-2.8396,-2.775,-2.7519,-2.7857,-2.8196,-2.8574,-2.8971,-2.9898,-3.0258,-2.9741,-3.0668,-3.1321,-3.1424,-3.2102,-3.2615,-3.2745,-3.314,-3.3593,-3.4091,-3.4938,-3.5617,-3.5957,-3.6625,-3.7075,-3.703,-3.6968,-3.6998,-3.7105,-3.7853,-3.8448,-3.8965,-3.966,-4.0484,-4.1294,-4.1578,-4.1604,-4.1671,-4.1785,-4.1851,-4.1835,-4.1931,-4.2174,-4.2413,-4.2618,-4.2851,-4.3157,-4.3248,-4.3284,-4.3194,-4.3385,-4.3639,-4.3463,-4.3483,-4.3506,-4.3715,-4.3501,-4.3365,-4.3529,-4.3718,-4.3753,-3.3899,-3.4259,-3.495,-3.5133,-3.5034,-3.5034,-3.4646,-3.4006,-3.3515,0.0,0.0,-3.3276,-3.3276,-3.3276,-3.3417,-3.3716,-3.4138,-3.4743,-3.527,-3.5689,-3.5554,-3.5537,-3.5629,-3.4245,-3.3598,-3.3567,-3.289,-3.2521,-3.2398,-3.2398,-3.2398,-3.2398,-3.2398,-3.2398,-3.2398,-3.2398,-3.2398,-3.2398,-3.2398,-3.2398,-3.2398,-3.2398,-3.2398,-3.2398,-3.2398,-3.2028,-3.1259,-3.132,-3.0782,-2.9479,-2.9387,-2.9141,-2.8627,-2.8473,-2.8411,-2.8411,-2.8411,-2.8704,-2.9341,-2.9387,-2.974,-3.0509,-3.1074,-3.1246,-3.0928,-3.1016,-3.1415,-3.219,-3.2289,-3.2671,-3.3517,-3.3642,-3.396,-3.4709,-3.5299,-3.5868,-3.6397,-3.6988,-3.73,-3.724,-3.7358,-3.746,-3.7623,-3.8291,-3.8857,-3.9063,-3.962,-4.0281,-4.1036,-4.1662,-4.2045,-4.2142,-4.2254,-4.2317,-4.2333,-4.2476,-4.2648,-4.3141,-4.3133,-4.3261,-4.3627,-4.3717,-4.3411,-4.2914,-4.3362,-4.3435,-4.3104,-4.3008,-4.309,-4.3459,-4.3062,-4.2706,-4.2943,-4.3169,-4.3253,-3.398,-3.4259,-3.4936,-3.4857,-3.4329,-3.4329,-3.3978,-3.3417,-3.3319,-3.3276,-3.3276,-3.3276,-3.3276,-3.3312,-3.3756,-3.4016,-3.4138,-3.5154,-3.5623,-3.5689,-3.5554,-3.5814,-3.6261,-3.4968,-3.4351,-3.4289,-3.3598,-3.2952,-3.2444,-3.2398,-3.2398,-3.2398,-3.2398,-3.2398,-3.2398,-3.2398,-3.2398,-3.2398,-3.2398,-3.2398,-3.2398,-3.2398,-3.2398,-3.2398,-3.2398,-3.1813,-3.0602,-3.1074,-3.0782,-2.9479,-2.9387,-2.9366,-2.9248,-2.8719,-2.8411,-2.8411,-2.8411,-2.8704,-2.9366,-2.9387,-2.9925,-3.1105,-3.1347,-3.1378,-3.1327,-3.1863,-3.2276,-3.2532,-3.271,-3.2906,-3.3176,-3.3398,-3.3654,-3.3976,-3.5038,-3.5815,-3.5975,-3.6979,-3.7756,-3.8026,-3.8124,-3.8334,-3.8745,-3.9024,-3.9391,-3.9968,-3.9996,-4.0245,-4.1223,-4.2009,-4.2349,-4.2523,-4.2865,-4.3111,-4.3125,-4.3469,-4.3663,-4.3856,-4.3372,-4.3051,-4.3221,-4.278,-4.2471,-4.2516,-4.2765,-4.2881,-4.3014,-4.3151,-4.3125,-4.3176,-4.2987,-4.2762,-4.2327,-4.2228,-4.2418,-3.3527,-3.374,-3.4042,-3.4,-3.3697,-3.3712,-3.3543,-3.329,-3.3276,-3.3473,-3.3768,-3.3782,-3.3782,-3.3817,-3.436,-3.4558,-3.4591,-3.535,-3.5651,-3.5568,-3.5155,-3.5121,-3.5276,-3.4368,-3.3906,-3.3904,-3.3567,-3.3044,-3.2459,-3.2398,-3.2398,-3.2398,-3.2398,-3.2398,-3.2398,-3.2398,-3.2398,-3.2398,-3.2398,-3.2398,-3.2398,-3.2398,-3.2398,-3.2398,-3.2398,-3.1767,-3.0448,-3.0705,-3.0243,-2.8919,-2.8849,-2.8873,-2.8873,-2.8895,-2.895,-2.8965,-2.9304,-2.9797,-3.0443,-3.0828,-3.1274,-3.1874,-3.1936,-3.1963,-3.206,-3.2338,-3.2578,-3.273,-3.2978,-3.3176,-3.3309,-3.3503,-3.3642,-3.3797,-3.5259,-3.6152,-3.6157,-3.7362,-3.8311,-3.8407,-3.8507,-3.8756,-3.9242,-3.9375,-3.9528,-3.9981,-4.0076,-4.0508,-4.1073,-4.1667,-4.2304,-4.2839,-4.3155,-4.3396,-4.3634,-4.3839,-4.4071,-4.4316,-4.3765,-4.3453,-4.3515,-4.3034,-4.2517,-4.2304,-4.2526,-4.2739,-4.2664,-4.2551,-4.2551,-4.2499,-4.2171,-4.1792,-4.1481,-4.1412,-4.155,-3.3157,-3.3276,-3.3276,-3.3276,-3.3276,-3.3276,-3.3276,-3.3276,-3.3276,-3.3627,-3.4161,-3.4217,-3.4261,-3.4462,-3.4965,-3.5229,-3.5344,-3.5533,-3.5582,-3.543,-3.4659,-3.4428,-3.4643,-3.3967,-3.3721,-3.3829,-3.3721,-3.329,-3.2675,-3.2459,-3.2398,-3.2398,-3.2398,-3.2398,-3.2398,-3.2398,-3.2398,-3.2398,-3.2398,-3.2398,-3.2398,-3.2398,-3.2398,-3.2382,-3.2228,-3.1628,-3.0479,-3.0263,-2.9617,-2.8519,-2.855,-2.8627,-2.8658,-2.9273,-2.9617,-2.9664,-3.0109,-3.0694,-3.1378,-3.2013,-3.2425,-3.2437,-3.2574,-3.2668,-3.2792,-3.298,-3.3022,-3.3016,-3.3219,-3.3398,-3.3581,-3.3694,-3.3822,-3.4014,-3.5433,-3.6336,-3.6383,-3.7736,-3.8815,-3.8854,-3.9044,-3.9329,-3.9636,-3.9842,-3.9885,-3.9909,-4.026,-4.0604,-4.0732,-4.1214,-4.1927,-4.2824,-4.324,-4.3498,-4.3865,-4.4204,-4.4384,-4.4647,-4.3958,-4.3544,-4.3503,-4.3113,-4.2534,-4.1881,-4.2181,-4.2285,-4.1854,-4.1774,-4.1774,-4.1723,-4.1395,-4.0998,-4.0981,-4.0963,-4.0929,-3.3276,-3.3276,-3.3276,-3.3276,-3.3276,-3.3276,-3.3276,-3.3276,-3.3276,-3.3627,-3.4147,-3.4217,-3.4498,-3.5021,-3.5507,-3.5944,-3.6315,-3.5828,-3.5507,-3.5276,-3.4106,-3.4168,-3.5183,-3.469,-3.472,-3.5106,-3.4613,-3.3919,-3.3244,-3.2675,-3.2398,-3.2398,-3.2398,-3.2398,-3.2398,-3.2398,-3.2398,-3.2398,-3.2398,-3.2398,-3.2398,-3.2398,-3.2398,-3.2398,-3.1797,-3.1151,-3.0386,-2.9817,-2.9141,-2.851,-2.8956,-2.9279,-2.9381,-2.9925,-3.0309,-3.0294,-3.0386,-3.0705,-3.1366,-3.2028,-3.2453,-3.2605,-3.3002,-3.3329,-3.3495,-3.4037,-3.4045,-3.3523,-3.3424,-3.3642,-3.3838,-3.4,-3.4109,-3.4192,-3.5201,-3.6024,-3.6799,-3.7834,-3.8941,-4.0045,-4.0037,-4.0313,-4.0566,-4.0662,-4.0583,-4.0271,-4.034,-4.0527,-4.0682,-4.0822,-4.1264,-4.2327,-4.3068,-4.3508,-4.3752,-4.4605,-4.4721,-4.4397,-4.3717,-4.3105,-4.2526,-4.1861,-4.1084,-4.1343,-4.117,-4.124,-4.117,-4.1015,-4.1067,-4.117,-4.1015,-4.0894,-4.0894,-4.0894,-4.0894,-3.3276,-3.3276,-3.3276,-3.3276,-3.3276,-3.3276,-3.3276,-3.3276,-3.3276,-3.3445,-3.3697,-3.4048,-3.4519,-3.5041,-3.5575,-3.5718,-3.5524,-3.5493,-3.5059,-3.4275,-3.3644,-3.3721,-3.4168,-3.3983,-3.4198,-3.4813,-3.4197,-3.369,-3.3336,-3.2721,-3.2398,-3.2398,-3.2398,-3.2398,-3.2398,-3.2398,-3.2398,-3.2382,-3.2013,-3.1824,-3.1844,-3.2182,-3.2198,-3.1813,-3.1563,-3.0874,-2.991,-2.9525,-2.9079,-2.8519,-2.9058,-2.9387,-2.9402,-3.0412,-3.0997,-3.1012,-3.1382,-3.1705,-3.1951,-3.2314,-3.2551,-3.2605,-3.2969,-3.3351,-3.3691,-3.4045,-3.4219,-3.4325,-3.435,-3.444,-3.4537,-3.4675,-3.4754,-3.4885,-3.5759,-3.6604,-3.7136,-3.817,-3.9225,-4.0144,-4.0305,-4.0436,-4.0799,-4.0894,-4.084,-4.0697,-4.0655,-4.0688,-4.0796,-4.0813,-4.1007,-4.149,-4.2174,-4.3031,-4.3726,-4.3933,-4.4147,-4.4069,-4.3276,-4.2309,-4.2033,-4.1395,-4.0912,-4.0894,-4.0894,-4.0894,-4.0946,-4.0894,-4.0894,-4.0894,-4.0894,-4.0894,-4.0894,-4.0894,-4.0894,-3.3276,-3.3276,-3.3276,-3.3276,-3.3276,-3.3276,-3.3276,-3.3276,-3.3276,-3.3276,-3.3368,-3.3917,-3.4476,-3.4984,-3.5541,-3.5561,-3.5213,-3.5217,-3.4568,-3.346,-3.3213,-3.3213,-3.3383,-3.3398,-3.3783,-3.4289,-3.3752,-3.3321,-3.3106,-3.2659,-3.2398,-3.2398,-3.2398,-3.2398,-3.2398,-3.2398,-3.2305,-3.2074,-3.1628,-3.1332,-3.1213,-3.1597,-3.1613,-3.1151,-3.0936,-3.0458,-2.9694,-2.931,-2.9012,-2.8719,-2.931,-2.9664,-2.971,-3.0936,-3.1686,-3.169,-3.2105,-3.2398,-3.2398,-3.2523,-3.2687,-3.2873,-3.3261,-3.3723,-3.421,-3.4512,-3.483,-3.5237,-3.5368,-3.5299,-3.5068,-3.5155,-3.5201,-3.5258,-3.6073,-3.6808,-3.7535,-3.8441,-3.9344,-4.0273,-4.051,-4.0558,-4.084,-4.0894,-4.0871,-4.0888,-4.0871,-4.0894,-4.0894,-4.0905,-4.0905,-4.0912,-4.1371,-4.2164,-4.3379,-4.3569,-4.3448,-4.3258,-4.2585,-4.2016,-4.1792,-4.117,-4.0894,-4.0894,-4.0894,-4.0894,-4.0894,-4.0894,-4.0894,-4.0894,-4.0894,-4.0894,-4.0894,-4.0894,-4.0894,-3.3276,-3.3276,-3.3276,-3.3276,-3.3276,-3.3276,-3.3276,-3.3276,-3.3276,-3.3276,-3.3417,-3.3882,-3.4399,-3.496,-3.5539,-3.5998,-3.6137,-3.5091,-3.4166,-3.3321,-3.2752,-3.2798,-3.3367,-3.3398,-3.3767,-3.4305,-3.3644,-3.3044,-3.2505,-3.2444,-3.2398,-3.2398,-3.2444,-3.2428,-3.2398,-3.2398,-3.2074,-3.1578,-3.1409,-3.1059,-3.0535,-3.0463,-3.0463,-3.0325,-2.9848,-2.9827,-3.0063,-2.9135,-2.8735,-2.9325,-2.9986,-3.034,-3.0463,-3.1628,-3.2305,-3.2336,-3.2367,-3.2425,-3.2453,-3.2578,-3.29,-3.3521,-3.4103,-3.4776,-3.5383,-3.5807,-3.607,-3.6251,-3.6238,-3.5983,-3.5385,-3.5322,-3.5293,-3.5316,-3.5622,-3.6531,-3.7874,-3.834,-3.929,-4.041,-4.0765,-4.0823,-4.0871,-4.0894,-4.0894,-4.0894,-4.0894,-4.0894,-4.0894,-4.0894,-4.0894,-4.0894,-4.1015,-4.1257,-4.2016,-4.2465,-4.262,-4.2534,-4.224,-4.174,-4.1274,-4.0894,-4.0894,-4.0894,-4.0894,-4.0894,-4.0894,-4.0894,-4.0894,-4.0894,-4.0894,-4.0894,-4.0894,-4.0894,-4.0894,-3.3276,-3.3276,-3.3276,-3.3276,-3.3276,-3.3276,-3.3276,-3.3276,-3.3276,-3.3507,-3.3805,-3.4016,-3.4576,-3.5429,-3.5621,-3.5557,-3.5214,-3.4705,-3.3889,-3.2844,-3.249,-3.2521,-3.2721,-3.2752,-3.3121,-3.3598,-3.309,-3.2644,-3.2518,-3.2813,-3.2813,-3.2536,-3.2829,-3.2844,-3.2475,-3.2398,-3.2059,-3.1413,-3.0997,-3.0432,-2.9771,-2.935,-2.9095,-2.9135,-2.9335,-2.9494,-2.9756,-2.9289,-2.9341,-3.0002,-3.0674,-3.1043,-3.112,-3.189,-3.2398,-3.2398,-3.2398,-3.2602,-3.296,-3.3145,-3.3521,-3.4186,-3.4616,-3.5292,-3.6118,-3.657,-3.6769,-3.6982,-3.706,-3.6719,-3.6109,-3.5898,-3.5898,-3.592,-3.6045,-3.6521,-3.7509,-3.8234,-3.8991,-3.9922,-4.0532,-4.0894,-4.0894,-4.0894,-4.0894,-4.0894,-4.0894,-4.0894,-4.0894,-4.0894,-4.0894,-4.0894,-4.0912,-4.0998,-4.1205,-4.1481,-4.1654,-4.1826,-4.1705,-4.136,-4.0929,-4.0894,-4.0894,-4.0894,-4.0894,-4.0894,-4.0894,-4.0894,-4.0894,-4.0894,-4.0894,-4.0894,-4.0894,-4.0894,-4.0894,-3.3276,-3.3276,-3.3276,-3.3276,-3.3276,-3.3276,-3.3276,-3.3276,-3.3276,-3.3597,-3.4051,-3.4288,-3.489,-3.5623,-3.5894,-3.5537,-3.4876,-3.4828,-3.4089,-3.2798,-3.2721,-3.2613,-3.2413,-3.2398,-3.2613,-3.2952,-3.2628,-3.2398,-3.2444,-3.2844,-3.2813,-3.2459,-3.2859,-3.2736,-3.2182,-3.2059,-3.1643,-3.0843,-3.0304,-2.974,-2.9095,-2.8658,-2.8411,-2.8458,-2.8858,-2.9294,-2.9664,-2.9725,-3.0017,-3.0658,-3.0966,-3.1074,-3.112,-3.1505,-3.1751,-3.1767,-3.1979,-3.2357,-3.2888,-3.3367,-3.3937,-3.4616,-3.5238,-3.5957,-3.686,-3.7268,-3.746,-3.7516,-3.7495,-3.7185,-3.6525,-3.6284,-3.6284,-3.6284,-3.6284,-3.6611,-3.7404,-3.8129,-3.9008,-3.9997,-4.0601,-4.0877,-4.0894,-4.0894,-4.0894,-4.0894,-4.0894,-4.0894,-4.0894,-4.0894,-4.0894,-4.0894,-4.0894,-4.0912,-4.1015,-4.1153,-4.1205,-4.1343,-4.1429,-4.1067,-4.0894,-4.0894,-4.0894,-4.0894,-4.0894,-4.0894,-4.0894,-4.0894,-4.0894,-4.0894,-4.0894,-4.0894,-4.0894,-4.0894,-4.0894,-3.3276,-3.3276,-3.3276,-3.3276,-3.3276,-3.3276,-3.3276,-3.3276,-3.3276,-3.3646,-3.4206,-3.4643,-3.5154,-3.5752,-3.6226,-3.6107,-3.5584,-3.5521,-3.4737,-3.349,-3.3352,-3.3013,-3.2505,-3.2428,-3.2413,-3.2505,-3.2413,-3.2398,-3.2413,-3.2521,-3.2521,-3.2382,-3.2413,-3.2136,-3.1382,-3.1362,-3.0766,-2.9843,-2.951,-2.9125,-2.8488,-2.8411,-2.8411,-2.8411,-2.8519,-2.9079,-3.0233,-3.0279,-3.0535,-3.1116,-3.0766,-3.0432,-3.0479,-3.054,-3.0479,-3.0689,-3.1211,-3.1663,-3.2071,-3.3186,-3.4194,-3.506,-3.6024,-3.6899,-3.7629,-3.8205,-3.8296,-3.7767,-3.7599,-3.7215,-3.6508,-3.6284,-3.6284,-3.6284,-3.6284,-3.6628,-3.734,-3.8151,-3.9163,-4.0446,-4.0894,-4.0894,-4.0894,-4.0894,-4.0894,-4.0894,-4.0894,-4.0894,-4.0894,-4.0894,-4.0894,-4.0894,-4.0894,-4.0894,-4.0894,-4.0912,-4.0912,-4.0946,-4.0998,-4.0894,-4.0894,-4.0894,-4.0894,-4.0894,-4.0894,-4.0894,-4.0894,-4.0894,-4.0894,-4.0894,-4.0894,-4.0894,-4.0894,-4.0894,-4.0894,-3.3276,-3.3276,-3.3276,-3.3276,-3.3276,-3.3276,-3.3276,-3.3276,-3.3276,-3.3791,-3.4576,-3.481,-3.5382,-3.6116,-3.6429,-3.6368,-3.6168,-3.6168,-3.5475,-3.4289,-3.366,-3.3306,-3.3029,-3.2598,-3.2398,-3.2398,-3.2398,-3.2398,-3.2475,-3.2829,-3.2659,-3.1936,-3.2167,-3.1782,-3.0771,-3.0705,-3.0233,-2.951,-2.9387,-2.9064,-2.8473,-2.8411,-2.8411,-2.8458,-2.8858,-2.931,-2.9704,-2.9735,-3.0017,-3.0663,-3.0509,-3.0402,-3.0386,-3.0402,-3.0454,-3.0593,-3.1201,-3.209,-3.2999,-3.386,-3.5039,-3.6282,-3.7016,-3.7835,-3.8813,-3.9163,-3.8974,-3.8353,-3.8254,-3.7749,-3.6628,-3.6284,-3.6284,-3.6284,-3.6301,-3.6422,-3.6922,-3.7875,-3.9215,-4.0549,-4.0894,-4.0894,-4.0894,-4.0894,-4.0894,-4.0894,-4.0894,-4.0894,-4.0894,-4.0894,-4.0894,-4.0894,-4.0894,-4.0894,-4.0894,-4.0894,-4.0894,-4.0894,-4.0894,-4.0894,-4.0894,-4.0894,-4.0894,-4.0894,-4.0894,-4.0894,-4.0894,-4.0894,-4.0894,-4.0894,-4.0894,-4.0894,-4.0894,-4.0894,-4.0894,-3.3276,-3.3276,-3.3276,-3.3276,-3.3276,-3.3276,-3.3276,-3.3312,-3.3507,-3.4085,-3.481,-3.5121,-3.5672,-3.6367,-3.6492,-3.6492,-3.6492,-3.6492,-3.6076,-3.5183,-3.4227,-3.369,-3.3352,-3.2705,-3.2398,-3.2398,-3.2398,-3.2398,-3.2413,-3.2767,-3.2582,-3.1994,-3.1951,-3.1505,-3.0448,-3.0125,-2.9694,-2.9125,-2.9027,-2.8827,-2.8504,-2.8411,-2.8411,-2.8473,-2.8812,-2.9002,-2.9018,-2.9042,-2.9473,-3.0156,-3.0171,-2.9925,-2.9694,-2.9709,-2.9784,-3.0039,-3.1005,-3.2091,-3.2992,-3.4197,-3.5434,-3.6635,-3.7258,-3.7801,-3.8767,-3.9232,-3.9301,-3.837,-3.8405,-3.7996,-3.6646,-3.6284,-3.6284,-3.6284,-3.6284,-3.6577,-3.7077,-3.7974,-3.9238,-4.0429,-4.0894,-4.0894,-4.0894,-4.0894,-4.0894,-4.0894,-4.0894,-4.0894,-4.0894,-4.0894,-4.0894,-4.0894,-4.0894,-4.0894,-4.0894,-4.0894,-4.0894,-4.0894,-4.0894,-4.0894,-4.0894,-4.0894,-4.0894,-4.0894,-4.0894,-4.0894,-4.0894,-4.0894,-4.0894,-4.0894,-4.0894,-4.0894,-4.0894,-4.0894,-4.0894,-3.3276,-3.3276,-3.3276,-3.3276,-3.3276,-3.3276,-3.3276,-3.3382,-3.3756,-3.4274,-3.4909,-3.5317,-3.5879,-3.6398,-3.6492,-3.6492,-3.6492,-3.6492,-3.6461,-3.6014,-3.5136,-3.4137,-3.3244,-3.2644,-3.2413,-3.2398,-3.2398,-3.2398,-3.2398,-3.2459,-3.2367,-3.2179,-3.1659,-3.1089,-3.0417,-2.974,-2.9196,-2.875,-2.8519,-2.8442,-2.8411,-2.8411,-2.8411,-2.8411,-2.8442,-2.8488,-2.8504,-2.8519,-2.9042,-2.9986,-2.9627,-2.9129,-2.8605,-2.8541,-2.8752,-2.8902,-3.0633,-3.1596,-3.2422,-3.4016,-3.5509,-3.6034,-3.6947,-3.7547,-3.7961,-3.8853,-3.8974,-3.784,-3.8094,-3.787,-3.6646,-3.6284,-3.6284,-3.6318,-3.6422,-3.706,-3.8301,-3.8612,-3.9462,-4.0515,-4.0894,-4.0894,-4.0894,-4.0894,-4.0894,-4.0894,-4.0894,-4.0894,-4.0894,-4.0894,-4.0894,-4.0894,-4.0894,-4.0894,-4.0894,-4.0894,-4.0894,-4.0894,-4.0894,-4.0894,-4.0894,-4.0894,-4.0894,-4.0894,-4.0894,-4.0894,-4.0894,-4.0894,-4.0894,-4.0894,-4.0894,-4.0894,-4.0894,-4.0894,-4.0894,-3.3143,-3.3276,-3.3276,-3.3276,-3.3276,-3.3276,-3.3276,-3.3312,-3.3437,-3.4099,-3.4791,-3.5041,-3.5688,-3.646,-3.6492,-3.6492,-3.6492,-3.6492,-3.6492,-3.6399,-3.5675,-3.4229,-3.2952,-3.2505,-3.2398,-3.2398,-3.2398,-3.2398,-3.2398,-3.2398,-3.2167,-3.1686,-3.152,-3.1074,-3.0386,-2.9771,-2.9341,-2.9089,-2.8627,-2.8427,-2.8411,-2.8411,-2.8411,-2.8411,-2.8411,-2.8411,-2.8411,-2.8411,-2.8519,-2.8858,-2.8879,-2.8766,-2.858,-2.8684,-2.8787,-2.914,-3.0006,-3.1032,-3.2017,-3.349,-3.4901,-3.611,-3.6913,-3.7737,-3.8289,-3.8634,-3.8427,-3.7719,-3.7719,-3.7404,-3.6525,-3.6284,-3.6284,-3.637,-3.677,-3.7491,-3.8427,-3.9112,-3.9819,-4.0705,-4.0894,-4.0894,-4.0894,-4.0894,-4.0894,-4.0894,-4.0894,-4.0894,-4.0894,-4.0894,-4.0894,-4.0894,-4.0894,-4.0894,-4.0894,-4.0894,-4.0894,-4.0894,-4.0894,-4.0894,-4.0894,-4.0894,-4.0894,-4.0894,-4.0894,-4.0894,-4.0894,-4.0894,-4.0894,-4.0894,-4.0894,-4.0894,-4.0894,-4.0894,-4.0918,-3.3108,-3.3276,-3.3276,-3.3276,-3.3276,-3.3276,-3.3276,-3.3347,-3.3577,-3.4085,-3.4824,-3.5154,-3.5688,-3.646,-3.6492,-3.6492,-3.6492,-3.6492,-3.6492,-3.6307,-3.5491,-3.4214,-3.3059,-3.2598,-3.2398,-3.2398,-3.2398,-3.2398,-3.2398,-3.2398,-3.2167,-3.1886,-3.152,-3.1182,-3.0859,-3.0156,-2.9673,-2.9412,-2.8972,-2.8719,-2.8442,-2.8411,-2.8411,-2.8411,-2.8411,-2.8411,-2.8411,-2.8444,-2.8468,-2.8508,-2.8565,-2.8629,-2.8724,-2.8873,-2.8998,-2.9222,-3.0096,-3.1036,-3.1916,-3.3326,-3.4677,-3.5727,-3.6559,-3.7129,-3.756,-3.7892,-3.784,-3.7133,-3.7305,-3.7064,-3.649,-3.6284,-3.6284,-3.637,-3.7029,-3.7767,-3.8508,-3.9232,-4.0008,-4.0636,-4.0894,-4.0894,-4.0894,-4.0894,-4.0894,-4.0894,-4.0894,-4.0894,-4.0894,-4.0894,-4.0894,-4.0894,-4.0894,-4.0894,-4.0894,-4.0894,-4.0894,-4.0894,-4.0894,-4.0894,-4.0894,-4.0894,-4.0894,-4.0894,-4.0894,-4.0894,-4.0894,-4.0894,-4.0894,-4.0894,-4.0894,-4.0894,-4.0918,-4.0989,-4.1012,-3.3108,-3.3276,-3.3276,-3.3276,-3.3276,-3.3276,-3.3276,-3.3382,-3.3825,-3.4375,-3.4909,-3.5447,-3.5943,-3.6492,-3.6492,-3.6492,-3.6492,-3.6492,-3.6492,-3.6091,-3.5245,-3.4121,-3.3552,-3.2705,-3.2428,-3.2398,-3.2398,-3.2398,-3.2398,-3.2398,-3.2398,-3.2198,-3.1751,-3.1578,-3.1366,-3.0843,-3.0197,-2.9648,-2.9387,-2.8941,-2.8519,-2.8411,-2.8411,-2.8411,-2.8411,-2.842,-2.8444,-2.8517,-2.8612,-2.8645,-2.8645,-2.8771,-2.892,-2.9052,-2.9236,-2.9512,-3.0411,-3.1194,-3.1909,-3.3372,-3.4639,-3.5136,-3.5852,-3.6284,-3.6577,-3.7025,-3.7094,-3.6508,-3.6973,-3.687,-3.6473,-3.6284,-3.6284,-3.6404,-3.7008,-3.7771,-3.8422,-3.9198,-4.0032,-4.0756,-4.0894,-4.0894,-4.0894,-4.0894,-4.0894,-4.0894,-4.0894,-4.0894,-4.0894,-4.0894,-4.0894,-4.0894,-4.0894,-4.0894,-4.0894,-4.0894,-4.0894,-4.0894,-4.0894,-4.0894,-4.0894,-4.0894,-4.0894,-4.0894,-4.0894,-4.0894,-4.0894,-4.0894,-4.0894,-4.0894,-4.0894,-4.0942,-4.0989,-4.1111,-4.1163,-3.3108,-3.3276,-3.3276,-3.3276,-3.3276,-3.3276,-3.3276,-3.3347,-3.3894,-3.4423,-3.4942,-3.5479,-3.5975,-3.6492,-3.6492,-3.6492,-3.6492,-3.6492,-3.6492,-3.6292,-3.5121,-3.4505,-3.3966,-3.2998,-3.2428,-3.2398,-3.2398,-3.2398,-3.2398,-3.2398,-3.2398,-3.2351,-3.2228,-3.2194,-3.2044,-3.149,-3.0859,-3.0217,-2.9694,-2.911,-2.8596,-2.8427,-2.8411,-2.8411,-2.8411,-2.8484,-2.8541,-2.8589,-2.8716,-2.8912,-2.9006,-2.9068,-2.9208,-2.9416,-2.9727,-3.006,-3.0304,-3.0841,-3.1564,-3.2924,-3.3997,-3.4484,-3.5542,-3.6284,-3.6284,-3.6439,-3.6508,-3.6318,-3.6456,-3.6508,-3.6335,-3.6284,-3.6284,-3.6439,-3.6939,-3.753,-3.7905,-3.8922,-3.9974,-4.0601,-4.0877,-4.0894,-4.0894,-4.0894,-4.0894,-4.0894,-4.0894,-4.0894,-4.0894,-4.0894,-4.0894,-4.0894,-4.0894,-4.0894,-4.0894,-4.0894,-4.0894,-4.0894,-4.0894,-4.0894,-4.0894,-4.0894,-4.0894,-4.0894,-4.0894,-4.0894,-4.0894,-4.0894,-4.0894,-4.0894,-4.0918,-4.1018,-4.1117,-4.1214,-4.1351,-3.3108,-3.3276,-3.3276,-3.3276,-3.3276,-3.3312,-3.3452,-3.3701,-3.3948,-3.4543,-3.5219,-3.5591,-3.599,-3.646,-3.6492,-3.6492,-3.6492,-3.6492,-3.6492,-3.6184,-3.5167,-3.452,-3.4212,-3.3195,-3.2398,-3.2398,-3.2398,-3.2398,-3.2398,-3.2398,-3.2398,-3.2398,-3.2398,-3.2351,-3.2398,-3.204,-3.152,-3.0889,-3.0228,-2.9525,-2.8981,-2.855,-2.8411,-2.842,-2.8444,-2.8541,-2.8589,-2.8787,-2.9006,-2.9243,-2.9389,-2.964,-3.0158,-3.059,-3.0914,-3.1021,-3.143,-3.1308,-3.1822,-3.2951,-3.4134,-3.4125,-3.5456,-3.6059,-3.6284,-3.6284,-3.6284,-3.6284,-3.6301,-3.6284,-3.6284,-3.6284,-3.6284,-3.6353,-3.6663,-3.718,-3.8013,-3.9026,-3.9819,-4.0342,-4.0636,-4.0825,-4.0894,-4.0894,-4.0894,-4.0894,-4.0894,-4.0894,-4.0894,-4.0894,-4.0894,-4.0894,-4.0894,-4.0894,-4.0894,-4.0894,-4.0894,-4.0894,-4.0894,-4.0894,-4.0894,-4.0894,-4.0894,-4.0894,-4.0894,-4.0894,-4.0894,-4.0894,-4.0918,-4.0942,-4.0995,-4.114,-4.1283,-4.1463,-4.1512,-3.3143,-3.3276,-3.3276,-3.3276,-3.3276,-3.3312,-3.3612,-3.4051,-3.4172,-3.4776,-3.5591,-3.5752,-3.6148,-3.6414,-3.6492,-3.6492,-3.6492,-3.6492,-3.6492,-3.6307,-3.5121,-3.4582,-3.4166,-3.3211,-3.2398,-3.2398,-3.2398,-3.2398,-3.2398,-3.2398,-3.2398,-3.2398,-3.2398,-3.2398,-3.2382,-3.2351,-3.1994,-3.1274,-3.0643,-2.9956,-2.9335,-2.875,-2.8427,-2.8468,-2.8565,-2.8668,-2.8763,-2.8936,-2.9259,-2.9671,-2.9829,-3.0467,-3.1298,-3.1846,-3.2277,-3.2005,-3.2437,-3.2317,-3.2151,-3.3345,-3.4422,-3.4266,-3.5473,-3.6197,-3.6284,-3.6284,-3.6284,-3.6284,-3.6284,-3.6284,-3.6284,-3.6284,-3.6284,-3.6301,-3.6284,-3.6973,-3.8129,-3.9094,-3.9508,-4.0101,-4.0584,-4.086,-4.0894,-4.0894,-4.0894,-4.0894,-4.0894,-4.0894,-4.0894,-4.0894,-4.0894,-4.0894,-4.0894,-4.0894,-4.0894,-4.0894,-4.0894,-4.0894,-4.0894,-4.0894,-4.0894,-4.0894,-4.0894,-4.0894,-4.0894,-4.0894,-4.0965,-4.1065,-4.1065,-4.1018,-4.1117,-4.1288,-4.149,-4.1687,-4.1709,-3.3276,-3.3276,-3.3276,-3.3276,-3.3276,-3.3276,-3.3597,-3.4119,-3.4543,-3.5121,-3.572,-3.6148,-3.6383,-3.6492,-3.6492,-3.6492,-3.6492,-3.6492,-3.6492,-3.6245,-3.5183,-3.4505,-3.4227,-3.309,-3.2444,-3.2398,-3.2398,-3.2398,-3.2398,-3.2398,-3.2398,-3.2398,-3.2398,-3.2398,-3.2398,-3.2367,-3.2117,-3.1505,-3.0859,-3.0171,-2.9535,-2.8836,-2.8468,-2.8565,-2.8708,-2.8873,-2.9021,-2.9098,-2.9418,-3.0065,-3.0658,-3.135,-3.193,-3.1941,-3.2059,-3.2435,-3.2798,-3.2957,-3.2867,-3.3616,-3.4482,-3.5025,-3.5801,-3.6232,-3.6284,-3.6284,-3.6284,-3.6284,-3.6284,-3.6284,-3.6284,-3.6284,-3.6284,-3.6284,-3.6353,-3.6732,-3.7646,-3.8456,-3.9422,-4.0359,-4.0722,-4.0894,-4.0894,-4.0894,-4.0894,-4.0894,-4.0894,-4.0894,-4.0894,-4.0894,-4.0894,-4.0894,-4.0894,-4.0894,-4.0894,-4.0894,-4.0894,-4.0894,-4.0894,-4.0894,-4.0894,-4.0894,-4.0894,-4.0894,-4.0894,-4.0894,-4.1012,-4.1157,-4.1111,-4.0971,-4.1192,-4.1468,-4.1512,-4.1556,-4.1799,-3.3276,-3.3276,-3.3276,-3.3276,-3.3276,-3.3276,-3.377,-3.4491,-3.481,-3.535,-3.599,-3.6383,-3.6492,-3.6492,-3.6492,-3.6492,-3.6492,-3.6492,-3.6492,-3.6184,-3.5198,-3.4489,-3.4305,-3.3029,-3.2536,-3.2398,-3.2398,-3.2398,-3.2398,-3.2398,-3.2398,-3.2398,-3.2398,-3.2398,-3.2398,-3.2382,-3.224,-3.1767,-3.1228,-3.0566,-2.9858,-2.9015,-2.8611,-2.8668,-2.8881,-2.9137,-2.9425,-2.9643,-3.0,-3.0543,-3.0871,-3.161,-3.2249,-3.2679,-3.2773,-3.3242,-3.3873,-3.4,-3.3884,-3.449,-3.5283,-3.5232,-3.5887,-3.6249,-3.6284,-3.6284,-3.6284,-3.6284,-3.6284,-3.6284,-3.6284,-3.6284,-3.6284,-3.6284,-3.6318,-3.6904,-3.7767,-3.8358,-3.9445,-4.0618,-4.0825,-4.0894,-4.0894,-4.0894,-4.0894,-4.0894,-4.0894,-4.0894,-4.0894,-4.0894,-4.0894,-4.0894,-4.0894,-4.0894,-4.0894,-4.0894,-4.0894,-4.0894,-4.0894,-4.0894,-4.0894,-4.0894,-4.0894,-4.0894,-4.0894,-4.0894,-4.0918,-4.1035,-4.0989,-4.0995,-4.126,-4.1445,-4.1378,-4.1445,-4.1713,-3.3276,-3.3276,-3.3276,-3.3276,-3.3276,-3.3276,-3.3908,-3.4758,-3.489,-3.5479,-3.6429,-3.6492,-3.6492,-3.6492,-3.6492,-3.6492,-3.6476,-3.6384,-3.623,-3.5938,-3.4874,-3.4243,-3.3919,-3.3195,-3.2398,-3.2398,-3.2398,-3.2398,-3.2398,-3.2398,-3.2398,-3.2398,-3.2398,-3.2398,-3.2398,-3.2398,-3.2398,-3.2198,-3.1736,-3.1059,-3.0156,-2.9261,-2.8692,-2.8818,-2.9059,-2.9425,-2.9694,-3.0065,-3.0431,-3.0804,-3.1049,-3.145,-3.2509,-3.3188,-3.3668,-3.4226,-3.537,-3.5214,-3.5007,-3.5145,-3.5645,-3.5594,-3.599,-3.6215,-3.6284,-3.6284,-3.6284,-3.6284,-3.6284,-3.6284,-3.6284,-3.6284,-3.6404,-3.6615,-3.6697,-3.706,-3.8267,-3.9043,-3.9566,-4.0359,-4.0739,-4.0894,-4.0894,-4.0894,-4.0894,-4.0894,-4.0894,-4.0894,-4.0894,-4.0894,-4.0894,-4.0894,-4.0894,-4.0894,-4.0894,-4.0894,-4.0894,-4.0894,-4.0894,-4.0894,-4.0894,-4.0894,-4.0894,-4.0918,-4.0894,-4.0894,-4.0912,-4.0965,-4.1018,-4.114,-4.1311,-4.1423,-4.1423,-4.1512,-4.1735,-3.3276,-3.3276,-3.3276,-3.3276,-3.3312,-3.3312,-3.3908,-3.4857,-3.4924,-3.5527,-3.6492,-3.6492,-3.6492,-3.6492,-3.6492,-3.6492,-3.6338,-3.6045,-3.5799,-3.5568,-3.4428,-3.3721,-3.346,-3.2782,-3.2444,-3.2398,-3.2398,-3.2398,-3.2398,-3.2398,-3.2398,-3.2398,-3.2398,-3.2398,-3.2398,-3.2398,-3.2398,-3.2275,-3.1763,-3.0865,-2.9896,-2.9166,-2.8998,-2.9098,-2.9425,-2.97,-2.9848,-3.0262,-3.0683,-3.0848,-3.1123,-3.1443,-3.1949,-3.2626,-3.3348,-3.4059,-3.4766,-3.5249,-3.5128,-3.5404,-3.5783,-3.5939,-3.6232,-3.6284,-3.6284,-3.6284,-3.6284,-3.6284,-3.6284,-3.6284,-3.6284,-3.6284,-3.6628,-3.6943,-3.7116,-3.7939,-3.9043,-3.9008,-3.96,-4.0394,-4.086,-4.0894,-4.0894,-4.0894,-4.0894,-4.0894,-4.0894,-4.0894,-4.0894,-4.0894,-4.0894,-4.0894,-4.0894,-4.0894,-4.0894,-4.0894,-4.0918,-4.0894,-4.0918,-4.0894,-4.0894,-4.0894,-4.0942,-4.0965,-4.0965,-4.1065,-4.1203,-4.1232,-4.1209,-4.1283,-4.1468,-4.1494,-4.149,-4.1626,-4.1864,-3.2693,-3.3276,-3.3276,-3.3276,-3.3347,-3.3597,-3.4187,-3.4843,-3.5252,-3.5799,-3.6398,-3.6492,-3.6492,-3.6492,-3.6492,-3.6492,-3.643,-3.6138,-3.5814,-3.5398,-3.446,-3.3767,-3.3321,-3.2752,-3.2413,-3.2398,-3.2398,-3.2398,-3.2398,-3.2398,-3.2398,-3.2398,-3.2398,-3.2398,-3.2398,-3.2398,-3.2398,-3.224,-3.1786,-3.1067,-3.0313,-2.9804,-2.9462,-2.9261,-2.9592,-2.9836,-3.0092,-3.0456,-3.0845,-3.1064,-3.1408,-3.1634,-3.1918,-3.2472,-3.311,-3.3386,-3.4576,-3.5352,-3.5732,-3.5783,-3.599,-3.6146,-3.6284,-3.6284,-3.6284,-3.6284,-3.6284,-3.6284,-3.6284,-3.6284,-3.6284,-3.6284,-3.6766,-3.715,-3.7254,-3.8267,-3.9043,-3.8991,-3.9307,-4.017,-4.0894,-4.0894,-4.0894,-4.0894,-4.0894,-4.0894,-4.0894,-4.0894,-4.0894,-4.0894,-4.0894,-4.0894,-4.0894,-4.0894,-4.0894,-4.0894,-4.0942,-4.0965,-4.0965,-4.0965,-4.0894,-4.0918,-4.1088,-4.1209,-4.1283,-4.1396,-4.1529,-4.1507,-4.1423,-4.1512,-4.1583,-4.1735,-4.1864,-4.1948,-4.2198,-3.2033,-3.2862,-3.3045,-3.3156,-3.3309,-3.3876,-3.4476,-3.5106,-3.5512,-3.599,-3.6383,-3.6492,-3.6492,-3.6492,-3.6492,-3.6492,-3.6507,-3.6322,-3.5968,-3.5368,-3.4629,-3.3891,-3.3336,-3.2767,-3.2398,-3.2398,-3.2398,-3.2398,-3.2398,-3.2398,-3.2398,-3.2398,-3.2398,-3.2398,-3.2398,-3.2398,-3.2425,-3.2419,-3.194,-3.1441,-3.1009,-3.0633,-3.018,-2.9929,-2.9923,-3.0136,-3.0326,-3.0727,-3.11,-3.1276,-3.1596,-3.1781,-3.1903,-3.2231,-3.2697,-3.3145,-3.418,-3.5111,-3.5663,-3.599,-3.6232,-3.6284,-3.6284,-3.6284,-3.6284,-3.6284,-3.6284,-3.6284,-3.6284,-3.6284,-3.6284,-3.6284,-3.6732,-3.7008,-3.7133,-3.818,-3.906,-3.9146,-3.9497,-4.0342,-4.0894,-4.0894,-4.0894,-4.0894,-4.0894,-4.0894,-4.0894,-4.0894,-4.0894,-4.0894,-4.0894,-4.0894,-4.0894,-4.0965,-4.1071,-4.1065,-4.1065,-4.1111,-4.1134,-4.1209,-4.1323,-4.1373,-4.149,-4.16,-4.1648,-4.1735,-4.1881,-4.1756,-4.167,-4.1799,-4.1927,-4.2175,-4.2297,-4.2398,-4.2577,-3.1527,-3.1668,-3.2216,-3.2741,-3.3221,-3.3869,-3.4662,-3.5479,-3.5655,-3.6022,-3.646,-3.6492,-3.6492,-3.6476,-3.6415,-3.6415,-3.6461,-3.5845,-3.5614,-3.5045,-3.4214,-3.3614,-3.3167,-3.2813,-3.2398,-3.2398,-3.2398,-3.2398,-3.2398,-3.2398,-3.2398,-3.2398,-3.2398,-3.2398,-3.2425,-3.2425,-3.2496,-3.2497,-3.2166,-3.2029,-3.1791,-3.1462,-3.0951,-3.0681,-3.079,-3.0888,-3.038,-3.0885,-3.1218,-3.1315,-3.1634,-3.18,-3.1852,-3.1972,-3.23,-3.3007,-3.3783,-3.468,-3.5301,-3.5973,-3.6249,-3.6284,-3.6284,-3.6284,-3.6284,-3.6284,-3.6284,-3.6284,-3.6284,-3.6284,-3.6284,-3.637,-3.6697,-3.7111,-3.7443,-3.8198,-3.9043,-3.9474,-3.9894,-4.0618,-4.0894,-4.0894,-4.0894,-4.0894,-4.0894,-4.0894,-4.0894,-4.0894,-4.0894,-4.0894,-4.0894,-4.0894,-4.0894,-4.1041,-4.1333,-4.1356,-4.1351,-4.1512,-4.1644,-4.1796,-4.1966,-4.199,-4.1864,-4.2053,-4.2157,-4.2177,-4.2239,-4.23,-4.2302,-4.2198,-4.2297,-4.2596,-4.2826,-4.2939,-4.3087,-3.0333,-3.0431,-3.1415,-3.2196,-3.2752,-3.3303,-3.4174,-3.5142,-3.5559,-3.599,-3.6492,-3.6492,-3.6492,-3.6399,-3.6045,-3.6122,-3.6276,-3.5352,-3.5306,-3.4967,-3.4214,-3.3521,-3.3167,-3.2875,-3.2398,-3.2413,-3.2413,-3.2398,-3.2398,-3.2398,-3.2398,-3.2398,-3.2425,-3.2398,-3.2425,-3.2496,-3.2621,-3.2753,-3.2718,-3.2672,-3.2346,-3.2267,-3.1702,-3.0792,-3.1132,-3.0931,-3.0525,-3.0982,-3.1218,-3.1443,-3.1721,-3.1883,-3.1921,-3.1903,-3.2248,-3.2904,-3.3697,-3.4424,-3.5145,-3.5835,-3.6266,-3.6284,-3.6284,-3.6284,-3.6284,-3.6284,-3.6284,-3.6284,-3.6284,-3.6284,-3.6284,-3.6318,-3.6577,-3.7219,-3.7806,-3.837,-3.8957,-3.9439,-4.0083,-4.0722,-4.0877,-4.0894,-4.0894,-4.0894,-4.0894,-4.0894,-4.0894,-4.0894,-4.0894,-4.0894,-4.0894,-4.0894,-4.0894,-4.0965,-4.1237,-4.1423,-4.1578,-4.1821,-4.2074,-4.2177,-4.2277,-4.2177,-4.2136,-4.2398,-4.2635,-4.2713,-4.2808,-4.294,-4.2902,-4.2693,-4.2808,-4.3105,-4.3304,-4.341,-4.3462,-2.9602,-2.9743,-3.0769,-3.1655,-3.242,-3.334,-3.4248,-3.5127,-3.5735,-3.6116,-3.6492,-3.6492,-3.6492,-3.6338,-3.6091,-3.603,-3.6215,-3.5722,-3.5598,-3.526,-3.4768,-3.4106,-3.3721,-3.326,-3.2782,-3.2644,-3.2428,-3.2398,-3.2398,-3.2398,-3.2398,-3.2425,-3.2453,-3.2453,-3.2453,-3.2594,-3.28,-3.3032,-3.3182,-3.3302,-3.2955,-3.3001,-3.2797,-3.1832,-3.2069,-3.2,-3.1754,-3.2019,-3.2205,-3.2342,-3.2479,-3.2541,-3.2438,-3.2403,-3.2593,-3.3162,-3.3803,-3.4458,-3.5145,-3.5818,-3.6266,-3.6284,-3.6284,-3.6284,-3.6284,-3.6284,-3.6284,-3.6284,-3.6284,-3.6284,-3.6284,-3.6318,-3.6404,-3.6904,-3.7426,-3.8013,-3.8819,-3.9422,-4.0118,-4.0756,-4.0825,-4.0894,-4.0894,-4.0894,-4.0894,-4.0894,-4.0894,-4.0894,-4.0894,-4.0894,-4.0894,-4.0894,-4.0894,-4.0989,-4.1111,-4.1351,-4.1604,-4.1927,-4.2157,-4.232,-4.2378,-4.234,-4.2539,-4.2902,-4.3124,-4.3214,-4.325,-4.325,-4.3196,-4.3124,-4.325,-4.3392,-4.3392,-4.3444,-4.3496,-2.9602,-2.9673,-3.0305,-3.1261,-3.2443,-3.4101,-3.5062,-3.5608,-3.6148,-3.646,-3.6492,-3.6492,-3.6492,-3.6445,-3.6245,-3.6292,-3.6384,-3.6199,-3.6184,-3.5999,-3.5337,-3.5275,-3.4783,-3.4044,-3.3152,-3.3167,-3.2767,-3.2398,-3.2398,-3.2398,-3.2398,-3.2468,-3.2523,-3.2578,-3.2468,-3.2746,-3.3032,-3.3282,-3.3424,-3.3578,-3.3694,-3.3756,-3.3551,-3.3196,-3.3182,-3.3101,-3.2967,-3.2964,-3.3171,-3.3461,-3.3554,-3.363,-3.3647,-3.3145,-3.3317,-3.4027,-3.4113,-3.4525,-3.518,-3.5904,-3.6215,-3.6284,-3.6284,-3.6284,-3.6284,-3.6284,-3.6284,-3.6284,-3.6284,-3.6284,-3.6284,-3.6301,-3.6387,-3.6594,-3.7133,-3.7823,-3.8629,-3.9405,-4.0083,-4.0705,-4.0843,-4.0894,-4.0894,-4.0894,-4.0894,-4.0894,-4.0894,-4.0894,-4.0894,-4.0894,-4.0894,-4.0894,-4.0894,-4.0965,-4.1111,-4.1351,-4.1626,-4.1969,-4.2279,-4.2518,-4.2713,-4.2826,-4.3087,-4.3392,-4.341,-4.3392,-4.3445,-4.3497,-4.3427,-4.3392,-4.341,-4.3479,-4.3496,-4.3513,-4.3582,-2.9602,-2.969,-3.0566,-3.1492,-3.2392,-3.3332,-3.4493,-3.5674,-3.6226,-3.6492,-3.6492,-3.6492,-3.6492,-3.6384,-3.6122,-3.6107,-3.6338,-3.5398,-3.5398,-3.6322,-3.5521,-3.529,-3.4922,-3.4275,-3.346,-3.3213,-3.2767,-3.2398,-3.2398,-3.2398,-3.2398,-3.2468,-3.2676,-3.2757,-3.2827,-3.3032,-3.3256,-3.3466,-3.3658,-3.3832,-3.4034,-3.4226,-3.4169,-3.3693,-3.3885,-3.3934,-3.3777,-3.3781,-3.3967,-3.4246,-3.4303,-3.4268,-3.4251,-3.3783,-3.4076,-3.4665,-3.4855,-3.5163,-3.5714,-3.6215,-3.6266,-3.6284,-3.6284,-3.6284,-3.6284,-3.6284,-3.6284,-3.6284,-3.6284,-3.6284,-3.6284,-3.6284,-3.6353,-3.6508,-3.7008,-3.7789,-3.8565,-3.9284,-3.9974,-4.0584,-4.0894,-4.0894,-4.0894,-4.0894,-4.0894,-4.0894,-4.0894,-4.0894,-4.0894,-4.0894,-4.0894,-4.0894,-4.0894,-4.0965,-4.1111,-4.1468,-4.1756,-4.2053,-4.2498,-4.2883,-4.3069,-4.3124,-4.3304,-4.3463,-4.3497,-4.3515,-4.3566,-4.3635,-4.3686,-4.3686,-4.3634,-4.3617,-4.3634,-4.3686,-4.3753,-2.9602,-2.9704,-3.0566,-3.143,-3.2297,-3.3305,-3.4592,-3.5882,-3.6367,-3.6492,-3.6492,-3.6492,-3.6492,-3.6353,-3.6122,-3.5968,-3.6384,-3.5707,-3.5414,-3.6353,-3.5722,-3.5645,-3.5353,-3.4491,-3.3983,-3.3521,-3.2875,-3.2398,-3.2398,-3.2398,-3.2496,-3.2633,-3.2866,-3.3027,-3.315,-3.3293,-3.345,-3.3633,-3.3822,-3.4025,-3.4275,-3.4496,-3.4525,-3.4413,-3.4482,-3.4631,-3.4453,-3.4451,-3.4538,-3.474,-3.4838,-3.4818,-3.48,-3.4697,-3.4904,-3.5335,-3.5628,-3.5852,-3.6146,-3.6249,-3.6284,-3.6284,-3.6284,-3.6284,-3.6284,-3.6284,-3.6284,-3.6284,-3.6284,-3.6284,-3.6284,-3.6284,-3.6335,-3.6473,-3.6939,-3.7719,-3.8203,-3.8905,-3.9733,-4.0359,-4.086,-4.0877,-4.0894,-4.0894,-4.0894,-4.0894,-4.0894,-4.0894,-4.0894,-4.0894,-4.0942,-4.0995,-4.1088,-4.1232,-4.1418,-4.1709,-4.1948,-4.2175,-4.2537,-4.2939,-4.305,-4.305,-4.3286,-4.3515,-4.3549,-4.36,-4.3669,-4.3736,-4.3769,-4.3786,-4.3786,-4.3769,-4.3804,-4.382,-4.3835,-2.9602,-2.9701,-3.0235,-3.1077,-3.2161,-3.3735,-3.5275,-3.643,-3.6492,-3.6492,-3.6492,-3.6492,-3.6492,-3.6492,-3.6445,-3.6445,-3.6461,-3.6338,-3.6384,-3.6445,-3.6199,-3.6307,-3.583,-3.4983,-3.4291,-3.3814,-3.3198,-3.2398,-3.2398,-3.2468,-3.2578,-3.2866,-3.3123,-3.3319,-3.345,-3.3581,-3.3684,-3.3797,-3.3899,-3.4126,-3.4374,-3.4618,-3.4776,-3.4885,-3.5172,-3.5418,-3.5501,-3.5685,-3.5882,-3.6038,-3.6111,-3.6163,-3.6008,-3.5594,-3.5818,-3.6025,-3.6197,-3.6249,-3.6266,-3.6284,-3.6284,-3.6284,-3.6284,-3.6284,-3.6284,-3.6284,-3.6284,-3.6284,-3.6284,-3.6284,-3.6284,-3.6284,-3.6284,-3.6577,-3.6904,-3.7409,-3.7749,-3.8474,-3.9353,-4.0026,-4.0618,-4.0825,-4.0877,-4.0894,-4.0894,-4.0894,-4.0894,-4.0894,-4.0894,-4.0894,-4.0971,-4.1163,-4.1305,-4.1556,-4.1731,-4.1735,-4.199,-4.2154,-4.24,-4.2732,-4.2845,-4.3123,-4.3393,-4.3566,-4.3617,-4.3667,-4.3769,-4.3818,-4.3816,-4.3832,-4.3865,-4.3865,-4.3883,-4.3851,-4.3867,-2.9602,-2.9662,-3.0173,-3.0814,-3.1722,-3.3333,-3.4988,-3.6384,-3.6492,-3.6492,-3.6492,-3.6492,-3.6492,-3.6492,-3.6492,-3.6492,-3.6492,-3.6492,-3.6476,-3.6476,-3.6415,-3.6138,-3.5614,-3.4921,-3.426,-3.3598,-3.2921,-3.2398,-3.2425,-3.248,-3.273,-3.3016,-3.3293,-3.3529,-3.372,-3.3873,-3.3899,-3.3924,-3.3975,-3.4176,-3.4399,-3.4618,-3.4866,-3.5195,-3.5407,-3.5677,-3.6023,-3.6002,-3.611,-3.6259,-3.6284,-3.6284,-3.6232,-3.6077,-3.618,-3.6215,-3.6266,-3.6284,-3.6284,-3.6284,-3.6284,-3.6284,-3.6284,-3.6284,-3.6284,-3.6284,-3.6284,-3.6284,-3.6284,-3.6284,-3.6284,-3.6284,-3.6284,-3.6473,-3.6732,-3.6956,-3.737,-3.806,-3.8939,-3.9836,-4.0429,-4.0843,-4.0894,-4.0894,-4.0894,-4.0894,-4.0894,-4.0894,-4.0894,-4.0894,-4.1018,-4.1214,-4.1328,-4.1512,-4.1485,-4.1485,-4.1839,-4.2133,-4.24,-4.2733,-4.3105,-4.3375,-4.3549,-4.3669,-4.3703,-4.3751,-4.3849,-4.3865,-4.3867,-4.3945,-4.3976,-4.3942,-4.3945,-4.3913,-4.3915,-2.9602,-2.9634,-2.9913,-3.0502,-3.1449,-3.2765,-3.4182,-3.5355,-3.5892,-3.6245,-3.6476,-3.6492,-3.6492,-3.6492,-3.6492,-3.6492,-3.6492,-3.6492,-3.6492,-3.6445,-3.623,-3.5876,-3.5322,-3.4537,-3.3875,-3.326,-3.2813,-3.2398,-3.2453,-3.2633,-3.2881,-3.3176,-3.345,-3.3684,-3.3848,-3.3975,-3.4025,-3.4025,-3.4059,-3.4176,-3.4399,-3.4667,-3.4984,-3.5218,-3.5385,-3.5832,-3.6067,-3.5958,-3.6114,-3.628,-3.6284,-3.6284,-3.6284,-3.6284,-3.6266,-3.6284,-3.6284,-3.6284,-3.6284,-3.6284,-3.6284,-3.6284,-3.6284,-3.6284,-3.6284,-3.6284,-3.6284,-3.6284,-3.6284,-3.6284,-3.6284,-3.6284,-3.6284,-3.6301,-3.6422,-3.6525,-3.7077,-3.7698,-3.8594,-3.9577,-4.0198,-4.0722,-4.0894,-4.0894,-4.0894,-4.0894,-4.0894,-4.0894,-4.0894,-4.0894,-4.1088,-4.1305,-4.1328,-4.1373,-4.1328,-4.1418,-4.1796,-4.2195,-4.2557,-4.2902,-4.3321,-4.3496,-4.3549,-4.3669,-4.3769,-4.3835,-4.3867,-4.3883,-4.3883,-4.3961,-4.3989,-4.3958,-4.3961,-4.3945,-4.3945,-2.9602,-2.9602,-2.9602,-3.0259,-3.1319,-3.2184,-3.305,-3.3849,-3.4849,-3.5722,-3.6261,-3.6384,-3.6399,-3.6461,-3.6492,-3.6492,-3.6492,-3.6492,-3.6353,-3.6415,-3.5922,-3.5445,-3.4768,-3.4075,-3.349,-3.3136,-3.2798,-3.2425,-3.2508,-3.2757,-3.3069,-3.3335,-3.3581,-3.3797,-3.3949,-3.405,-3.4075,-3.4075,-3.4109,-3.425,-3.4618,-3.4937,-3.5201,-3.5385,-3.5744,-3.6152,-3.6023,-3.6088,-3.6284,-3.6284,-3.6284,-3.6284,-3.6284,-3.6284,-3.6284,-3.6284,-3.6284,-3.6284,-3.6284,-3.6284,-3.6284,-3.6284,-3.6284,-3.6284,-3.6284,-3.6284,-3.6284,-3.6284,-3.6284,-3.6284,-3.6284,-3.6284,-3.6284,-3.6284,-3.6353,-3.6404,-3.6646,-3.7491,-3.8594,-3.9543,-4.0342,-4.0791,-4.0894,-4.0894,-4.0894,-4.0894,-4.0894,-4.0894,-4.0894,-4.0894,-4.1041,-4.1283,-4.1232,-4.1237,-4.1445,-4.1578,-4.186,-4.2218,-4.2537,-4.2732,-4.2865,-4.316,-4.3496,-4.3634,-4.3804,-4.382,-4.3837,-4.3851,-4.3899,-4.3929,-4.3961,-4.3942,-4.3961,-4.3945,-4.3961,-2.9602,-2.9602,-2.9602,-3.0183,-3.1041,-3.1309,-3.221,-3.3472,-3.3756,-3.4599,-3.5553,-3.5753,-3.603,-3.6384,-3.6322,-3.6322,-3.6415,-3.6199,-3.6122,-3.5814,-3.5414,-3.4752,-3.4106,-3.3583,-3.3106,-3.2721,-3.2487,-3.2496,-3.266,-3.2973,-3.3282,-3.3477,-3.371,-3.3899,-3.4025,-3.4101,-3.4101,-3.4101,-3.4126,-3.4308,-3.4739,-3.4859,-3.5024,-3.543,-3.592,-3.611,-3.6088,-3.622,-3.6284,-3.6284,-3.6284,-3.6284,-3.6284,-3.6284,-3.6284,-3.6284,-3.6284,-3.6284,-3.6284,-3.6284,-3.6284,-3.6284,-3.6284,-3.6284,-3.6284,-3.6284,-3.6284,-3.6284,-3.6284,-3.6284,-3.6284,-3.6284,-3.6284,-3.6284,-3.6284,-3.6284,-3.6301,-3.7404,-3.8577,-3.9479,-4.0342,-4.0687,-4.0808,-4.0894,-4.0894,-4.0894,-4.0894,-4.0894,-4.0918,-4.0918,-4.0935,-4.1088,-4.1018,-4.1088,-4.1351,-4.149,-4.1644,-4.1842,-4.2098,-4.2282,-4.2462,-4.2772,-4.3142,-4.3583,-4.3804,-4.3703,-4.3684,-4.3849,-4.3897,-4.3929,-4.3961,-4.3942,-4.3976,-4.3961,-4.3958,-2.9602,-2.9602,-2.9602,-2.9913,-3.0403,-3.0822,-3.1529,-3.2293,-3.2782,-3.3552,-3.4537,-3.4951,-3.5444,-3.5876,-3.5753,-3.5876,-3.5922,-3.5676,-3.5368,-3.506,-3.4691,-3.4121,-3.3552,-3.3106,-3.2798,-3.2444,-3.2496,-3.2621,-3.2839,-3.3096,-3.3388,-3.3658,-3.3848,-3.3975,-3.4075,-3.4101,-3.4101,-3.4101,-3.4101,-3.4407,-3.4818,-3.4984,-3.5195,-3.5655,-3.5963,-3.6131,-3.6195,-3.6284,-3.6284,-3.6284,-3.6284,-3.6284,-3.6284,-3.6284,-3.6284,-3.6284,-3.6284,-3.6284,-3.6284,-3.6284,-3.6284,-3.6284,-3.6284,-3.6284,-3.6284,-3.6284,-3.6284,-3.6284,-3.6284,-3.6284,-3.6284,-3.6284,-3.6284,-3.6284,-3.6284,-3.6284,-3.6525,-3.718,-3.8146,-3.8922,-3.9773,-4.0429,-4.0601,-4.0894,-4.0912,-4.1023,-4.0982,-4.1012,-4.0995,-4.0971,-4.0965,-4.0982,-4.0965,-4.0918,-4.1065,-4.1163,-4.1232,-4.1445,-4.1739,-4.2015,-4.2302,-4.2521,-4.2791,-4.3232,-4.3462,-4.3356,-4.339,-4.3681,-4.383,-4.3878,-4.391,-4.3942,-4.3958,-4.3992,-4.3974,-2.9602,-2.9602,-2.9602,-2.9634,-2.982,-3.0613,-3.1102,-3.1307,-3.2035,-3.2721,-3.3336,-3.3966,-3.4643,-3.4967,-3.4859,-3.5059,-3.5121,-3.5013,-3.4674,-3.4229,-3.3783,-3.346,-3.3121,-3.2721,-3.2521,-3.2499,-3.2578,-3.2784,-3.3058,-3.3309,-3.3555,-3.3848,-3.3949,-3.4,-3.4075,-3.4101,-3.4101,-3.4151,-3.4275,-3.4602,-3.492,-3.5224,-3.5498,-3.581,-3.6131,-3.6262,-3.6284,-3.6284,-3.6284,-3.6284,-3.6284,-3.6284,-3.6284,-3.6284,-3.6284,-3.6284,-3.6284,-3.6284,-3.6284,-3.6284,-3.6284,-3.6284,-3.6284,-3.6284,-3.6284,-3.6284,-3.6284,-3.6284,-3.6284,-3.6284,-3.6284,-3.6284,-3.6284,-3.6284,-3.6284,-3.6284,-3.6628,-3.7025,-3.7767,-3.8525,-3.9284,-4.0049,-4.0549,-4.0843,-4.0959,-4.1047,-4.1117,-4.1152,-4.1157,-4.1111,-4.1088,-4.1105,-4.1129,-4.1059,-4.0995,-4.1065,-4.1186,-4.1305,-4.1626,-4.1885,-4.218,-4.2581,-4.2829,-4.2921,-4.305,-4.3232,-4.3355,-4.3597,-4.3714,-4.3862,-4.3926,-4.3974,-4.3974,-4.4008,-4.3989,-2.9602,-2.9602,-2.9602,-2.982,-3.0205,-3.0748,-3.1204,-3.1625,-3.2148,-3.249,-3.2659,-3.2798,-3.3429,-3.4674,-3.4597,-3.4613,-3.4551,-3.4366,-3.3998,-3.3598,-3.3367,-3.3029,-3.2736,-3.2536,-3.2428,-3.2523,-3.266,-3.2935,-3.3219,-3.345,-3.3694,-3.3899,-3.4025,-3.4075,-3.4075,-3.4101,-3.4126,-3.4201,-3.4456,-3.4771,-3.5045,-3.5345,-3.5616,-3.5941,-3.6259,-3.6284,-3.6284,-3.6284,-3.6284,-3.6284,-3.6284,-3.6284,-3.6284,-3.6284,-3.6284,-3.6284,-3.6284,-3.6284,-3.6284,-3.6284,-3.6284,-3.6284,-3.6284,-3.6284,-3.6284,-3.6284,-3.6284,-3.6284,-3.6284,-3.6284,-3.6284,-3.6284,-3.6284,-3.6284,-3.6284,-3.6284,-3.6456,-3.7008,-3.7685,-3.8422,-3.9163,-3.9957,-4.0739,-4.0894,-4.0912,-4.1023,-4.1087,-4.1123,-4.1186,-4.1203,-4.1203,-4.1226,-4.1267,-4.1346,-4.1356,-4.1305,-4.1373,-4.1423,-4.1583,-4.2015,-4.2444,-4.283,-4.3051,-4.2995,-4.3249,-4.3548,-4.3632,-4.3597,-4.3763,-4.391,-4.3958,-4.3989,-4.4005,-4.4005,-4.4005]}]]